<?xml version="1.0" encoding="UTF-8" standalone="no" ?>
<gpx xmlns="http://www.topografix.com/GPX/1/1" xmlns:xsi="http://www.w3.org/2001/XMLSchema-instance" xsi:schemaLocation="http://www.topografix.com/GPX/1/1 http://www.topografix.com/GPX/1/1/gpx.xsd" version="1.1" creator="VisuGPX - https://www.visugpx.com">
  <metadata>
    <name>2023-05-29 09:05:38</name>
    <desc><![CDATA[

]]></desc>
  </metadata>
  <trk>
    <name><![CDATA[2023-05-29 09:05:38]]></name>
    <extensions>
      <line xmlns="http://www.topografix.com/GPX/gpx_style/0/2">
        <color>0000FF</color>
        <width>4</width>
      </line>
    </extensions>
    <trkseg>
      <trkpt lat="44.33277" lon="0.79282">
        <ele>176.54</ele>
        <time>2023-05-28T07:05:08Z</time>
      </trkpt>
      <trkpt lat="44.33278" lon="0.79279">
        <ele>168.85</ele>
        <time>2023-05-28T07:09:39Z</time>
      </trkpt>
      <trkpt lat="44.33276" lon="0.79305">
        <ele>171.25</ele>
        <time>2023-05-28T07:10:01Z</time>
      </trkpt>
      <trkpt lat="44.33263" lon="0.79301">
        <ele>170.77</ele>
        <time>2023-05-28T07:10:22Z</time>
      </trkpt>
      <trkpt lat="44.3325" lon="0.79297">
        <ele>171.73</ele>
        <time>2023-05-28T07:10:35Z</time>
      </trkpt>
      <trkpt lat="44.33241" lon="0.793">
        <ele>171.73</ele>
        <time>2023-05-28T07:10:45Z</time>
      </trkpt>
      <trkpt lat="44.33229" lon="0.79299">
        <ele>172.69</ele>
        <time>2023-05-28T07:10:56Z</time>
      </trkpt>
      <trkpt lat="44.33216" lon="0.793">
        <ele>173.17</ele>
        <time>2023-05-28T07:11:07Z</time>
      </trkpt>
      <trkpt lat="44.33169" lon="0.7932">
        <ele>176.54</ele>
        <time>2023-05-28T07:11:51Z</time>
      </trkpt>
      <trkpt lat="44.33153" lon="0.79326">
        <ele>177.5</ele>
        <time>2023-05-28T07:12:04Z</time>
      </trkpt>
      <trkpt lat="44.33126" lon="0.79336">
        <ele>175.1</ele>
        <time>2023-05-28T07:12:30Z</time>
      </trkpt>
      <trkpt lat="44.33114" lon="0.7934">
        <ele>174.14</ele>
        <time>2023-05-28T07:12:40Z</time>
      </trkpt>
      <trkpt lat="44.33103" lon="0.79344">
        <ele>174.62</ele>
        <time>2023-05-28T07:12:49Z</time>
      </trkpt>
      <trkpt lat="44.33092" lon="0.79347">
        <ele>176.06</ele>
        <time>2023-05-28T07:12:58Z</time>
      </trkpt>
      <trkpt lat="44.33081" lon="0.79348">
        <ele>177.5</ele>
        <time>2023-05-28T07:13:08Z</time>
      </trkpt>
      <trkpt lat="44.3307" lon="0.7935">
        <ele>177.5</ele>
        <time>2023-05-28T07:13:17Z</time>
      </trkpt>
      <trkpt lat="44.33059" lon="0.79353">
        <ele>178.46</ele>
        <time>2023-05-28T07:13:25Z</time>
      </trkpt>
      <trkpt lat="44.33049" lon="0.79353">
        <ele>179.42</ele>
        <time>2023-05-28T07:13:34Z</time>
      </trkpt>
      <trkpt lat="44.33038" lon="0.79354">
        <ele>180.87</ele>
        <time>2023-05-28T07:13:43Z</time>
      </trkpt>
      <trkpt lat="44.33014" lon="0.79355">
        <ele>187.11</ele>
        <time>2023-05-28T07:14:00Z</time>
      </trkpt>
      <trkpt lat="44.32999" lon="0.79357">
        <ele>190.48</ele>
        <time>2023-05-28T07:14:12Z</time>
      </trkpt>
      <trkpt lat="44.32986" lon="0.79361">
        <ele>192.4</ele>
        <time>2023-05-28T07:14:22Z</time>
      </trkpt>
      <trkpt lat="44.32967" lon="0.79364">
        <ele>195.28</ele>
        <time>2023-05-28T07:14:38Z</time>
      </trkpt>
      <trkpt lat="44.32956" lon="0.79367">
        <ele>196.25</ele>
        <time>2023-05-28T07:14:47Z</time>
      </trkpt>
      <trkpt lat="44.32946" lon="0.79371">
        <ele>195.77</ele>
        <time>2023-05-28T07:14:56Z</time>
      </trkpt>
      <trkpt lat="44.32925" lon="0.79373">
        <ele>193.84</ele>
        <time>2023-05-28T07:15:16Z</time>
      </trkpt>
      <trkpt lat="44.32905" lon="0.79379">
        <ele>194.8</ele>
        <time>2023-05-28T07:15:32Z</time>
      </trkpt>
      <trkpt lat="44.32889" lon="0.79388">
        <ele>196.73</ele>
        <time>2023-05-28T07:15:45Z</time>
      </trkpt>
      <trkpt lat="44.32876" lon="0.79398">
        <ele>198.17</ele>
        <time>2023-05-28T07:15:54Z</time>
      </trkpt>
      <trkpt lat="44.32838" lon="0.79417">
        <ele>198.65</ele>
        <time>2023-05-28T07:19:02Z</time>
      </trkpt>
      <trkpt lat="44.32807" lon="0.79419">
        <ele>192.88</ele>
        <time>2023-05-28T07:19:27Z</time>
      </trkpt>
      <trkpt lat="44.3279" lon="0.79425">
        <ele>189.04</ele>
        <time>2023-05-28T07:19:41Z</time>
      </trkpt>
      <trkpt lat="44.32749" lon="0.79362">
        <ele>185.67</ele>
        <time>2023-05-28T07:20:25Z</time>
      </trkpt>
      <trkpt lat="44.32721" lon="0.79162">
        <ele>191.92</ele>
        <time>2023-05-28T07:22:05Z</time>
      </trkpt>
      <trkpt lat="44.32728" lon="0.79145">
        <ele>193.84</ele>
        <time>2023-05-28T07:22:13Z</time>
      </trkpt>
      <trkpt lat="44.32734" lon="0.79132">
        <ele>195.77</ele>
        <time>2023-05-28T07:22:21Z</time>
      </trkpt>
      <trkpt lat="44.32737" lon="0.79118">
        <ele>195.77</ele>
        <time>2023-05-28T07:22:28Z</time>
      </trkpt>
      <trkpt lat="44.32741" lon="0.79103">
        <ele>196.25</ele>
        <time>2023-05-28T07:22:35Z</time>
      </trkpt>
      <trkpt lat="44.32744" lon="0.79088">
        <ele>196.25</ele>
        <time>2023-05-28T07:22:42Z</time>
      </trkpt>
      <trkpt lat="44.32741" lon="0.79074">
        <ele>196.25</ele>
        <time>2023-05-28T07:22:49Z</time>
      </trkpt>
      <trkpt lat="44.32735" lon="0.79063">
        <ele>196.73</ele>
        <time>2023-05-28T07:22:56Z</time>
      </trkpt>
      <trkpt lat="44.32726" lon="0.79058">
        <ele>196.73</ele>
        <time>2023-05-28T07:23:02Z</time>
      </trkpt>
      <trkpt lat="44.32716" lon="0.79055">
        <ele>197.21</ele>
        <time>2023-05-28T07:23:09Z</time>
      </trkpt>
      <trkpt lat="44.32705" lon="0.79053">
        <ele>197.69</ele>
        <time>2023-05-28T07:23:16Z</time>
      </trkpt>
      <trkpt lat="44.32695" lon="0.7905">
        <ele>198.65</ele>
        <time>2023-05-28T07:23:22Z</time>
      </trkpt>
      <trkpt lat="44.32686" lon="0.79045">
        <ele>200.09</ele>
        <time>2023-05-28T07:23:29Z</time>
      </trkpt>
      <trkpt lat="44.32675" lon="0.79041">
        <ele>200.57</ele>
        <time>2023-05-28T07:23:36Z</time>
      </trkpt>
      <trkpt lat="44.32664" lon="0.79036">
        <ele>201.05</ele>
        <time>2023-05-28T07:23:44Z</time>
      </trkpt>
      <trkpt lat="44.32654" lon="0.79034">
        <ele>202.01</ele>
        <time>2023-05-28T07:23:51Z</time>
      </trkpt>
      <trkpt lat="44.32644" lon="0.7903">
        <ele>202.98</ele>
        <time>2023-05-28T07:23:58Z</time>
      </trkpt>
      <trkpt lat="44.32634" lon="0.79028">
        <ele>203.94</ele>
        <time>2023-05-28T07:24:05Z</time>
      </trkpt>
      <trkpt lat="44.32624" lon="0.79027">
        <ele>204.9</ele>
        <time>2023-05-28T07:24:12Z</time>
      </trkpt>
      <trkpt lat="44.32615" lon="0.79027">
        <ele>205.86</ele>
        <time>2023-05-28T07:24:19Z</time>
      </trkpt>
      <trkpt lat="44.3261" lon="0.79018">
        <ele>208.26</ele>
        <time>2023-05-28T07:24:27Z</time>
      </trkpt>
      <trkpt lat="44.32609" lon="0.79004">
        <ele>209.22</ele>
        <time>2023-05-28T07:24:34Z</time>
      </trkpt>
      <trkpt lat="44.32609" lon="0.7899">
        <ele>210.19</ele>
        <time>2023-05-28T07:24:41Z</time>
      </trkpt>
      <trkpt lat="44.32608" lon="0.78975">
        <ele>210.19</ele>
        <time>2023-05-28T07:24:48Z</time>
      </trkpt>
      <trkpt lat="44.32608" lon="0.78962">
        <ele>211.15</ele>
        <time>2023-05-28T07:24:55Z</time>
      </trkpt>
      <trkpt lat="44.32608" lon="0.78947">
        <ele>212.59</ele>
        <time>2023-05-28T07:25:03Z</time>
      </trkpt>
      <trkpt lat="44.32608" lon="0.78932">
        <ele>213.07</ele>
        <time>2023-05-28T07:25:10Z</time>
      </trkpt>
      <trkpt lat="44.32608" lon="0.78918">
        <ele>213.55</ele>
        <time>2023-05-28T07:25:16Z</time>
      </trkpt>
      <trkpt lat="44.32609" lon="0.78905">
        <ele>214.03</ele>
        <time>2023-05-28T07:25:22Z</time>
      </trkpt>
      <trkpt lat="44.32608" lon="0.78892">
        <ele>214.51</ele>
        <time>2023-05-28T07:25:28Z</time>
      </trkpt>
      <trkpt lat="44.32607" lon="0.78878">
        <ele>214.99</ele>
        <time>2023-05-28T07:25:35Z</time>
      </trkpt>
      <trkpt lat="44.32607" lon="0.78864">
        <ele>214.99</ele>
        <time>2023-05-28T07:25:42Z</time>
      </trkpt>
      <trkpt lat="44.32604" lon="0.78849">
        <ele>214.99</ele>
        <time>2023-05-28T07:25:49Z</time>
      </trkpt>
      <trkpt lat="44.32603" lon="0.78836">
        <ele>214.99</ele>
        <time>2023-05-28T07:25:55Z</time>
      </trkpt>
      <trkpt lat="44.32603" lon="0.78823">
        <ele>214.99</ele>
        <time>2023-05-28T07:26:01Z</time>
      </trkpt>
      <trkpt lat="44.32602" lon="0.78809">
        <ele>214.51</ele>
        <time>2023-05-28T07:26:07Z</time>
      </trkpt>
      <trkpt lat="44.32602" lon="0.78794">
        <ele>214.03</ele>
        <time>2023-05-28T07:26:14Z</time>
      </trkpt>
      <trkpt lat="44.32601" lon="0.7878">
        <ele>213.55</ele>
        <time>2023-05-28T07:26:21Z</time>
      </trkpt>
      <trkpt lat="44.32601" lon="0.78765">
        <ele>213.07</ele>
        <time>2023-05-28T07:26:28Z</time>
      </trkpt>
      <trkpt lat="44.32601" lon="0.78752">
        <ele>213.07</ele>
        <time>2023-05-28T07:26:34Z</time>
      </trkpt>
      <trkpt lat="44.32601" lon="0.78738">
        <ele>214.03</ele>
        <time>2023-05-28T07:26:40Z</time>
      </trkpt>
      <trkpt lat="44.326" lon="0.78723">
        <ele>214.51</ele>
        <time>2023-05-28T07:26:47Z</time>
      </trkpt>
      <trkpt lat="44.326" lon="0.78709">
        <ele>214.99</ele>
        <time>2023-05-28T07:26:54Z</time>
      </trkpt>
      <trkpt lat="44.32601" lon="0.78694">
        <ele>214.99</ele>
        <time>2023-05-28T07:27:01Z</time>
      </trkpt>
      <trkpt lat="44.326" lon="0.78679">
        <ele>214.99</ele>
        <time>2023-05-28T07:27:08Z</time>
      </trkpt>
      <trkpt lat="44.32599" lon="0.78665">
        <ele>214.99</ele>
        <time>2023-05-28T07:27:15Z</time>
      </trkpt>
      <trkpt lat="44.326" lon="0.7865">
        <ele>214.51</ele>
        <time>2023-05-28T07:27:22Z</time>
      </trkpt>
      <trkpt lat="44.32601" lon="0.78637">
        <ele>214.51</ele>
        <time>2023-05-28T07:27:29Z</time>
      </trkpt>
      <trkpt lat="44.32601" lon="0.78623">
        <ele>214.51</ele>
        <time>2023-05-28T07:27:35Z</time>
      </trkpt>
      <trkpt lat="44.32603" lon="0.7861">
        <ele>214.99</ele>
        <time>2023-05-28T07:27:42Z</time>
      </trkpt>
      <trkpt lat="44.32603" lon="0.78594">
        <ele>214.99</ele>
        <time>2023-05-28T07:27:49Z</time>
      </trkpt>
      <trkpt lat="44.32603" lon="0.78578">
        <ele>214.51</ele>
        <time>2023-05-28T07:27:56Z</time>
      </trkpt>
      <trkpt lat="44.32603" lon="0.78563">
        <ele>214.03</ele>
        <time>2023-05-28T07:28:03Z</time>
      </trkpt>
      <trkpt lat="44.32604" lon="0.78548">
        <ele>213.07</ele>
        <time>2023-05-28T07:28:10Z</time>
      </trkpt>
      <trkpt lat="44.32604" lon="0.78533">
        <ele>213.07</ele>
        <time>2023-05-28T07:28:16Z</time>
      </trkpt>
      <trkpt lat="44.32604" lon="0.78517">
        <ele>213.55</ele>
        <time>2023-05-28T07:28:24Z</time>
      </trkpt>
      <trkpt lat="44.32605" lon="0.78501">
        <ele>213.07</ele>
        <time>2023-05-28T07:28:31Z</time>
      </trkpt>
      <trkpt lat="44.32606" lon="0.78486">
        <ele>213.55</ele>
        <time>2023-05-28T07:28:38Z</time>
      </trkpt>
      <trkpt lat="44.32606" lon="0.78473">
        <ele>214.03</ele>
        <time>2023-05-28T07:28:44Z</time>
      </trkpt>
      <trkpt lat="44.32607" lon="0.78458">
        <ele>214.51</ele>
        <time>2023-05-28T07:28:51Z</time>
      </trkpt>
      <trkpt lat="44.32609" lon="0.78445">
        <ele>215.47</ele>
        <time>2023-05-28T07:28:57Z</time>
      </trkpt>
      <trkpt lat="44.3261" lon="0.7843">
        <ele>215.95</ele>
        <time>2023-05-28T07:29:04Z</time>
      </trkpt>
      <trkpt lat="44.3261" lon="0.78416">
        <ele>215.95</ele>
        <time>2023-05-28T07:29:11Z</time>
      </trkpt>
      <trkpt lat="44.3261" lon="0.78402">
        <ele>216.43</ele>
        <time>2023-05-28T07:29:18Z</time>
      </trkpt>
      <trkpt lat="44.32605" lon="0.7839">
        <ele>216.43</ele>
        <time>2023-05-28T07:29:25Z</time>
      </trkpt>
      <trkpt lat="44.32596" lon="0.7839">
        <ele>216.43</ele>
        <time>2023-05-28T07:29:31Z</time>
      </trkpt>
      <trkpt lat="44.32585" lon="0.7839">
        <ele>216.43</ele>
        <time>2023-05-28T07:29:37Z</time>
      </trkpt>
      <trkpt lat="44.32576" lon="0.78391">
        <ele>216.91</ele>
        <time>2023-05-28T07:29:43Z</time>
      </trkpt>
      <trkpt lat="44.32567" lon="0.78392">
        <ele>217.4</ele>
        <time>2023-05-28T07:29:49Z</time>
      </trkpt>
      <trkpt lat="44.32556" lon="0.78393">
        <ele>217.88</ele>
        <time>2023-05-28T07:29:56Z</time>
      </trkpt>
      <trkpt lat="44.32547" lon="0.78394">
        <ele>217.88</ele>
        <time>2023-05-28T07:30:02Z</time>
      </trkpt>
      <trkpt lat="44.32538" lon="0.78394">
        <ele>218.36</ele>
        <time>2023-05-28T07:30:08Z</time>
      </trkpt>
      <trkpt lat="44.32527" lon="0.78395">
        <ele>218.84</ele>
        <time>2023-05-28T07:30:15Z</time>
      </trkpt>
      <trkpt lat="44.32517" lon="0.78394">
        <ele>218.84</ele>
        <time>2023-05-28T07:30:21Z</time>
      </trkpt>
      <trkpt lat="44.32507" lon="0.78393">
        <ele>219.32</ele>
        <time>2023-05-28T07:30:28Z</time>
      </trkpt>
      <trkpt lat="44.32497" lon="0.78393">
        <ele>219.32</ele>
        <time>2023-05-28T07:30:35Z</time>
      </trkpt>
      <trkpt lat="44.32487" lon="0.78391">
        <ele>220.28</ele>
        <time>2023-05-28T07:30:42Z</time>
      </trkpt>
      <trkpt lat="44.32477" lon="0.78387">
        <ele>220.28</ele>
        <time>2023-05-28T07:30:49Z</time>
      </trkpt>
      <trkpt lat="44.32467" lon="0.78382">
        <ele>220.28</ele>
        <time>2023-05-28T07:30:56Z</time>
      </trkpt>
      <trkpt lat="44.32459" lon="0.78389">
        <ele>220.28</ele>
        <time>2023-05-28T07:31:03Z</time>
      </trkpt>
      <trkpt lat="44.32453" lon="0.78402">
        <ele>220.28</ele>
        <time>2023-05-28T07:31:10Z</time>
      </trkpt>
      <trkpt lat="44.32448" lon="0.78412">
        <ele>220.28</ele>
        <time>2023-05-28T07:31:17Z</time>
      </trkpt>
      <trkpt lat="44.32443" lon="0.78424">
        <ele>220.28</ele>
        <time>2023-05-28T07:31:24Z</time>
      </trkpt>
      <trkpt lat="44.32437" lon="0.78436">
        <ele>220.76</ele>
        <time>2023-05-28T07:31:31Z</time>
      </trkpt>
      <trkpt lat="44.32431" lon="0.78447">
        <ele>220.28</ele>
        <time>2023-05-28T07:31:37Z</time>
      </trkpt>
      <trkpt lat="44.32425" lon="0.78458">
        <ele>219.32</ele>
        <time>2023-05-28T07:31:43Z</time>
      </trkpt>
      <trkpt lat="44.3242" lon="0.78471">
        <ele>218.36</ele>
        <time>2023-05-28T07:31:50Z</time>
      </trkpt>
      <trkpt lat="44.32416" lon="0.78482">
        <ele>218.36</ele>
        <time>2023-05-28T07:31:56Z</time>
      </trkpt>
      <trkpt lat="44.32411" lon="0.78496">
        <ele>217.88</ele>
        <time>2023-05-28T07:32:03Z</time>
      </trkpt>
      <trkpt lat="44.32406" lon="0.78509">
        <ele>217.4</ele>
        <time>2023-05-28T07:32:10Z</time>
      </trkpt>
      <trkpt lat="44.32401" lon="0.78521">
        <ele>216.91</ele>
        <time>2023-05-28T07:32:17Z</time>
      </trkpt>
      <trkpt lat="44.32392" lon="0.78514">
        <ele>215.47</ele>
        <time>2023-05-28T07:32:25Z</time>
      </trkpt>
      <trkpt lat="44.32383" lon="0.78505">
        <ele>214.99</ele>
        <time>2023-05-28T07:32:33Z</time>
      </trkpt>
      <trkpt lat="44.32374" lon="0.78493">
        <ele>215.47</ele>
        <time>2023-05-28T07:33:05Z</time>
      </trkpt>
      <trkpt lat="44.32369" lon="0.78492">
        <ele>214.99</ele>
        <time>2023-05-28T07:33:28Z</time>
      </trkpt>
      <trkpt lat="44.32357" lon="0.78482">
        <ele>213.55</ele>
        <time>2023-05-28T07:33:39Z</time>
      </trkpt>
      <trkpt lat="44.32348" lon="0.78475">
        <ele>211.15</ele>
        <time>2023-05-28T07:33:47Z</time>
      </trkpt>
      <trkpt lat="44.32339" lon="0.78469">
        <ele>209.22</ele>
        <time>2023-05-28T07:33:55Z</time>
      </trkpt>
      <trkpt lat="44.3233" lon="0.7846">
        <ele>206.82</ele>
        <time>2023-05-28T07:34:04Z</time>
      </trkpt>
      <trkpt lat="44.32322" lon="0.78449">
        <ele>206.34</ele>
        <time>2023-05-28T07:34:13Z</time>
      </trkpt>
      <trkpt lat="44.32313" lon="0.78436">
        <ele>207.3</ele>
        <time>2023-05-28T07:34:22Z</time>
      </trkpt>
      <trkpt lat="44.32306" lon="0.78424">
        <ele>208.74</ele>
        <time>2023-05-28T07:34:30Z</time>
      </trkpt>
      <trkpt lat="44.32298" lon="0.78409">
        <ele>208.74</ele>
        <time>2023-05-28T07:34:38Z</time>
      </trkpt>
      <trkpt lat="44.323" lon="0.78397">
        <ele>207.78</ele>
        <time>2023-05-28T07:34:47Z</time>
      </trkpt>
      <trkpt lat="44.32306" lon="0.78383">
        <ele>206.82</ele>
        <time>2023-05-28T07:34:57Z</time>
      </trkpt>
      <trkpt lat="44.32309" lon="0.7837">
        <ele>205.86</ele>
        <time>2023-05-28T07:35:05Z</time>
      </trkpt>
      <trkpt lat="44.32313" lon="0.78357">
        <ele>205.86</ele>
        <time>2023-05-28T07:35:14Z</time>
      </trkpt>
      <trkpt lat="44.32317" lon="0.78341">
        <ele>207.78</ele>
        <time>2023-05-28T07:35:22Z</time>
      </trkpt>
      <trkpt lat="44.32321" lon="0.78327">
        <ele>208.26</ele>
        <time>2023-05-28T07:35:31Z</time>
      </trkpt>
      <trkpt lat="44.32325" lon="0.78313">
        <ele>208.74</ele>
        <time>2023-05-28T07:35:40Z</time>
      </trkpt>
      <trkpt lat="44.32325" lon="0.78299">
        <ele>208.74</ele>
        <time>2023-05-28T07:35:48Z</time>
      </trkpt>
      <trkpt lat="44.32325" lon="0.78284">
        <ele>208.74</ele>
        <time>2023-05-28T07:35:56Z</time>
      </trkpt>
      <trkpt lat="44.32323" lon="0.78268">
        <ele>208.26</ele>
        <time>2023-05-28T07:36:08Z</time>
      </trkpt>
      <trkpt lat="44.32317" lon="0.78255">
        <ele>208.74</ele>
        <time>2023-05-28T07:36:17Z</time>
      </trkpt>
      <trkpt lat="44.32308" lon="0.78249">
        <ele>207.78</ele>
        <time>2023-05-28T07:36:25Z</time>
      </trkpt>
      <trkpt lat="44.32298" lon="0.78245">
        <ele>206.82</ele>
        <time>2023-05-28T07:36:34Z</time>
      </trkpt>
      <trkpt lat="44.32287" lon="0.78239">
        <ele>210.19</ele>
        <time>2023-05-28T07:37:31Z</time>
      </trkpt>
      <trkpt lat="44.32278" lon="0.78233">
        <ele>209.22</ele>
        <time>2023-05-28T07:37:41Z</time>
      </trkpt>
      <trkpt lat="44.32273" lon="0.78222">
        <ele>208.74</ele>
        <time>2023-05-28T07:37:50Z</time>
      </trkpt>
      <trkpt lat="44.32275" lon="0.78209">
        <ele>208.26</ele>
        <time>2023-05-28T07:37:59Z</time>
      </trkpt>
      <trkpt lat="44.32276" lon="0.78212">
        <ele>214.03</ele>
        <time>2023-05-28T07:47:36Z</time>
      </trkpt>
      <trkpt lat="44.32267" lon="0.78219">
        <ele>209.7</ele>
        <time>2023-05-28T07:47:52Z</time>
      </trkpt>
      <trkpt lat="44.32259" lon="0.78228">
        <ele>208.74</ele>
        <time>2023-05-28T07:48:01Z</time>
      </trkpt>
      <trkpt lat="44.3225" lon="0.78235">
        <ele>207.78</ele>
        <time>2023-05-28T07:48:10Z</time>
      </trkpt>
      <trkpt lat="44.32242" lon="0.78241">
        <ele>207.78</ele>
        <time>2023-05-28T07:48:19Z</time>
      </trkpt>
      <trkpt lat="44.32229" lon="0.78244">
        <ele>209.7</ele>
        <time>2023-05-28T07:50:51Z</time>
      </trkpt>
      <trkpt lat="44.32222" lon="0.78232">
        <ele>209.7</ele>
        <time>2023-05-28T07:51:03Z</time>
      </trkpt>
      <trkpt lat="44.32218" lon="0.78221">
        <ele>209.22</ele>
        <time>2023-05-28T07:51:12Z</time>
      </trkpt>
      <trkpt lat="44.32214" lon="0.7821">
        <ele>209.7</ele>
        <time>2023-05-28T07:51:20Z</time>
      </trkpt>
      <trkpt lat="44.32205" lon="0.78203">
        <ele>208.74</ele>
        <time>2023-05-28T07:51:29Z</time>
      </trkpt>
      <trkpt lat="44.32193" lon="0.78199">
        <ele>207.3</ele>
        <time>2023-05-28T07:51:39Z</time>
      </trkpt>
      <trkpt lat="44.32183" lon="0.78193">
        <ele>206.34</ele>
        <time>2023-05-28T07:51:48Z</time>
      </trkpt>
      <trkpt lat="44.32172" lon="0.78188">
        <ele>204.9</ele>
        <time>2023-05-28T07:52:01Z</time>
      </trkpt>
      <trkpt lat="44.3216" lon="0.78208">
        <ele>203.94</ele>
        <time>2023-05-28T07:52:24Z</time>
      </trkpt>
      <trkpt lat="44.32162" lon="0.78231">
        <ele>202.98</ele>
        <time>2023-05-28T07:52:38Z</time>
      </trkpt>
      <trkpt lat="44.32161" lon="0.78246">
        <ele>204.9</ele>
        <time>2023-05-28T07:52:46Z</time>
      </trkpt>
      <trkpt lat="44.32158" lon="0.78262">
        <ele>204.9</ele>
        <time>2023-05-28T07:52:57Z</time>
      </trkpt>
      <trkpt lat="44.32128" lon="0.78142">
        <ele>186.15</ele>
        <time>2023-05-28T07:54:24Z</time>
      </trkpt>
      <trkpt lat="44.32142" lon="0.78108">
        <ele>181.83</ele>
        <time>2023-05-28T07:54:46Z</time>
      </trkpt>
      <trkpt lat="44.32164" lon="0.78068">
        <ele>176.06</ele>
        <time>2023-05-28T07:55:19Z</time>
      </trkpt>
      <trkpt lat="44.32182" lon="0.78028">
        <ele>175.1</ele>
        <time>2023-05-28T07:55:48Z</time>
      </trkpt>
      <trkpt lat="44.32182" lon="0.77987">
        <ele>174.62</ele>
        <time>2023-05-28T07:56:11Z</time>
      </trkpt>
      <trkpt lat="44.32182" lon="0.77963">
        <ele>173.66</ele>
        <time>2023-05-28T07:56:23Z</time>
      </trkpt>
      <trkpt lat="44.3214" lon="0.77807">
        <ele>175.58</ele>
        <time>2023-05-28T07:59:17Z</time>
      </trkpt>
      <trkpt lat="44.32136" lon="0.77793">
        <ele>175.58</ele>
        <time>2023-05-28T07:59:25Z</time>
      </trkpt>
      <trkpt lat="44.32059" lon="0.77596">
        <ele>171.25</ele>
        <time>2023-05-28T08:01:12Z</time>
      </trkpt>
      <trkpt lat="44.32055" lon="0.7755">
        <ele>166.45</ele>
        <time>2023-05-28T08:01:35Z</time>
      </trkpt>
      <trkpt lat="44.32054" lon="0.775">
        <ele>159.24</ele>
        <time>2023-05-28T08:01:58Z</time>
      </trkpt>
      <trkpt lat="44.32068" lon="0.77429">
        <ele>150.1</ele>
        <time>2023-05-28T08:02:35Z</time>
      </trkpt>
      <trkpt lat="44.32071" lon="0.77343">
        <ele>147.22</ele>
        <time>2023-05-28T08:03:04Z</time>
      </trkpt>
      <trkpt lat="44.32081" lon="0.77319">
        <ele>143.85</ele>
        <time>2023-05-28T08:03:17Z</time>
      </trkpt>
      <trkpt lat="44.32083" lon="0.77277">
        <ele>143.85</ele>
        <time>2023-05-28T08:03:36Z</time>
      </trkpt>
      <trkpt lat="44.32054" lon="0.77192">
        <ele>137.61</ele>
        <time>2023-05-28T08:04:22Z</time>
      </trkpt>
      <trkpt lat="44.32029" lon="0.7716">
        <ele>131.84</ele>
        <time>2023-05-28T08:04:49Z</time>
      </trkpt>
      <trkpt lat="44.3203" lon="0.77115">
        <ele>127.99</ele>
        <time>2023-05-28T08:05:11Z</time>
      </trkpt>
      <trkpt lat="44.32039" lon="0.77067">
        <ele>128.47</ele>
        <time>2023-05-28T08:05:33Z</time>
      </trkpt>
      <trkpt lat="44.32041" lon="0.7704">
        <ele>127.99</ele>
        <time>2023-05-28T08:05:45Z</time>
      </trkpt>
      <trkpt lat="44.32042" lon="0.77001">
        <ele>129.92</ele>
        <time>2023-05-28T08:06:02Z</time>
      </trkpt>
      <trkpt lat="44.32043" lon="0.76946">
        <ele>131.36</ele>
        <time>2023-05-28T08:06:27Z</time>
      </trkpt>
      <trkpt lat="44.32043" lon="0.76925">
        <ele>130.88</ele>
        <time>2023-05-28T08:06:36Z</time>
      </trkpt>
      <trkpt lat="44.32036" lon="0.76913">
        <ele>128.95</ele>
        <time>2023-05-28T08:06:42Z</time>
      </trkpt>
      <trkpt lat="44.32027" lon="0.76908">
        <ele>125.11</ele>
        <time>2023-05-28T08:06:49Z</time>
      </trkpt>
      <trkpt lat="44.32019" lon="0.76901">
        <ele>122.71</ele>
        <time>2023-05-28T08:06:57Z</time>
      </trkpt>
      <trkpt lat="44.32011" lon="0.76894">
        <ele>120.3</ele>
        <time>2023-05-28T08:07:04Z</time>
      </trkpt>
      <trkpt lat="44.32002" lon="0.76888">
        <ele>117.9</ele>
        <time>2023-05-28T08:07:11Z</time>
      </trkpt>
      <trkpt lat="44.31994" lon="0.76883">
        <ele>114.53</ele>
        <time>2023-05-28T08:07:17Z</time>
      </trkpt>
      <trkpt lat="44.31986" lon="0.76876">
        <ele>112.13</ele>
        <time>2023-05-28T08:07:24Z</time>
      </trkpt>
      <trkpt lat="44.31977" lon="0.76868">
        <ele>111.65</ele>
        <time>2023-05-28T08:07:31Z</time>
      </trkpt>
      <trkpt lat="44.31967" lon="0.76861">
        <ele>111.65</ele>
        <time>2023-05-28T08:07:38Z</time>
      </trkpt>
      <trkpt lat="44.31958" lon="0.76853">
        <ele>110.21</ele>
        <time>2023-05-28T08:07:46Z</time>
      </trkpt>
      <trkpt lat="44.31944" lon="0.76843">
        <ele>108.77</ele>
        <time>2023-05-28T08:07:57Z</time>
      </trkpt>
      <trkpt lat="44.3193" lon="0.76838">
        <ele>107.81</ele>
        <time>2023-05-28T08:08:07Z</time>
      </trkpt>
      <trkpt lat="44.31919" lon="0.76835">
        <ele>108.77</ele>
        <time>2023-05-28T08:08:15Z</time>
      </trkpt>
      <trkpt lat="44.31907" lon="0.7683">
        <ele>109.73</ele>
        <time>2023-05-28T08:08:21Z</time>
      </trkpt>
      <trkpt lat="44.31897" lon="0.76825">
        <ele>110.21</ele>
        <time>2023-05-28T08:08:26Z</time>
      </trkpt>
      <trkpt lat="44.31887" lon="0.76821">
        <ele>110.69</ele>
        <time>2023-05-28T08:08:33Z</time>
      </trkpt>
      <trkpt lat="44.31881" lon="0.76806">
        <ele>111.65</ele>
        <time>2023-05-28T08:08:41Z</time>
      </trkpt>
      <trkpt lat="44.31883" lon="0.76791">
        <ele>113.09</ele>
        <time>2023-05-28T08:08:48Z</time>
      </trkpt>
      <trkpt lat="44.31885" lon="0.76776">
        <ele>114.05</ele>
        <time>2023-05-28T08:08:56Z</time>
      </trkpt>
      <trkpt lat="44.31888" lon="0.76762">
        <ele>114.05</ele>
        <time>2023-05-28T08:09:02Z</time>
      </trkpt>
      <trkpt lat="44.31889" lon="0.76748">
        <ele>114.05</ele>
        <time>2023-05-28T08:09:06Z</time>
      </trkpt>
      <trkpt lat="44.3189" lon="0.76732">
        <ele>114.05</ele>
        <time>2023-05-28T08:09:10Z</time>
      </trkpt>
      <trkpt lat="44.3189" lon="0.76718">
        <ele>115.01</ele>
        <time>2023-05-28T08:09:15Z</time>
      </trkpt>
      <trkpt lat="44.31892" lon="0.76702">
        <ele>115.5</ele>
        <time>2023-05-28T08:09:22Z</time>
      </trkpt>
      <trkpt lat="44.31895" lon="0.76689">
        <ele>115.01</ele>
        <time>2023-05-28T08:09:29Z</time>
      </trkpt>
      <trkpt lat="44.31903" lon="0.76683">
        <ele>114.05</ele>
        <time>2023-05-28T08:09:38Z</time>
      </trkpt>
      <trkpt lat="44.31914" lon="0.76687">
        <ele>113.09</ele>
        <time>2023-05-28T08:09:45Z</time>
      </trkpt>
      <trkpt lat="44.31923" lon="0.7669">
        <ele>112.13</ele>
        <time>2023-05-28T08:09:51Z</time>
      </trkpt>
      <trkpt lat="44.31935" lon="0.76694">
        <ele>111.17</ele>
        <time>2023-05-28T08:09:58Z</time>
      </trkpt>
      <trkpt lat="44.31945" lon="0.76696">
        <ele>110.69</ele>
        <time>2023-05-28T08:10:04Z</time>
      </trkpt>
      <trkpt lat="44.31956" lon="0.76694">
        <ele>109.73</ele>
        <time>2023-05-28T08:10:11Z</time>
      </trkpt>
      <trkpt lat="44.31961" lon="0.76682">
        <ele>109.73</ele>
        <time>2023-05-28T08:10:18Z</time>
      </trkpt>
      <trkpt lat="44.31967" lon="0.76671">
        <ele>110.21</ele>
        <time>2023-05-28T08:10:24Z</time>
      </trkpt>
      <trkpt lat="44.31976" lon="0.76659">
        <ele>110.69</ele>
        <time>2023-05-28T08:10:31Z</time>
      </trkpt>
      <trkpt lat="44.31983" lon="0.76651">
        <ele>110.21</ele>
        <time>2023-05-28T08:10:37Z</time>
      </trkpt>
      <trkpt lat="44.31992" lon="0.76643">
        <ele>110.69</ele>
        <time>2023-05-28T08:10:44Z</time>
      </trkpt>
      <trkpt lat="44.32001" lon="0.76634">
        <ele>110.21</ele>
        <time>2023-05-28T08:10:51Z</time>
      </trkpt>
      <trkpt lat="44.32009" lon="0.76625">
        <ele>109.73</ele>
        <time>2023-05-28T08:10:58Z</time>
      </trkpt>
      <trkpt lat="44.32017" lon="0.76617">
        <ele>109.25</ele>
        <time>2023-05-28T08:11:05Z</time>
      </trkpt>
      <trkpt lat="44.32026" lon="0.76609">
        <ele>109.25</ele>
        <time>2023-05-28T08:11:12Z</time>
      </trkpt>
      <trkpt lat="44.32033" lon="0.76601">
        <ele>109.25</ele>
        <time>2023-05-28T08:11:18Z</time>
      </trkpt>
      <trkpt lat="44.32042" lon="0.76592">
        <ele>109.25</ele>
        <time>2023-05-28T08:11:25Z</time>
      </trkpt>
      <trkpt lat="44.32047" lon="0.76582">
        <ele>108.77</ele>
        <time>2023-05-28T08:11:31Z</time>
      </trkpt>
      <trkpt lat="44.32053" lon="0.76569">
        <ele>109.25</ele>
        <time>2023-05-28T08:11:38Z</time>
      </trkpt>
      <trkpt lat="44.32058" lon="0.76556">
        <ele>109.25</ele>
        <time>2023-05-28T08:11:45Z</time>
      </trkpt>
      <trkpt lat="44.32063" lon="0.76542">
        <ele>109.25</ele>
        <time>2023-05-28T08:11:52Z</time>
      </trkpt>
      <trkpt lat="44.32068" lon="0.76529">
        <ele>108.29</ele>
        <time>2023-05-28T08:11:59Z</time>
      </trkpt>
      <trkpt lat="44.32071" lon="0.76517">
        <ele>108.29</ele>
        <time>2023-05-28T08:12:05Z</time>
      </trkpt>
      <trkpt lat="44.32073" lon="0.76504">
        <ele>108.29</ele>
        <time>2023-05-28T08:12:11Z</time>
      </trkpt>
      <trkpt lat="44.32073" lon="0.76489">
        <ele>106.36</ele>
        <time>2023-05-28T08:12:18Z</time>
      </trkpt>
      <trkpt lat="44.32074" lon="0.76475">
        <ele>105.88</ele>
        <time>2023-05-28T08:12:24Z</time>
      </trkpt>
      <trkpt lat="44.32074" lon="0.76462">
        <ele>105.4</ele>
        <time>2023-05-28T08:12:30Z</time>
      </trkpt>
      <trkpt lat="44.32074" lon="0.76446">
        <ele>104.44</ele>
        <time>2023-05-28T08:12:37Z</time>
      </trkpt>
      <trkpt lat="44.32074" lon="0.76431">
        <ele>103.96</ele>
        <time>2023-05-28T08:12:44Z</time>
      </trkpt>
      <trkpt lat="44.32073" lon="0.76416">
        <ele>103</ele>
        <time>2023-05-28T08:12:50Z</time>
      </trkpt>
      <trkpt lat="44.32073" lon="0.76402">
        <ele>103</ele>
        <time>2023-05-28T08:13:00Z</time>
      </trkpt>
      <trkpt lat="44.32071" lon="0.76386">
        <ele>102.52</ele>
        <time>2023-05-28T08:13:07Z</time>
      </trkpt>
      <trkpt lat="44.32071" lon="0.76372">
        <ele>102.04</ele>
        <time>2023-05-28T08:13:14Z</time>
      </trkpt>
      <trkpt lat="44.32071" lon="0.76359">
        <ele>101.56</ele>
        <time>2023-05-28T08:13:21Z</time>
      </trkpt>
      <trkpt lat="44.3207" lon="0.76344">
        <ele>102.04</ele>
        <time>2023-05-28T08:13:28Z</time>
      </trkpt>
      <trkpt lat="44.32069" lon="0.76327">
        <ele>102.52</ele>
        <time>2023-05-28T08:13:35Z</time>
      </trkpt>
      <trkpt lat="44.32069" lon="0.76314">
        <ele>102.52</ele>
        <time>2023-05-28T08:13:39Z</time>
      </trkpt>
      <trkpt lat="44.32068" lon="0.76299">
        <ele>103.96</ele>
        <time>2023-05-28T08:13:44Z</time>
      </trkpt>
      <trkpt lat="44.32069" lon="0.76285">
        <ele>105.4</ele>
        <time>2023-05-28T08:13:51Z</time>
      </trkpt>
      <trkpt lat="44.32069" lon="0.76271">
        <ele>106.84</ele>
        <time>2023-05-28T08:13:58Z</time>
      </trkpt>
      <trkpt lat="44.32072" lon="0.76256">
        <ele>108.77</ele>
        <time>2023-05-28T08:14:05Z</time>
      </trkpt>
      <trkpt lat="44.3208" lon="0.76246">
        <ele>111.65</ele>
        <time>2023-05-28T08:14:14Z</time>
      </trkpt>
      <trkpt lat="44.32092" lon="0.76233">
        <ele>114.05</ele>
        <time>2023-05-28T08:14:23Z</time>
      </trkpt>
      <trkpt lat="44.32098" lon="0.76218">
        <ele>115.5</ele>
        <time>2023-05-28T08:14:31Z</time>
      </trkpt>
      <trkpt lat="44.3211" lon="0.76189">
        <ele>119.34</ele>
        <time>2023-05-28T08:14:49Z</time>
      </trkpt>
      <trkpt lat="44.32131" lon="0.76196">
        <ele>122.22</ele>
        <time>2023-05-28T08:15:04Z</time>
      </trkpt>
      <trkpt lat="44.32151" lon="0.76188">
        <ele>130.88</ele>
        <time>2023-05-28T08:15:19Z</time>
      </trkpt>
      <trkpt lat="44.32179" lon="0.76165">
        <ele>137.13</ele>
        <time>2023-05-28T08:15:40Z</time>
      </trkpt>
      <trkpt lat="44.32153" lon="0.7604">
        <ele>140.97</ele>
        <time>2023-05-28T08:16:53Z</time>
      </trkpt>
      <trkpt lat="44.32183" lon="0.75946">
        <ele>149.62</ele>
        <time>2023-05-28T08:17:44Z</time>
      </trkpt>
      <trkpt lat="44.32199" lon="0.75925">
        <ele>149.62</ele>
        <time>2023-05-28T08:17:57Z</time>
      </trkpt>
      <trkpt lat="44.32226" lon="0.75906">
        <ele>146.26</ele>
        <time>2023-05-28T08:18:16Z</time>
      </trkpt>
      <trkpt lat="44.32271" lon="0.75873">
        <ele>138.09</ele>
        <time>2023-05-28T08:18:49Z</time>
      </trkpt>
      <trkpt lat="44.32299" lon="0.75841">
        <ele>135.68</ele>
        <time>2023-05-28T08:19:09Z</time>
      </trkpt>
      <trkpt lat="44.32312" lon="0.75804">
        <ele>135.2</ele>
        <time>2023-05-28T08:19:27Z</time>
      </trkpt>
      <trkpt lat="44.32338" lon="0.75745">
        <ele>126.55</ele>
        <time>2023-05-28T08:20:03Z</time>
      </trkpt>
      <trkpt lat="44.3234" lon="0.75722">
        <ele>122.22</ele>
        <time>2023-05-28T08:20:13Z</time>
      </trkpt>
      <trkpt lat="44.32338" lon="0.75672">
        <ele>113.09</ele>
        <time>2023-05-28T08:20:33Z</time>
      </trkpt>
      <trkpt lat="44.32342" lon="0.75645">
        <ele>110.69</ele>
        <time>2023-05-28T08:20:41Z</time>
      </trkpt>
      <trkpt lat="44.3234" lon="0.75612">
        <ele>106.84</ele>
        <time>2023-05-28T08:20:50Z</time>
      </trkpt>
      <trkpt lat="44.32334" lon="0.75579">
        <ele>103.96</ele>
        <time>2023-05-28T08:21:02Z</time>
      </trkpt>
      <trkpt lat="44.32322" lon="0.7553">
        <ele>104.44</ele>
        <time>2023-05-28T08:21:19Z</time>
      </trkpt>
      <trkpt lat="44.32315" lon="0.75516">
        <ele>105.88</ele>
        <time>2023-05-28T08:21:26Z</time>
      </trkpt>
      <trkpt lat="44.32305" lon="0.75451">
        <ele>105.88</ele>
        <time>2023-05-28T08:21:59Z</time>
      </trkpt>
      <trkpt lat="44.32307" lon="0.75432">
        <ele>105.88</ele>
        <time>2023-05-28T08:22:07Z</time>
      </trkpt>
      <trkpt lat="44.32302" lon="0.75416">
        <ele>105.88</ele>
        <time>2023-05-28T08:22:13Z</time>
      </trkpt>
      <trkpt lat="44.32296" lon="0.75401">
        <ele>106.36</ele>
        <time>2023-05-28T08:22:19Z</time>
      </trkpt>
      <trkpt lat="44.32292" lon="0.75388">
        <ele>106.36</ele>
        <time>2023-05-28T08:22:23Z</time>
      </trkpt>
      <trkpt lat="44.32288" lon="0.75367">
        <ele>106.84</ele>
        <time>2023-05-28T08:22:35Z</time>
      </trkpt>
      <trkpt lat="44.32284" lon="0.75351">
        <ele>106.36</ele>
        <time>2023-05-28T08:22:43Z</time>
      </trkpt>
      <trkpt lat="44.32279" lon="0.75331">
        <ele>106.36</ele>
        <time>2023-05-28T08:22:52Z</time>
      </trkpt>
      <trkpt lat="44.32276" lon="0.75313">
        <ele>105.4</ele>
        <time>2023-05-28T08:23:00Z</time>
      </trkpt>
      <trkpt lat="44.32275" lon="0.75292">
        <ele>104.92</ele>
        <time>2023-05-28T08:23:10Z</time>
      </trkpt>
      <trkpt lat="44.32273" lon="0.75276">
        <ele>106.36</ele>
        <time>2023-05-28T08:23:19Z</time>
      </trkpt>
      <trkpt lat="44.32269" lon="0.75259">
        <ele>106.36</ele>
        <time>2023-05-28T08:23:29Z</time>
      </trkpt>
      <trkpt lat="44.32262" lon="0.75231">
        <ele>107.81</ele>
        <time>2023-05-28T08:23:42Z</time>
      </trkpt>
      <trkpt lat="44.32255" lon="0.7521">
        <ele>107.32</ele>
        <time>2023-05-28T08:23:52Z</time>
      </trkpt>
      <trkpt lat="44.32271" lon="0.7518">
        <ele>110.69</ele>
        <time>2023-05-28T08:24:12Z</time>
      </trkpt>
      <trkpt lat="44.32282" lon="0.75169">
        <ele>114.05</ele>
        <time>2023-05-28T08:24:20Z</time>
      </trkpt>
      <trkpt lat="44.32293" lon="0.75159">
        <ele>116.46</ele>
        <time>2023-05-28T08:24:27Z</time>
      </trkpt>
      <trkpt lat="44.32303" lon="0.75149">
        <ele>118.38</ele>
        <time>2023-05-28T08:24:34Z</time>
      </trkpt>
      <trkpt lat="44.32311" lon="0.7514">
        <ele>119.82</ele>
        <time>2023-05-28T08:24:41Z</time>
      </trkpt>
      <trkpt lat="44.3232" lon="0.75131">
        <ele>122.22</ele>
        <time>2023-05-28T08:24:48Z</time>
      </trkpt>
      <trkpt lat="44.32328" lon="0.75121">
        <ele>124.63</ele>
        <time>2023-05-28T08:24:55Z</time>
      </trkpt>
      <trkpt lat="44.32337" lon="0.7511">
        <ele>127.03</ele>
        <time>2023-05-28T08:25:02Z</time>
      </trkpt>
      <trkpt lat="44.32345" lon="0.75102">
        <ele>128.47</ele>
        <time>2023-05-28T08:25:08Z</time>
      </trkpt>
      <trkpt lat="44.32352" lon="0.75094">
        <ele>130.4</ele>
        <time>2023-05-28T08:25:14Z</time>
      </trkpt>
      <trkpt lat="44.32358" lon="0.75085">
        <ele>131.84</ele>
        <time>2023-05-28T08:25:20Z</time>
      </trkpt>
      <trkpt lat="44.32366" lon="0.75076">
        <ele>134.72</ele>
        <time>2023-05-28T08:25:27Z</time>
      </trkpt>
      <trkpt lat="44.32375" lon="0.75067">
        <ele>137.61</ele>
        <time>2023-05-28T08:25:34Z</time>
      </trkpt>
      <trkpt lat="44.32382" lon="0.75057">
        <ele>139.05</ele>
        <time>2023-05-28T08:25:41Z</time>
      </trkpt>
      <trkpt lat="44.32389" lon="0.75048">
        <ele>140.97</ele>
        <time>2023-05-28T08:25:48Z</time>
      </trkpt>
      <trkpt lat="44.32398" lon="0.75039">
        <ele>142.41</ele>
        <time>2023-05-28T08:25:55Z</time>
      </trkpt>
      <trkpt lat="44.32407" lon="0.75032">
        <ele>143.85</ele>
        <time>2023-05-28T08:26:02Z</time>
      </trkpt>
      <trkpt lat="44.32416" lon="0.75023">
        <ele>145.3</ele>
        <time>2023-05-28T08:26:10Z</time>
      </trkpt>
      <trkpt lat="44.32424" lon="0.75016">
        <ele>146.26</ele>
        <time>2023-05-28T08:26:16Z</time>
      </trkpt>
      <trkpt lat="44.32431" lon="0.75007">
        <ele>147.7</ele>
        <time>2023-05-28T08:26:23Z</time>
      </trkpt>
      <trkpt lat="44.32438" lon="0.74999">
        <ele>148.66</ele>
        <time>2023-05-28T08:26:30Z</time>
      </trkpt>
      <trkpt lat="44.32442" lon="0.74986">
        <ele>149.62</ele>
        <time>2023-05-28T08:26:38Z</time>
      </trkpt>
      <trkpt lat="44.32438" lon="0.74973">
        <ele>149.62</ele>
        <time>2023-05-28T08:26:44Z</time>
      </trkpt>
      <trkpt lat="44.32434" lon="0.7496">
        <ele>149.62</ele>
        <time>2023-05-28T08:26:50Z</time>
      </trkpt>
      <trkpt lat="44.3243" lon="0.74947">
        <ele>149.62</ele>
        <time>2023-05-28T08:26:56Z</time>
      </trkpt>
      <trkpt lat="44.32427" lon="0.74934">
        <ele>149.62</ele>
        <time>2023-05-28T08:27:02Z</time>
      </trkpt>
      <trkpt lat="44.32423" lon="0.74919">
        <ele>150.1</ele>
        <time>2023-05-28T08:27:08Z</time>
      </trkpt>
      <trkpt lat="44.3242" lon="0.74907">
        <ele>151.06</ele>
        <time>2023-05-28T08:27:14Z</time>
      </trkpt>
      <trkpt lat="44.32417" lon="0.74893">
        <ele>151.06</ele>
        <time>2023-05-28T08:27:21Z</time>
      </trkpt>
      <trkpt lat="44.32413" lon="0.7488">
        <ele>151.06</ele>
        <time>2023-05-28T08:27:27Z</time>
      </trkpt>
      <trkpt lat="44.3241" lon="0.74869">
        <ele>152.03</ele>
        <time>2023-05-28T08:27:33Z</time>
      </trkpt>
      <trkpt lat="44.32405" lon="0.74855">
        <ele>152.51</ele>
        <time>2023-05-28T08:27:40Z</time>
      </trkpt>
      <trkpt lat="44.32399" lon="0.74846">
        <ele>152.51</ele>
        <time>2023-05-28T08:27:46Z</time>
      </trkpt>
      <trkpt lat="44.32389" lon="0.74837">
        <ele>152.03</ele>
        <time>2023-05-28T08:27:53Z</time>
      </trkpt>
      <trkpt lat="44.32378" lon="0.74832">
        <ele>151.54</ele>
        <time>2023-05-28T08:28:00Z</time>
      </trkpt>
      <trkpt lat="44.32365" lon="0.74835">
        <ele>151.06</ele>
        <time>2023-05-28T08:28:08Z</time>
      </trkpt>
      <trkpt lat="44.32355" lon="0.74844">
        <ele>151.54</ele>
        <time>2023-05-28T08:28:16Z</time>
      </trkpt>
      <trkpt lat="44.32346" lon="0.74856">
        <ele>152.03</ele>
        <time>2023-05-28T08:28:25Z</time>
      </trkpt>
      <trkpt lat="44.32333" lon="0.74837">
        <ele>152.99</ele>
        <time>2023-05-28T08:28:42Z</time>
      </trkpt>
      <trkpt lat="44.32336" lon="0.74817">
        <ele>157.31</ele>
        <time>2023-05-28T08:28:51Z</time>
      </trkpt>
      <trkpt lat="44.32338" lon="0.74794">
        <ele>160.68</ele>
        <time>2023-05-28T08:29:02Z</time>
      </trkpt>
      <trkpt lat="44.32344" lon="0.74774">
        <ele>164.52</ele>
        <time>2023-05-28T08:29:11Z</time>
      </trkpt>
      <trkpt lat="44.32349" lon="0.74751">
        <ele>170.77</ele>
        <time>2023-05-28T08:29:32Z</time>
      </trkpt>
      <trkpt lat="44.32351" lon="0.74733">
        <ele>173.17</ele>
        <time>2023-05-28T08:29:41Z</time>
      </trkpt>
      <trkpt lat="44.3235" lon="0.74713">
        <ele>174.62</ele>
        <time>2023-05-28T08:29:51Z</time>
      </trkpt>
      <trkpt lat="44.32341" lon="0.74618">
        <ele>181.83</ele>
        <time>2023-05-28T08:30:43Z</time>
      </trkpt>
      <trkpt lat="44.32335" lon="0.74594">
        <ele>184.23</ele>
        <time>2023-05-28T08:30:58Z</time>
      </trkpt>
      <trkpt lat="44.32322" lon="0.74558">
        <ele>185.67</ele>
        <time>2023-05-28T08:31:22Z</time>
      </trkpt>
      <trkpt lat="44.32319" lon="0.7454">
        <ele>186.15</ele>
        <time>2023-05-28T08:31:30Z</time>
      </trkpt>
      <trkpt lat="44.32317" lon="0.74523">
        <ele>188.08</ele>
        <time>2023-05-28T08:31:39Z</time>
      </trkpt>
      <trkpt lat="44.32313" lon="0.74507">
        <ele>189.04</ele>
        <time>2023-05-28T08:31:47Z</time>
      </trkpt>
      <trkpt lat="44.3231" lon="0.74489">
        <ele>190</ele>
        <time>2023-05-28T08:31:56Z</time>
      </trkpt>
      <trkpt lat="44.3231" lon="0.74474">
        <ele>190.48</ele>
        <time>2023-05-28T08:32:05Z</time>
      </trkpt>
      <trkpt lat="44.32309" lon="0.7446">
        <ele>192.88</ele>
        <time>2023-05-28T08:32:33Z</time>
      </trkpt>
      <trkpt lat="44.32305" lon="0.74445">
        <ele>194.8</ele>
        <time>2023-05-28T08:32:41Z</time>
      </trkpt>
      <trkpt lat="44.32302" lon="0.7443">
        <ele>196.73</ele>
        <time>2023-05-28T08:32:50Z</time>
      </trkpt>
      <trkpt lat="44.32297" lon="0.74409">
        <ele>198.17</ele>
        <time>2023-05-28T08:33:00Z</time>
      </trkpt>
      <trkpt lat="44.3227" lon="0.74298">
        <ele>190</ele>
        <time>2023-05-28T08:35:12Z</time>
      </trkpt>
      <trkpt lat="44.32266" lon="0.74287">
        <ele>190</ele>
        <time>2023-05-28T08:35:19Z</time>
      </trkpt>
      <trkpt lat="44.32261" lon="0.74278">
        <ele>190</ele>
        <time>2023-05-28T08:35:25Z</time>
      </trkpt>
      <trkpt lat="44.32258" lon="0.74272">
        <ele>190</ele>
        <time>2023-05-28T08:35:32Z</time>
      </trkpt>
      <trkpt lat="44.3227" lon="0.74256">
        <ele>199.61</ele>
        <time>2023-05-28T08:36:22Z</time>
      </trkpt>
      <trkpt lat="44.32266" lon="0.74243">
        <ele>200.57</ele>
        <time>2023-05-28T08:36:30Z</time>
      </trkpt>
      <trkpt lat="44.32273" lon="0.74229">
        <ele>201.53</ele>
        <time>2023-05-28T08:36:41Z</time>
      </trkpt>
      <trkpt lat="44.32283" lon="0.74222">
        <ele>202.98</ele>
        <time>2023-05-28T08:36:49Z</time>
      </trkpt>
      <trkpt lat="44.32295" lon="0.74217">
        <ele>205.38</ele>
        <time>2023-05-28T08:36:58Z</time>
      </trkpt>
      <trkpt lat="44.32306" lon="0.74211">
        <ele>206.34</ele>
        <time>2023-05-28T08:37:06Z</time>
      </trkpt>
      <trkpt lat="44.32317" lon="0.74207">
        <ele>206.34</ele>
        <time>2023-05-28T08:37:14Z</time>
      </trkpt>
      <trkpt lat="44.32328" lon="0.74206">
        <ele>205.86</ele>
        <time>2023-05-28T08:37:22Z</time>
      </trkpt>
      <trkpt lat="44.32339" lon="0.74202">
        <ele>204.42</ele>
        <time>2023-05-28T08:37:30Z</time>
      </trkpt>
      <trkpt lat="44.32351" lon="0.7419">
        <ele>202.49</ele>
        <time>2023-05-28T08:37:41Z</time>
      </trkpt>
      <trkpt lat="44.32374" lon="0.74161">
        <ele>201.05</ele>
        <time>2023-05-28T08:38:02Z</time>
      </trkpt>
      <trkpt lat="44.32385" lon="0.74153">
        <ele>199.13</ele>
        <time>2023-05-28T08:38:12Z</time>
      </trkpt>
      <trkpt lat="44.32398" lon="0.74142">
        <ele>199.13</ele>
        <time>2023-05-28T08:38:21Z</time>
      </trkpt>
      <trkpt lat="44.32437" lon="0.74133">
        <ele>190.96</ele>
        <time>2023-05-28T08:38:59Z</time>
      </trkpt>
      <trkpt lat="44.32588" lon="0.74152">
        <ele>199.13</ele>
        <time>2023-05-28T08:40:32Z</time>
      </trkpt>
      <trkpt lat="44.32624" lon="0.74167">
        <ele>196.25</ele>
        <time>2023-05-28T08:41:03Z</time>
      </trkpt>
      <trkpt lat="44.32728" lon="0.74243">
        <ele>178.46</ele>
        <time>2023-05-28T08:42:42Z</time>
      </trkpt>
      <trkpt lat="44.32738" lon="0.74258">
        <ele>176.54</ele>
        <time>2023-05-28T08:42:53Z</time>
      </trkpt>
      <trkpt lat="44.32775" lon="0.74287">
        <ele>174.62</ele>
        <time>2023-05-28T08:43:59Z</time>
      </trkpt>
      <trkpt lat="44.32784" lon="0.74283">
        <ele>172.21</ele>
        <time>2023-05-28T08:44:07Z</time>
      </trkpt>
      <trkpt lat="44.32791" lon="0.74279">
        <ele>169.33</ele>
        <time>2023-05-28T08:44:16Z</time>
      </trkpt>
      <trkpt lat="44.32831" lon="0.74253">
        <ele>149.62</ele>
        <time>2023-05-28T08:46:04Z</time>
      </trkpt>
      <trkpt lat="44.3282" lon="0.74197">
        <ele>153.47</ele>
        <time>2023-05-28T08:47:46Z</time>
      </trkpt>
      <trkpt lat="44.32818" lon="0.74181">
        <ele>153.47</ele>
        <time>2023-05-28T08:47:55Z</time>
      </trkpt>
      <trkpt lat="44.32814" lon="0.74168">
        <ele>152.51</ele>
        <time>2023-05-28T08:48:01Z</time>
      </trkpt>
      <trkpt lat="44.32811" lon="0.74156">
        <ele>151.06</ele>
        <time>2023-05-28T08:48:08Z</time>
      </trkpt>
      <trkpt lat="44.32809" lon="0.74142">
        <ele>149.62</ele>
        <time>2023-05-28T08:48:15Z</time>
      </trkpt>
      <trkpt lat="44.32807" lon="0.74129">
        <ele>149.62</ele>
        <time>2023-05-28T08:48:22Z</time>
      </trkpt>
      <trkpt lat="44.32805" lon="0.74112">
        <ele>149.14</ele>
        <time>2023-05-28T08:48:31Z</time>
      </trkpt>
      <trkpt lat="44.328" lon="0.74098">
        <ele>148.18</ele>
        <time>2023-05-28T08:48:39Z</time>
      </trkpt>
      <trkpt lat="44.32795" lon="0.74083">
        <ele>149.14</ele>
        <time>2023-05-28T08:48:49Z</time>
      </trkpt>
      <trkpt lat="44.32786" lon="0.74061">
        <ele>149.62</ele>
        <time>2023-05-28T08:49:02Z</time>
      </trkpt>
      <trkpt lat="44.32778" lon="0.74036">
        <ele>149.14</ele>
        <time>2023-05-28T08:49:16Z</time>
      </trkpt>
      <trkpt lat="44.32784" lon="0.74006">
        <ele>146.74</ele>
        <time>2023-05-28T08:49:38Z</time>
      </trkpt>
      <trkpt lat="44.32793" lon="0.73994">
        <ele>143.85</ele>
        <time>2023-05-28T08:49:45Z</time>
      </trkpt>
      <trkpt lat="44.32801" lon="0.73984">
        <ele>140.97</ele>
        <time>2023-05-28T08:49:53Z</time>
      </trkpt>
      <trkpt lat="44.32809" lon="0.73974">
        <ele>140.01</ele>
        <time>2023-05-28T08:50:01Z</time>
      </trkpt>
      <trkpt lat="44.32817" lon="0.73966">
        <ele>140.01</ele>
        <time>2023-05-28T08:50:07Z</time>
      </trkpt>
      <trkpt lat="44.32826" lon="0.73958">
        <ele>139.05</ele>
        <time>2023-05-28T08:50:14Z</time>
      </trkpt>
      <trkpt lat="44.32815" lon="0.73925">
        <ele>131.36</ele>
        <time>2023-05-28T08:50:35Z</time>
      </trkpt>
      <trkpt lat="44.32808" lon="0.7391">
        <ele>128.47</ele>
        <time>2023-05-28T08:50:43Z</time>
      </trkpt>
      <trkpt lat="44.32796" lon="0.73869">
        <ele>124.15</ele>
        <time>2023-05-28T08:51:06Z</time>
      </trkpt>
      <trkpt lat="44.32788" lon="0.73849">
        <ele>122.22</ele>
        <time>2023-05-28T08:51:14Z</time>
      </trkpt>
      <trkpt lat="44.32779" lon="0.73824">
        <ele>121.26</ele>
        <time>2023-05-28T08:51:21Z</time>
      </trkpt>
      <trkpt lat="44.32769" lon="0.73801">
        <ele>122.22</ele>
        <time>2023-05-28T08:51:29Z</time>
      </trkpt>
      <trkpt lat="44.32759" lon="0.73784">
        <ele>121.74</ele>
        <time>2023-05-28T08:51:35Z</time>
      </trkpt>
      <trkpt lat="44.3275" lon="0.73771">
        <ele>121.74</ele>
        <time>2023-05-28T08:51:41Z</time>
      </trkpt>
      <trkpt lat="44.32731" lon="0.73756">
        <ele>121.74</ele>
        <time>2023-05-28T08:51:55Z</time>
      </trkpt>
      <trkpt lat="44.32717" lon="0.73744">
        <ele>121.74</ele>
        <time>2023-05-28T08:52:04Z</time>
      </trkpt>
      <trkpt lat="44.32705" lon="0.73737">
        <ele>124.15</ele>
        <time>2023-05-28T08:52:11Z</time>
      </trkpt>
      <trkpt lat="44.32693" lon="0.73728">
        <ele>124.15</ele>
        <time>2023-05-28T08:52:20Z</time>
      </trkpt>
      <trkpt lat="44.32665" lon="0.73713">
        <ele>124.63</ele>
        <time>2023-05-28T08:52:40Z</time>
      </trkpt>
      <trkpt lat="44.32648" lon="0.73704">
        <ele>127.51</ele>
        <time>2023-05-28T08:52:51Z</time>
      </trkpt>
      <trkpt lat="44.32629" lon="0.73693">
        <ele>128.95</ele>
        <time>2023-05-28T08:53:04Z</time>
      </trkpt>
      <trkpt lat="44.32616" lon="0.73709">
        <ele>131.36</ele>
        <time>2023-05-28T08:53:14Z</time>
      </trkpt>
      <trkpt lat="44.32606" lon="0.73719">
        <ele>132.32</ele>
        <time>2023-05-28T08:53:21Z</time>
      </trkpt>
      <trkpt lat="44.32594" lon="0.73722">
        <ele>131.84</ele>
        <time>2023-05-28T08:53:28Z</time>
      </trkpt>
      <trkpt lat="44.32578" lon="0.73717">
        <ele>131.36</ele>
        <time>2023-05-28T08:53:43Z</time>
      </trkpt>
      <trkpt lat="44.32567" lon="0.73712">
        <ele>131.36</ele>
        <time>2023-05-28T08:53:52Z</time>
      </trkpt>
      <trkpt lat="44.32556" lon="0.73709">
        <ele>132.32</ele>
        <time>2023-05-28T08:54:00Z</time>
      </trkpt>
      <trkpt lat="44.32545" lon="0.73705">
        <ele>132.8</ele>
        <time>2023-05-28T08:54:08Z</time>
      </trkpt>
      <trkpt lat="44.32532" lon="0.737">
        <ele>134.72</ele>
        <time>2023-05-28T08:54:18Z</time>
      </trkpt>
      <trkpt lat="44.32514" lon="0.73665">
        <ele>136.16</ele>
        <time>2023-05-28T08:54:41Z</time>
      </trkpt>
      <trkpt lat="44.32485" lon="0.7364">
        <ele>128.47</ele>
        <time>2023-05-28T08:55:04Z</time>
      </trkpt>
      <trkpt lat="44.32472" lon="0.73639">
        <ele>130.4</ele>
        <time>2023-05-28T08:55:11Z</time>
      </trkpt>
      <trkpt lat="44.32461" lon="0.73633">
        <ele>132.32</ele>
        <time>2023-05-28T08:55:19Z</time>
      </trkpt>
      <trkpt lat="44.32463" lon="0.736">
        <ele>131.84</ele>
        <time>2023-05-28T08:55:38Z</time>
      </trkpt>
      <trkpt lat="44.32464" lon="0.73574">
        <ele>131.84</ele>
        <time>2023-05-28T08:55:50Z</time>
      </trkpt>
      <trkpt lat="44.32468" lon="0.73557">
        <ele>134.24</ele>
        <time>2023-05-28T08:55:58Z</time>
      </trkpt>
      <trkpt lat="44.32471" lon="0.73543">
        <ele>133.28</ele>
        <time>2023-05-28T08:56:05Z</time>
      </trkpt>
      <trkpt lat="44.32474" lon="0.73531">
        <ele>131.36</ele>
        <time>2023-05-28T08:56:13Z</time>
      </trkpt>
      <trkpt lat="44.3248" lon="0.73492">
        <ele>134.72</ele>
        <time>2023-05-28T08:56:32Z</time>
      </trkpt>
      <trkpt lat="44.32484" lon="0.73458">
        <ele>136.16</ele>
        <time>2023-05-28T08:56:49Z</time>
      </trkpt>
      <trkpt lat="44.32508" lon="0.73429">
        <ele>136.16</ele>
        <time>2023-05-28T08:57:11Z</time>
      </trkpt>
      <trkpt lat="44.32523" lon="0.73415">
        <ele>140.49</ele>
        <time>2023-05-28T08:57:23Z</time>
      </trkpt>
      <trkpt lat="44.32508" lon="0.7338">
        <ele>153.95</ele>
        <time>2023-05-28T08:57:47Z</time>
      </trkpt>
      <trkpt lat="44.32518" lon="0.73332">
        <ele>168.85</ele>
        <time>2023-05-28T08:58:44Z</time>
      </trkpt>
      <trkpt lat="44.32532" lon="0.7333">
        <ele>170.77</ele>
        <time>2023-05-28T08:58:53Z</time>
      </trkpt>
      <trkpt lat="44.32549" lon="0.7334">
        <ele>177.5</ele>
        <time>2023-05-28T08:59:06Z</time>
      </trkpt>
      <trkpt lat="44.32562" lon="0.7335">
        <ele>181.35</ele>
        <time>2023-05-28T08:59:18Z</time>
      </trkpt>
      <trkpt lat="44.32575" lon="0.73362">
        <ele>182.31</ele>
        <time>2023-05-28T08:59:28Z</time>
      </trkpt>
      <trkpt lat="44.32587" lon="0.73377">
        <ele>184.71</ele>
        <time>2023-05-28T08:59:36Z</time>
      </trkpt>
      <trkpt lat="44.32597" lon="0.73391">
        <ele>186.63</ele>
        <time>2023-05-28T08:59:45Z</time>
      </trkpt>
      <trkpt lat="44.32608" lon="0.73407">
        <ele>189.04</ele>
        <time>2023-05-28T08:59:56Z</time>
      </trkpt>
      <trkpt lat="44.32606" lon="0.73382">
        <ele>189.52</ele>
        <time>2023-05-28T09:00:24Z</time>
      </trkpt>
      <trkpt lat="44.326" lon="0.7337">
        <ele>189.52</ele>
        <time>2023-05-28T09:00:31Z</time>
      </trkpt>
      <trkpt lat="44.32599" lon="0.7335">
        <ele>190.48</ele>
        <time>2023-05-28T09:00:45Z</time>
      </trkpt>
      <trkpt lat="44.32602" lon="0.73335">
        <ele>190.48</ele>
        <time>2023-05-28T09:00:53Z</time>
      </trkpt>
      <trkpt lat="44.32607" lon="0.73315">
        <ele>191.44</ele>
        <time>2023-05-28T09:01:03Z</time>
      </trkpt>
      <trkpt lat="44.32614" lon="0.73293">
        <ele>193.36</ele>
        <time>2023-05-28T09:01:16Z</time>
      </trkpt>
      <trkpt lat="44.32622" lon="0.73279">
        <ele>193.36</ele>
        <time>2023-05-28T09:01:24Z</time>
      </trkpt>
      <trkpt lat="44.32631" lon="0.73267">
        <ele>193.36</ele>
        <time>2023-05-28T09:01:32Z</time>
      </trkpt>
      <trkpt lat="44.3264" lon="0.73254">
        <ele>193.36</ele>
        <time>2023-05-28T09:01:40Z</time>
      </trkpt>
      <trkpt lat="44.32647" lon="0.73243">
        <ele>193.36</ele>
        <time>2023-05-28T09:01:47Z</time>
      </trkpt>
      <trkpt lat="44.32654" lon="0.7323">
        <ele>194.8</ele>
        <time>2023-05-28T09:01:54Z</time>
      </trkpt>
      <trkpt lat="44.3266" lon="0.73216">
        <ele>198.65</ele>
        <time>2023-05-28T09:02:02Z</time>
      </trkpt>
      <trkpt lat="44.32666" lon="0.73204">
        <ele>200.57</ele>
        <time>2023-05-28T09:02:09Z</time>
      </trkpt>
      <trkpt lat="44.32673" lon="0.73189">
        <ele>202.01</ele>
        <time>2023-05-28T09:02:18Z</time>
      </trkpt>
      <trkpt lat="44.32685" lon="0.73161">
        <ele>202.01</ele>
        <time>2023-05-28T09:02:35Z</time>
      </trkpt>
      <trkpt lat="44.32688" lon="0.73141">
        <ele>202.98</ele>
        <time>2023-05-28T09:02:44Z</time>
      </trkpt>
      <trkpt lat="44.32685" lon="0.7312">
        <ele>204.9</ele>
        <time>2023-05-28T09:02:54Z</time>
      </trkpt>
      <trkpt lat="44.32678" lon="0.73076">
        <ele>206.34</ele>
        <time>2023-05-28T09:03:16Z</time>
      </trkpt>
      <trkpt lat="44.32676" lon="0.7306">
        <ele>206.82</ele>
        <time>2023-05-28T09:03:23Z</time>
      </trkpt>
      <trkpt lat="44.32673" lon="0.73045">
        <ele>206.34</ele>
        <time>2023-05-28T09:03:32Z</time>
      </trkpt>
      <trkpt lat="44.3267" lon="0.7303">
        <ele>204.42</ele>
        <time>2023-05-28T09:03:41Z</time>
      </trkpt>
      <trkpt lat="44.32648" lon="0.7294">
        <ele>194.8</ele>
        <time>2023-05-28T09:04:33Z</time>
      </trkpt>
      <trkpt lat="44.32637" lon="0.72914">
        <ele>194.8</ele>
        <time>2023-05-28T09:04:42Z</time>
      </trkpt>
      <trkpt lat="44.3263" lon="0.72902">
        <ele>194.8</ele>
        <time>2023-05-28T09:04:51Z</time>
      </trkpt>
      <trkpt lat="44.32623" lon="0.72889">
        <ele>195.28</ele>
        <time>2023-05-28T09:05:00Z</time>
      </trkpt>
      <trkpt lat="44.32615" lon="0.72872">
        <ele>196.25</ele>
        <time>2023-05-28T09:05:08Z</time>
      </trkpt>
      <trkpt lat="44.32607" lon="0.72857">
        <ele>196.25</ele>
        <time>2023-05-28T09:05:16Z</time>
      </trkpt>
      <trkpt lat="44.32598" lon="0.72844">
        <ele>196.25</ele>
        <time>2023-05-28T09:05:24Z</time>
      </trkpt>
      <trkpt lat="44.32586" lon="0.72831">
        <ele>196.25</ele>
        <time>2023-05-28T09:05:32Z</time>
      </trkpt>
      <trkpt lat="44.32576" lon="0.72822">
        <ele>196.73</ele>
        <time>2023-05-28T09:05:39Z</time>
      </trkpt>
      <trkpt lat="44.32565" lon="0.7281">
        <ele>197.21</ele>
        <time>2023-05-28T09:05:49Z</time>
      </trkpt>
      <trkpt lat="44.32553" lon="0.72802">
        <ele>198.17</ele>
        <time>2023-05-28T09:05:58Z</time>
      </trkpt>
      <trkpt lat="44.32541" lon="0.72793">
        <ele>199.13</ele>
        <time>2023-05-28T09:06:05Z</time>
      </trkpt>
      <trkpt lat="44.3253" lon="0.72784">
        <ele>201.05</ele>
        <time>2023-05-28T09:06:12Z</time>
      </trkpt>
      <trkpt lat="44.3252" lon="0.72777">
        <ele>202.01</ele>
        <time>2023-05-28T09:06:18Z</time>
      </trkpt>
      <trkpt lat="44.32511" lon="0.7277">
        <ele>202.49</ele>
        <time>2023-05-28T09:06:25Z</time>
      </trkpt>
      <trkpt lat="44.32501" lon="0.72763">
        <ele>204.9</ele>
        <time>2023-05-28T09:06:32Z</time>
      </trkpt>
      <trkpt lat="44.3249" lon="0.72756">
        <ele>206.82</ele>
        <time>2023-05-28T09:06:39Z</time>
      </trkpt>
      <trkpt lat="44.32482" lon="0.7275">
        <ele>206.82</ele>
        <time>2023-05-28T09:06:45Z</time>
      </trkpt>
      <trkpt lat="44.32472" lon="0.72744">
        <ele>207.78</ele>
        <time>2023-05-28T09:06:52Z</time>
      </trkpt>
      <trkpt lat="44.32463" lon="0.72738">
        <ele>208.26</ele>
        <time>2023-05-28T09:06:59Z</time>
      </trkpt>
      <trkpt lat="44.32455" lon="0.72731">
        <ele>209.22</ele>
        <time>2023-05-28T09:07:05Z</time>
      </trkpt>
      <trkpt lat="44.32448" lon="0.72722">
        <ele>210.19</ele>
        <time>2023-05-28T09:07:12Z</time>
      </trkpt>
      <trkpt lat="44.32443" lon="0.72711">
        <ele>210.19</ele>
        <time>2023-05-28T09:07:19Z</time>
      </trkpt>
      <trkpt lat="44.32436" lon="0.72698">
        <ele>210.19</ele>
        <time>2023-05-28T09:07:26Z</time>
      </trkpt>
      <trkpt lat="44.32429" lon="0.72687">
        <ele>210.67</ele>
        <time>2023-05-28T09:07:33Z</time>
      </trkpt>
      <trkpt lat="44.32422" lon="0.72678">
        <ele>210.67</ele>
        <time>2023-05-28T09:07:40Z</time>
      </trkpt>
      <trkpt lat="44.32413" lon="0.72668">
        <ele>211.15</ele>
        <time>2023-05-28T09:07:50Z</time>
      </trkpt>
      <trkpt lat="44.32406" lon="0.72658">
        <ele>211.63</ele>
        <time>2023-05-28T09:07:58Z</time>
      </trkpt>
      <trkpt lat="44.324" lon="0.72646">
        <ele>212.59</ele>
        <time>2023-05-28T09:08:05Z</time>
      </trkpt>
      <trkpt lat="44.32395" lon="0.72633">
        <ele>213.07</ele>
        <time>2023-05-28T09:08:12Z</time>
      </trkpt>
      <trkpt lat="44.3239" lon="0.7262">
        <ele>212.59</ele>
        <time>2023-05-28T09:08:19Z</time>
      </trkpt>
      <trkpt lat="44.32387" lon="0.72607">
        <ele>211.63</ele>
        <time>2023-05-28T09:08:26Z</time>
      </trkpt>
      <trkpt lat="44.32382" lon="0.72591">
        <ele>209.22</ele>
        <time>2023-05-28T09:08:36Z</time>
      </trkpt>
      <trkpt lat="44.32376" lon="0.72578">
        <ele>205.86</ele>
        <time>2023-05-28T09:08:45Z</time>
      </trkpt>
      <trkpt lat="44.3237" lon="0.7256">
        <ele>203.94</ele>
        <time>2023-05-28T09:08:54Z</time>
      </trkpt>
      <trkpt lat="44.32362" lon="0.72543">
        <ele>206.34</ele>
        <time>2023-05-28T09:09:02Z</time>
      </trkpt>
      <trkpt lat="44.32355" lon="0.72531">
        <ele>207.78</ele>
        <time>2023-05-28T09:09:09Z</time>
      </trkpt>
      <trkpt lat="44.32347" lon="0.7252">
        <ele>208.74</ele>
        <time>2023-05-28T09:09:16Z</time>
      </trkpt>
      <trkpt lat="44.32339" lon="0.72509">
        <ele>208.74</ele>
        <time>2023-05-28T09:09:23Z</time>
      </trkpt>
      <trkpt lat="44.32332" lon="0.72496">
        <ele>209.22</ele>
        <time>2023-05-28T09:09:30Z</time>
      </trkpt>
      <trkpt lat="44.32326" lon="0.72484">
        <ele>209.22</ele>
        <time>2023-05-28T09:09:36Z</time>
      </trkpt>
      <trkpt lat="44.3232" lon="0.72473">
        <ele>208.74</ele>
        <time>2023-05-28T09:09:43Z</time>
      </trkpt>
      <trkpt lat="44.32313" lon="0.72462">
        <ele>208.26</ele>
        <time>2023-05-28T09:09:50Z</time>
      </trkpt>
      <trkpt lat="44.32309" lon="0.72449">
        <ele>207.78</ele>
        <time>2023-05-28T09:09:57Z</time>
      </trkpt>
      <trkpt lat="44.32304" lon="0.72434">
        <ele>207.78</ele>
        <time>2023-05-28T09:10:05Z</time>
      </trkpt>
      <trkpt lat="44.32298" lon="0.72419">
        <ele>207.78</ele>
        <time>2023-05-28T09:10:13Z</time>
      </trkpt>
      <trkpt lat="44.32294" lon="0.72404">
        <ele>208.26</ele>
        <time>2023-05-28T09:10:20Z</time>
      </trkpt>
      <trkpt lat="44.32291" lon="0.72389">
        <ele>209.22</ele>
        <time>2023-05-28T09:10:27Z</time>
      </trkpt>
      <trkpt lat="44.32289" lon="0.72373">
        <ele>210.67</ele>
        <time>2023-05-28T09:10:34Z</time>
      </trkpt>
      <trkpt lat="44.32287" lon="0.72359">
        <ele>211.63</ele>
        <time>2023-05-28T09:10:42Z</time>
      </trkpt>
      <trkpt lat="44.32284" lon="0.72343">
        <ele>211.15</ele>
        <time>2023-05-28T09:10:49Z</time>
      </trkpt>
      <trkpt lat="44.3228" lon="0.72329">
        <ele>211.15</ele>
        <time>2023-05-28T09:10:55Z</time>
      </trkpt>
      <trkpt lat="44.32277" lon="0.72314">
        <ele>212.11</ele>
        <time>2023-05-28T09:11:02Z</time>
      </trkpt>
      <trkpt lat="44.32274" lon="0.72301">
        <ele>212.59</ele>
        <time>2023-05-28T09:11:10Z</time>
      </trkpt>
      <trkpt lat="44.32284" lon="0.7229">
        <ele>214.03</ele>
        <time>2023-05-28T09:11:21Z</time>
      </trkpt>
      <trkpt lat="44.32296" lon="0.72288">
        <ele>214.99</ele>
        <time>2023-05-28T09:11:30Z</time>
      </trkpt>
      <trkpt lat="44.32307" lon="0.72287">
        <ele>215.47</ele>
        <time>2023-05-28T09:11:41Z</time>
      </trkpt>
      <trkpt lat="44.3232" lon="0.7229">
        <ele>215.47</ele>
        <time>2023-05-28T09:11:50Z</time>
      </trkpt>
      <trkpt lat="44.32331" lon="0.72293">
        <ele>214.99</ele>
        <time>2023-05-28T09:11:58Z</time>
      </trkpt>
      <trkpt lat="44.32345" lon="0.72295">
        <ele>215.47</ele>
        <time>2023-05-28T09:12:07Z</time>
      </trkpt>
      <trkpt lat="44.32385" lon="0.7229">
        <ele>214.51</ele>
        <time>2023-05-28T09:12:39Z</time>
      </trkpt>
      <trkpt lat="44.32396" lon="0.72284">
        <ele>214.03</ele>
        <time>2023-05-28T09:12:47Z</time>
      </trkpt>
      <trkpt lat="44.32406" lon="0.72277">
        <ele>213.55</ele>
        <time>2023-05-28T09:12:55Z</time>
      </trkpt>
      <trkpt lat="44.32415" lon="0.72271">
        <ele>212.59</ele>
        <time>2023-05-28T09:13:02Z</time>
      </trkpt>
      <trkpt lat="44.32426" lon="0.72263">
        <ele>213.07</ele>
        <time>2023-05-28T09:13:09Z</time>
      </trkpt>
      <trkpt lat="44.32436" lon="0.72254">
        <ele>213.07</ele>
        <time>2023-05-28T09:13:16Z</time>
      </trkpt>
      <trkpt lat="44.32446" lon="0.72244">
        <ele>212.11</ele>
        <time>2023-05-28T09:13:23Z</time>
      </trkpt>
      <trkpt lat="44.32457" lon="0.72234">
        <ele>213.07</ele>
        <time>2023-05-28T09:13:30Z</time>
      </trkpt>
      <trkpt lat="44.32464" lon="0.72226">
        <ele>213.07</ele>
        <time>2023-05-28T09:13:36Z</time>
      </trkpt>
      <trkpt lat="44.32473" lon="0.72218">
        <ele>212.59</ele>
        <time>2023-05-28T09:13:42Z</time>
      </trkpt>
      <trkpt lat="44.32482" lon="0.72209">
        <ele>211.63</ele>
        <time>2023-05-28T09:13:49Z</time>
      </trkpt>
      <trkpt lat="44.32492" lon="0.72199">
        <ele>211.63</ele>
        <time>2023-05-28T09:13:57Z</time>
      </trkpt>
      <trkpt lat="44.32502" lon="0.72188">
        <ele>211.63</ele>
        <time>2023-05-28T09:14:05Z</time>
      </trkpt>
      <trkpt lat="44.32511" lon="0.72177">
        <ele>211.63</ele>
        <time>2023-05-28T09:14:12Z</time>
      </trkpt>
      <trkpt lat="44.32519" lon="0.72166">
        <ele>211.15</ele>
        <time>2023-05-28T09:14:19Z</time>
      </trkpt>
      <trkpt lat="44.32526" lon="0.72156">
        <ele>210.67</ele>
        <time>2023-05-28T09:14:27Z</time>
      </trkpt>
      <trkpt lat="44.32535" lon="0.72144">
        <ele>211.15</ele>
        <time>2023-05-28T09:14:35Z</time>
      </trkpt>
      <trkpt lat="44.32546" lon="0.7213">
        <ele>211.15</ele>
        <time>2023-05-28T09:14:43Z</time>
      </trkpt>
      <trkpt lat="44.32556" lon="0.72116">
        <ele>212.11</ele>
        <time>2023-05-28T09:14:52Z</time>
      </trkpt>
      <trkpt lat="44.32566" lon="0.72104">
        <ele>213.07</ele>
        <time>2023-05-28T09:15:00Z</time>
      </trkpt>
      <trkpt lat="44.32574" lon="0.72094">
        <ele>213.07</ele>
        <time>2023-05-28T09:15:06Z</time>
      </trkpt>
      <trkpt lat="44.32581" lon="0.72083">
        <ele>212.59</ele>
        <time>2023-05-28T09:15:13Z</time>
      </trkpt>
      <trkpt lat="44.3259" lon="0.72075">
        <ele>212.59</ele>
        <time>2023-05-28T09:15:20Z</time>
      </trkpt>
      <trkpt lat="44.326" lon="0.72068">
        <ele>211.63</ele>
        <time>2023-05-28T09:15:27Z</time>
      </trkpt>
      <trkpt lat="44.32609" lon="0.72063">
        <ele>211.15</ele>
        <time>2023-05-28T09:15:34Z</time>
      </trkpt>
      <trkpt lat="44.32618" lon="0.72055">
        <ele>211.15</ele>
        <time>2023-05-28T09:15:41Z</time>
      </trkpt>
      <trkpt lat="44.32628" lon="0.72049">
        <ele>210.19</ele>
        <time>2023-05-28T09:15:48Z</time>
      </trkpt>
      <trkpt lat="44.32638" lon="0.72043">
        <ele>210.19</ele>
        <time>2023-05-28T09:15:55Z</time>
      </trkpt>
      <trkpt lat="44.32648" lon="0.72038">
        <ele>210.19</ele>
        <time>2023-05-28T09:16:02Z</time>
      </trkpt>
      <trkpt lat="44.32659" lon="0.72032">
        <ele>210.19</ele>
        <time>2023-05-28T09:16:09Z</time>
      </trkpt>
      <trkpt lat="44.32668" lon="0.72027">
        <ele>210.19</ele>
        <time>2023-05-28T09:16:15Z</time>
      </trkpt>
      <trkpt lat="44.32678" lon="0.72021">
        <ele>210.19</ele>
        <time>2023-05-28T09:16:22Z</time>
      </trkpt>
      <trkpt lat="44.32687" lon="0.72016">
        <ele>210.19</ele>
        <time>2023-05-28T09:16:29Z</time>
      </trkpt>
      <trkpt lat="44.32697" lon="0.7201">
        <ele>210.19</ele>
        <time>2023-05-28T09:16:36Z</time>
      </trkpt>
      <trkpt lat="44.32708" lon="0.72006">
        <ele>209.7</ele>
        <time>2023-05-28T09:16:43Z</time>
      </trkpt>
      <trkpt lat="44.32718" lon="0.71999">
        <ele>210.67</ele>
        <time>2023-05-28T09:16:50Z</time>
      </trkpt>
      <trkpt lat="44.32728" lon="0.71994">
        <ele>210.67</ele>
        <time>2023-05-28T09:16:57Z</time>
      </trkpt>
      <trkpt lat="44.32737" lon="0.71989">
        <ele>210.19</ele>
        <time>2023-05-28T09:17:05Z</time>
      </trkpt>
      <trkpt lat="44.32747" lon="0.71982">
        <ele>210.19</ele>
        <time>2023-05-28T09:17:13Z</time>
      </trkpt>
      <trkpt lat="44.32757" lon="0.71977">
        <ele>209.7</ele>
        <time>2023-05-28T09:17:21Z</time>
      </trkpt>
      <trkpt lat="44.32768" lon="0.71971">
        <ele>209.22</ele>
        <time>2023-05-28T09:17:29Z</time>
      </trkpt>
      <trkpt lat="44.32779" lon="0.71968">
        <ele>208.74</ele>
        <time>2023-05-28T09:17:37Z</time>
      </trkpt>
      <trkpt lat="44.3279" lon="0.71963">
        <ele>207.78</ele>
        <time>2023-05-28T09:17:45Z</time>
      </trkpt>
      <trkpt lat="44.32799" lon="0.71959">
        <ele>206.82</ele>
        <time>2023-05-28T09:17:53Z</time>
      </trkpt>
      <trkpt lat="44.3281" lon="0.71955">
        <ele>204.9</ele>
        <time>2023-05-28T09:18:02Z</time>
      </trkpt>
      <trkpt lat="44.32821" lon="0.71952">
        <ele>204.42</ele>
        <time>2023-05-28T09:18:09Z</time>
      </trkpt>
      <trkpt lat="44.32834" lon="0.71951">
        <ele>204.9</ele>
        <time>2023-05-28T09:18:16Z</time>
      </trkpt>
      <trkpt lat="44.32845" lon="0.71949">
        <ele>205.86</ele>
        <time>2023-05-28T09:18:22Z</time>
      </trkpt>
      <trkpt lat="44.32856" lon="0.71948">
        <ele>206.82</ele>
        <time>2023-05-28T09:18:29Z</time>
      </trkpt>
      <trkpt lat="44.32865" lon="0.71943">
        <ele>206.34</ele>
        <time>2023-05-28T09:18:35Z</time>
      </trkpt>
      <trkpt lat="44.32875" lon="0.71937">
        <ele>206.34</ele>
        <time>2023-05-28T09:18:42Z</time>
      </trkpt>
      <trkpt lat="44.32883" lon="0.71929">
        <ele>205.38</ele>
        <time>2023-05-28T09:18:49Z</time>
      </trkpt>
      <trkpt lat="44.32892" lon="0.7192">
        <ele>205.38</ele>
        <time>2023-05-28T09:18:56Z</time>
      </trkpt>
      <trkpt lat="44.329" lon="0.71912">
        <ele>205.38</ele>
        <time>2023-05-28T09:19:02Z</time>
      </trkpt>
      <trkpt lat="44.32907" lon="0.71902">
        <ele>205.38</ele>
        <time>2023-05-28T09:19:09Z</time>
      </trkpt>
      <trkpt lat="44.32917" lon="0.71894">
        <ele>206.34</ele>
        <time>2023-05-28T09:19:17Z</time>
      </trkpt>
      <trkpt lat="44.32928" lon="0.71887">
        <ele>205.86</ele>
        <time>2023-05-28T09:19:26Z</time>
      </trkpt>
      <trkpt lat="44.32937" lon="0.71879">
        <ele>204.9</ele>
        <time>2023-05-28T09:19:34Z</time>
      </trkpt>
      <trkpt lat="44.32946" lon="0.71871">
        <ele>203.94</ele>
        <time>2023-05-28T09:19:42Z</time>
      </trkpt>
      <trkpt lat="44.32956" lon="0.71864">
        <ele>203.46</ele>
        <time>2023-05-28T09:19:49Z</time>
      </trkpt>
      <trkpt lat="44.32965" lon="0.71857">
        <ele>202.98</ele>
        <time>2023-05-28T09:19:56Z</time>
      </trkpt>
      <trkpt lat="44.32975" lon="0.71853">
        <ele>202.49</ele>
        <time>2023-05-28T09:20:05Z</time>
      </trkpt>
      <trkpt lat="44.32996" lon="0.7185">
        <ele>200.57</ele>
        <time>2023-05-28T09:20:26Z</time>
      </trkpt>
      <trkpt lat="44.33009" lon="0.7185">
        <ele>200.09</ele>
        <time>2023-05-28T09:20:36Z</time>
      </trkpt>
      <trkpt lat="44.33077" lon="0.71859">
        <ele>190.48</ele>
        <time>2023-05-28T09:21:33Z</time>
      </trkpt>
      <trkpt lat="44.33089" lon="0.71851">
        <ele>190.48</ele>
        <time>2023-05-28T09:21:41Z</time>
      </trkpt>
      <trkpt lat="44.33102" lon="0.71844">
        <ele>192.88</ele>
        <time>2023-05-28T09:21:48Z</time>
      </trkpt>
      <trkpt lat="44.33114" lon="0.71837">
        <ele>193.84</ele>
        <time>2023-05-28T09:21:56Z</time>
      </trkpt>
      <trkpt lat="44.33134" lon="0.71827">
        <ele>197.69</ele>
        <time>2023-05-28T09:22:15Z</time>
      </trkpt>
      <trkpt lat="44.33143" lon="0.71836">
        <ele>197.69</ele>
        <time>2023-05-28T09:22:34Z</time>
      </trkpt>
      <trkpt lat="44.33153" lon="0.71848">
        <ele>197.21</ele>
        <time>2023-05-28T09:22:44Z</time>
      </trkpt>
      <trkpt lat="44.33167" lon="0.71869">
        <ele>197.69</ele>
        <time>2023-05-28T09:23:19Z</time>
      </trkpt>
      <trkpt lat="44.33179" lon="0.7188">
        <ele>196.73</ele>
        <time>2023-05-28T09:23:56Z</time>
      </trkpt>
      <trkpt lat="44.3319" lon="0.71872">
        <ele>196.25</ele>
        <time>2023-05-28T09:24:07Z</time>
      </trkpt>
      <trkpt lat="44.33191" lon="0.71857">
        <ele>195.77</ele>
        <time>2023-05-28T09:24:14Z</time>
      </trkpt>
      <trkpt lat="44.33192" lon="0.71842">
        <ele>196.25</ele>
        <time>2023-05-28T09:24:22Z</time>
      </trkpt>
      <trkpt lat="44.33189" lon="0.71821">
        <ele>198.17</ele>
        <time>2023-05-28T09:24:31Z</time>
      </trkpt>
      <trkpt lat="44.33189" lon="0.71805">
        <ele>199.61</ele>
        <time>2023-05-28T09:24:38Z</time>
      </trkpt>
      <trkpt lat="44.33195" lon="0.71793">
        <ele>202.01</ele>
        <time>2023-05-28T09:24:47Z</time>
      </trkpt>
      <trkpt lat="44.33189" lon="0.71787">
        <ele>206.34</ele>
        <time>2023-05-28T09:25:21Z</time>
      </trkpt>
      <trkpt lat="44.33188" lon="0.71782">
        <ele>206.82</ele>
        <time>2023-05-28T09:32:51Z</time>
      </trkpt>
      <trkpt lat="44.33198" lon="0.71796">
        <ele>206.82</ele>
        <time>2023-05-28T09:39:47Z</time>
      </trkpt>
      <trkpt lat="44.33209" lon="0.71796">
        <ele>205.86</ele>
        <time>2023-05-28T09:39:55Z</time>
      </trkpt>
      <trkpt lat="44.33218" lon="0.71798">
        <ele>206.34</ele>
        <time>2023-05-28T09:40:03Z</time>
      </trkpt>
      <trkpt lat="44.33237" lon="0.71799">
        <ele>205.38</ele>
        <time>2023-05-28T09:40:20Z</time>
      </trkpt>
      <trkpt lat="44.33254" lon="0.71789">
        <ele>203.46</ele>
        <time>2023-05-28T09:40:34Z</time>
      </trkpt>
      <trkpt lat="44.33257" lon="0.71772">
        <ele>202.49</ele>
        <time>2023-05-28T09:40:42Z</time>
      </trkpt>
      <trkpt lat="44.33257" lon="0.71752">
        <ele>202.01</ele>
        <time>2023-05-28T09:40:51Z</time>
      </trkpt>
      <trkpt lat="44.33257" lon="0.71735">
        <ele>202.49</ele>
        <time>2023-05-28T09:40:59Z</time>
      </trkpt>
      <trkpt lat="44.33256" lon="0.7172">
        <ele>203.94</ele>
        <time>2023-05-28T09:41:07Z</time>
      </trkpt>
      <trkpt lat="44.33255" lon="0.71703">
        <ele>204.9</ele>
        <time>2023-05-28T09:41:16Z</time>
      </trkpt>
      <trkpt lat="44.33257" lon="0.71686">
        <ele>204.9</ele>
        <time>2023-05-28T09:41:24Z</time>
      </trkpt>
      <trkpt lat="44.33259" lon="0.71671">
        <ele>204.9</ele>
        <time>2023-05-28T09:41:40Z</time>
      </trkpt>
      <trkpt lat="44.33266" lon="0.71662">
        <ele>205.38</ele>
        <time>2023-05-28T09:41:48Z</time>
      </trkpt>
      <trkpt lat="44.33276" lon="0.7166">
        <ele>206.34</ele>
        <time>2023-05-28T09:41:55Z</time>
      </trkpt>
      <trkpt lat="44.33287" lon="0.71659">
        <ele>208.74</ele>
        <time>2023-05-28T09:42:02Z</time>
      </trkpt>
      <trkpt lat="44.33298" lon="0.71659">
        <ele>208.74</ele>
        <time>2023-05-28T09:42:09Z</time>
      </trkpt>
      <trkpt lat="44.33307" lon="0.71656">
        <ele>210.19</ele>
        <time>2023-05-28T09:42:16Z</time>
      </trkpt>
      <trkpt lat="44.33315" lon="0.71653">
        <ele>211.15</ele>
        <time>2023-05-28T09:42:23Z</time>
      </trkpt>
      <trkpt lat="44.33326" lon="0.71651">
        <ele>212.11</ele>
        <time>2023-05-28T09:42:32Z</time>
      </trkpt>
      <trkpt lat="44.33331" lon="0.7164">
        <ele>212.11</ele>
        <time>2023-05-28T09:42:40Z</time>
      </trkpt>
      <trkpt lat="44.33332" lon="0.71639">
        <ele>210.19</ele>
        <time>2023-05-28T09:43:15Z</time>
      </trkpt>
      <trkpt lat="44.33328" lon="0.71625">
        <ele>208.26</ele>
        <time>2023-05-28T09:43:26Z</time>
      </trkpt>
      <trkpt lat="44.33326" lon="0.71609">
        <ele>208.74</ele>
        <time>2023-05-28T09:43:33Z</time>
      </trkpt>
      <trkpt lat="44.33324" lon="0.71592">
        <ele>209.22</ele>
        <time>2023-05-28T09:43:40Z</time>
      </trkpt>
      <trkpt lat="44.33321" lon="0.71579">
        <ele>209.22</ele>
        <time>2023-05-28T09:43:46Z</time>
      </trkpt>
      <trkpt lat="44.3332" lon="0.71565">
        <ele>208.74</ele>
        <time>2023-05-28T09:43:53Z</time>
      </trkpt>
      <trkpt lat="44.33317" lon="0.7155">
        <ele>208.74</ele>
        <time>2023-05-28T09:44:01Z</time>
      </trkpt>
      <trkpt lat="44.33314" lon="0.71533">
        <ele>208.74</ele>
        <time>2023-05-28T09:44:09Z</time>
      </trkpt>
      <trkpt lat="44.33313" lon="0.71517">
        <ele>208.74</ele>
        <time>2023-05-28T09:44:16Z</time>
      </trkpt>
      <trkpt lat="44.33313" lon="0.71503">
        <ele>208.74</ele>
        <time>2023-05-28T09:44:22Z</time>
      </trkpt>
      <trkpt lat="44.33314" lon="0.71489">
        <ele>209.22</ele>
        <time>2023-05-28T09:44:29Z</time>
      </trkpt>
      <trkpt lat="44.33315" lon="0.71475">
        <ele>210.19</ele>
        <time>2023-05-28T09:44:36Z</time>
      </trkpt>
      <trkpt lat="44.33315" lon="0.7146">
        <ele>211.15</ele>
        <time>2023-05-28T09:44:43Z</time>
      </trkpt>
      <trkpt lat="44.33315" lon="0.71445">
        <ele>212.11</ele>
        <time>2023-05-28T09:44:50Z</time>
      </trkpt>
      <trkpt lat="44.33317" lon="0.71432">
        <ele>213.55</ele>
        <time>2023-05-28T09:44:57Z</time>
      </trkpt>
      <trkpt lat="44.33319" lon="0.71419">
        <ele>214.51</ele>
        <time>2023-05-28T09:45:04Z</time>
      </trkpt>
      <trkpt lat="44.33321" lon="0.71407">
        <ele>215.47</ele>
        <time>2023-05-28T09:45:12Z</time>
      </trkpt>
      <trkpt lat="44.33324" lon="0.71391">
        <ele>215.95</ele>
        <time>2023-05-28T09:45:20Z</time>
      </trkpt>
      <trkpt lat="44.33325" lon="0.71375">
        <ele>217.88</ele>
        <time>2023-05-28T09:45:28Z</time>
      </trkpt>
      <trkpt lat="44.33327" lon="0.71362">
        <ele>218.36</ele>
        <time>2023-05-28T09:45:34Z</time>
      </trkpt>
      <trkpt lat="44.33329" lon="0.71349">
        <ele>218.84</ele>
        <time>2023-05-28T09:45:41Z</time>
      </trkpt>
      <trkpt lat="44.33332" lon="0.71335">
        <ele>220.28</ele>
        <time>2023-05-28T09:45:48Z</time>
      </trkpt>
      <trkpt lat="44.33336" lon="0.7132">
        <ele>220.28</ele>
        <time>2023-05-28T09:45:55Z</time>
      </trkpt>
      <trkpt lat="44.3334" lon="0.71308">
        <ele>221.72</ele>
        <time>2023-05-28T09:46:02Z</time>
      </trkpt>
      <trkpt lat="44.33345" lon="0.71297">
        <ele>222.2</ele>
        <time>2023-05-28T09:46:09Z</time>
      </trkpt>
      <trkpt lat="44.33352" lon="0.71287">
        <ele>222.2</ele>
        <time>2023-05-28T09:46:16Z</time>
      </trkpt>
      <trkpt lat="44.3336" lon="0.7128">
        <ele>222.2</ele>
        <time>2023-05-28T09:46:22Z</time>
      </trkpt>
      <trkpt lat="44.33368" lon="0.71273">
        <ele>222.2</ele>
        <time>2023-05-28T09:46:28Z</time>
      </trkpt>
      <trkpt lat="44.33377" lon="0.71266">
        <ele>222.2</ele>
        <time>2023-05-28T09:46:34Z</time>
      </trkpt>
      <trkpt lat="44.33386" lon="0.7126">
        <ele>222.2</ele>
        <time>2023-05-28T09:46:40Z</time>
      </trkpt>
      <trkpt lat="44.33395" lon="0.71252">
        <ele>221.72</ele>
        <time>2023-05-28T09:46:47Z</time>
      </trkpt>
      <trkpt lat="44.33404" lon="0.71244">
        <ele>221.72</ele>
        <time>2023-05-28T09:46:53Z</time>
      </trkpt>
      <trkpt lat="44.33413" lon="0.71236">
        <ele>221.24</ele>
        <time>2023-05-28T09:47:00Z</time>
      </trkpt>
      <trkpt lat="44.3342" lon="0.71229">
        <ele>221.72</ele>
        <time>2023-05-28T09:47:06Z</time>
      </trkpt>
      <trkpt lat="44.33428" lon="0.71221">
        <ele>221.72</ele>
        <time>2023-05-28T09:47:12Z</time>
      </trkpt>
      <trkpt lat="44.33436" lon="0.71212">
        <ele>221.72</ele>
        <time>2023-05-28T09:47:19Z</time>
      </trkpt>
      <trkpt lat="44.33443" lon="0.71204">
        <ele>221.72</ele>
        <time>2023-05-28T09:47:25Z</time>
      </trkpt>
      <trkpt lat="44.33451" lon="0.71196">
        <ele>221.72</ele>
        <time>2023-05-28T09:47:32Z</time>
      </trkpt>
      <trkpt lat="44.33459" lon="0.71186">
        <ele>221.72</ele>
        <time>2023-05-28T09:47:39Z</time>
      </trkpt>
      <trkpt lat="44.33466" lon="0.71178">
        <ele>221.24</ele>
        <time>2023-05-28T09:47:45Z</time>
      </trkpt>
      <trkpt lat="44.33473" lon="0.71168">
        <ele>221.24</ele>
        <time>2023-05-28T09:47:52Z</time>
      </trkpt>
      <trkpt lat="44.33481" lon="0.71156">
        <ele>220.28</ele>
        <time>2023-05-28T09:47:59Z</time>
      </trkpt>
      <trkpt lat="44.33489" lon="0.71147">
        <ele>220.28</ele>
        <time>2023-05-28T09:48:05Z</time>
      </trkpt>
      <trkpt lat="44.33496" lon="0.71137">
        <ele>220.28</ele>
        <time>2023-05-28T09:48:12Z</time>
      </trkpt>
      <trkpt lat="44.33502" lon="0.71125">
        <ele>219.8</ele>
        <time>2023-05-28T09:48:19Z</time>
      </trkpt>
      <trkpt lat="44.33507" lon="0.71112">
        <ele>219.32</ele>
        <time>2023-05-28T09:48:25Z</time>
      </trkpt>
      <trkpt lat="44.33511" lon="0.71099">
        <ele>218.36</ele>
        <time>2023-05-28T09:48:31Z</time>
      </trkpt>
      <trkpt lat="44.33514" lon="0.71088">
        <ele>217.4</ele>
        <time>2023-05-28T09:48:37Z</time>
      </trkpt>
      <trkpt lat="44.33517" lon="0.71073">
        <ele>215.95</ele>
        <time>2023-05-28T09:48:47Z</time>
      </trkpt>
      <trkpt lat="44.33517" lon="0.71059">
        <ele>214.51</ele>
        <time>2023-05-28T09:48:54Z</time>
      </trkpt>
      <trkpt lat="44.33509" lon="0.71021">
        <ele>212.59</ele>
        <time>2023-05-28T09:49:15Z</time>
      </trkpt>
      <trkpt lat="44.33504" lon="0.71002">
        <ele>212.11</ele>
        <time>2023-05-28T09:49:22Z</time>
      </trkpt>
      <trkpt lat="44.33495" lon="0.71">
        <ele>212.59</ele>
        <time>2023-05-28T09:49:28Z</time>
      </trkpt>
      <trkpt lat="44.33485" lon="0.71003">
        <ele>213.07</ele>
        <time>2023-05-28T09:49:34Z</time>
      </trkpt>
      <trkpt lat="44.33476" lon="0.71007">
        <ele>213.55</ele>
        <time>2023-05-28T09:49:40Z</time>
      </trkpt>
      <trkpt lat="44.33466" lon="0.71011">
        <ele>214.51</ele>
        <time>2023-05-28T09:49:47Z</time>
      </trkpt>
      <trkpt lat="44.33457" lon="0.71012">
        <ele>215.47</ele>
        <time>2023-05-28T09:49:53Z</time>
      </trkpt>
      <trkpt lat="44.33447" lon="0.71008">
        <ele>215.47</ele>
        <time>2023-05-28T09:49:59Z</time>
      </trkpt>
      <trkpt lat="44.33439" lon="0.71">
        <ele>215.47</ele>
        <time>2023-05-28T09:50:05Z</time>
      </trkpt>
      <trkpt lat="44.33433" lon="0.70989">
        <ele>214.99</ele>
        <time>2023-05-28T09:50:11Z</time>
      </trkpt>
      <trkpt lat="44.33431" lon="0.70976">
        <ele>214.51</ele>
        <time>2023-05-28T09:50:17Z</time>
      </trkpt>
      <trkpt lat="44.33429" lon="0.70963">
        <ele>213.55</ele>
        <time>2023-05-28T09:50:22Z</time>
      </trkpt>
      <trkpt lat="44.33425" lon="0.70951">
        <ele>212.59</ele>
        <time>2023-05-28T09:50:28Z</time>
      </trkpt>
      <trkpt lat="44.33422" lon="0.70937">
        <ele>211.63</ele>
        <time>2023-05-28T09:50:34Z</time>
      </trkpt>
      <trkpt lat="44.33418" lon="0.70924">
        <ele>210.19</ele>
        <time>2023-05-28T09:50:40Z</time>
      </trkpt>
      <trkpt lat="44.33415" lon="0.7091">
        <ele>209.7</ele>
        <time>2023-05-28T09:50:46Z</time>
      </trkpt>
      <trkpt lat="44.33413" lon="0.70897">
        <ele>208.74</ele>
        <time>2023-05-28T09:50:52Z</time>
      </trkpt>
      <trkpt lat="44.33418" lon="0.70885">
        <ele>208.74</ele>
        <time>2023-05-28T09:50:58Z</time>
      </trkpt>
      <trkpt lat="44.33426" lon="0.70878">
        <ele>208.74</ele>
        <time>2023-05-28T09:51:04Z</time>
      </trkpt>
      <trkpt lat="44.33434" lon="0.70871">
        <ele>208.74</ele>
        <time>2023-05-28T09:51:10Z</time>
      </trkpt>
      <trkpt lat="44.33441" lon="0.70864">
        <ele>209.22</ele>
        <time>2023-05-28T09:51:17Z</time>
      </trkpt>
      <trkpt lat="44.33449" lon="0.70856">
        <ele>209.22</ele>
        <time>2023-05-28T09:51:24Z</time>
      </trkpt>
      <trkpt lat="44.33459" lon="0.70849">
        <ele>209.7</ele>
        <time>2023-05-28T09:51:31Z</time>
      </trkpt>
      <trkpt lat="44.33468" lon="0.70841">
        <ele>209.7</ele>
        <time>2023-05-28T09:51:39Z</time>
      </trkpt>
      <trkpt lat="44.33476" lon="0.70832">
        <ele>209.7</ele>
        <time>2023-05-28T09:51:47Z</time>
      </trkpt>
      <trkpt lat="44.33484" lon="0.70825">
        <ele>209.22</ele>
        <time>2023-05-28T09:51:54Z</time>
      </trkpt>
      <trkpt lat="44.33493" lon="0.70819">
        <ele>209.7</ele>
        <time>2023-05-28T09:51:59Z</time>
      </trkpt>
      <trkpt lat="44.33502" lon="0.70811">
        <ele>209.22</ele>
        <time>2023-05-28T09:52:02Z</time>
      </trkpt>
      <trkpt lat="44.33515" lon="0.70801">
        <ele>209.7</ele>
        <time>2023-05-28T09:52:05Z</time>
      </trkpt>
      <trkpt lat="44.33524" lon="0.70793">
        <ele>209.7</ele>
        <time>2023-05-28T09:52:07Z</time>
      </trkpt>
      <trkpt lat="44.33534" lon="0.70785">
        <ele>210.19</ele>
        <time>2023-05-28T09:52:09Z</time>
      </trkpt>
      <trkpt lat="44.33544" lon="0.70778">
        <ele>210.19</ele>
        <time>2023-05-28T09:52:11Z</time>
      </trkpt>
      <trkpt lat="44.33553" lon="0.7077">
        <ele>210.67</ele>
        <time>2023-05-28T09:52:13Z</time>
      </trkpt>
      <trkpt lat="44.33562" lon="0.70763">
        <ele>211.15</ele>
        <time>2023-05-28T09:52:15Z</time>
      </trkpt>
      <trkpt lat="44.33571" lon="0.70756">
        <ele>212.11</ele>
        <time>2023-05-28T09:52:17Z</time>
      </trkpt>
      <trkpt lat="44.33581" lon="0.70749">
        <ele>212.59</ele>
        <time>2023-05-28T09:52:19Z</time>
      </trkpt>
      <trkpt lat="44.3359" lon="0.70742">
        <ele>213.07</ele>
        <time>2023-05-28T09:52:21Z</time>
      </trkpt>
      <trkpt lat="44.336" lon="0.70735">
        <ele>213.55</ele>
        <time>2023-05-28T09:52:23Z</time>
      </trkpt>
      <trkpt lat="44.3361" lon="0.70728">
        <ele>214.03</ele>
        <time>2023-05-28T09:52:25Z</time>
      </trkpt>
      <trkpt lat="44.33619" lon="0.70722">
        <ele>214.51</ele>
        <time>2023-05-28T09:52:27Z</time>
      </trkpt>
      <trkpt lat="44.33628" lon="0.70716">
        <ele>215.47</ele>
        <time>2023-05-28T09:52:29Z</time>
      </trkpt>
      <trkpt lat="44.33638" lon="0.70708">
        <ele>215.95</ele>
        <time>2023-05-28T09:52:31Z</time>
      </trkpt>
      <trkpt lat="44.33647" lon="0.70701">
        <ele>217.4</ele>
        <time>2023-05-28T09:52:33Z</time>
      </trkpt>
      <trkpt lat="44.33655" lon="0.70695">
        <ele>218.36</ele>
        <time>2023-05-28T09:52:35Z</time>
      </trkpt>
      <trkpt lat="44.33664" lon="0.70687">
        <ele>218.84</ele>
        <time>2023-05-28T09:52:37Z</time>
      </trkpt>
      <trkpt lat="44.33672" lon="0.7068">
        <ele>220.28</ele>
        <time>2023-05-28T09:52:39Z</time>
      </trkpt>
      <trkpt lat="44.33681" lon="0.70673">
        <ele>220.76</ele>
        <time>2023-05-28T09:52:41Z</time>
      </trkpt>
      <trkpt lat="44.33689" lon="0.70666">
        <ele>221.72</ele>
        <time>2023-05-28T09:52:43Z</time>
      </trkpt>
      <trkpt lat="44.33698" lon="0.70659">
        <ele>222.68</ele>
        <time>2023-05-28T09:52:46Z</time>
      </trkpt>
      <trkpt lat="44.33706" lon="0.70654">
        <ele>223.64</ele>
        <time>2023-05-28T09:52:51Z</time>
      </trkpt>
      <trkpt lat="44.33716" lon="0.7065">
        <ele>224.12</ele>
        <time>2023-05-28T09:52:57Z</time>
      </trkpt>
      <trkpt lat="44.33726" lon="0.70646">
        <ele>224.61</ele>
        <time>2023-05-28T09:53:03Z</time>
      </trkpt>
      <trkpt lat="44.33734" lon="0.70641">
        <ele>224.61</ele>
        <time>2023-05-28T09:53:09Z</time>
      </trkpt>
      <trkpt lat="44.33744" lon="0.70636">
        <ele>224.12</ele>
        <time>2023-05-28T09:53:16Z</time>
      </trkpt>
      <trkpt lat="44.33754" lon="0.7063">
        <ele>223.16</ele>
        <time>2023-05-28T09:53:22Z</time>
      </trkpt>
      <trkpt lat="44.33764" lon="0.70625">
        <ele>221.72</ele>
        <time>2023-05-28T09:53:28Z</time>
      </trkpt>
      <trkpt lat="44.33773" lon="0.7062">
        <ele>219.8</ele>
        <time>2023-05-28T09:53:34Z</time>
      </trkpt>
      <trkpt lat="44.33782" lon="0.70614">
        <ele>218.36</ele>
        <time>2023-05-28T09:53:40Z</time>
      </trkpt>
      <trkpt lat="44.33792" lon="0.70608">
        <ele>217.88</ele>
        <time>2023-05-28T09:53:46Z</time>
      </trkpt>
      <trkpt lat="44.33801" lon="0.70603">
        <ele>216.91</ele>
        <time>2023-05-28T09:53:52Z</time>
      </trkpt>
      <trkpt lat="44.33811" lon="0.70599">
        <ele>216.43</ele>
        <time>2023-05-28T09:53:58Z</time>
      </trkpt>
      <trkpt lat="44.33821" lon="0.70593">
        <ele>215.47</ele>
        <time>2023-05-28T09:54:04Z</time>
      </trkpt>
      <trkpt lat="44.3383" lon="0.70588">
        <ele>214.99</ele>
        <time>2023-05-28T09:54:10Z</time>
      </trkpt>
      <trkpt lat="44.33839" lon="0.70583">
        <ele>214.51</ele>
        <time>2023-05-28T09:54:16Z</time>
      </trkpt>
      <trkpt lat="44.33848" lon="0.70577">
        <ele>214.51</ele>
        <time>2023-05-28T09:54:22Z</time>
      </trkpt>
      <trkpt lat="44.33858" lon="0.70572">
        <ele>214.51</ele>
        <time>2023-05-28T09:54:28Z</time>
      </trkpt>
      <trkpt lat="44.33867" lon="0.70567">
        <ele>214.03</ele>
        <time>2023-05-28T09:54:34Z</time>
      </trkpt>
      <trkpt lat="44.33876" lon="0.70562">
        <ele>211.63</ele>
        <time>2023-05-28T09:54:40Z</time>
      </trkpt>
      <trkpt lat="44.33885" lon="0.70557">
        <ele>210.67</ele>
        <time>2023-05-28T09:54:46Z</time>
      </trkpt>
      <trkpt lat="44.33894" lon="0.70552">
        <ele>210.19</ele>
        <time>2023-05-28T09:54:52Z</time>
      </trkpt>
      <trkpt lat="44.33903" lon="0.70547">
        <ele>209.7</ele>
        <time>2023-05-28T09:54:58Z</time>
      </trkpt>
      <trkpt lat="44.33912" lon="0.70542">
        <ele>209.7</ele>
        <time>2023-05-28T09:55:04Z</time>
      </trkpt>
      <trkpt lat="44.33921" lon="0.70537">
        <ele>209.22</ele>
        <time>2023-05-28T09:55:10Z</time>
      </trkpt>
      <trkpt lat="44.3393" lon="0.70532">
        <ele>208.74</ele>
        <time>2023-05-28T09:55:16Z</time>
      </trkpt>
      <trkpt lat="44.33939" lon="0.70527">
        <ele>208.26</ele>
        <time>2023-05-28T09:55:22Z</time>
      </trkpt>
      <trkpt lat="44.33948" lon="0.70522">
        <ele>208.26</ele>
        <time>2023-05-28T09:55:28Z</time>
      </trkpt>
      <trkpt lat="44.33958" lon="0.70517">
        <ele>207.78</ele>
        <time>2023-05-28T09:55:34Z</time>
      </trkpt>
      <trkpt lat="44.33966" lon="0.70512">
        <ele>207.78</ele>
        <time>2023-05-28T09:55:40Z</time>
      </trkpt>
      <trkpt lat="44.33973" lon="0.70503">
        <ele>207.78</ele>
        <time>2023-05-28T09:55:47Z</time>
      </trkpt>
      <trkpt lat="44.33972" lon="0.70489">
        <ele>207.3</ele>
        <time>2023-05-28T09:55:54Z</time>
      </trkpt>
      <trkpt lat="44.3397" lon="0.70476">
        <ele>206.34</ele>
        <time>2023-05-28T09:56:00Z</time>
      </trkpt>
      <trkpt lat="44.33968" lon="0.70462">
        <ele>206.34</ele>
        <time>2023-05-28T09:56:06Z</time>
      </trkpt>
      <trkpt lat="44.33966" lon="0.70448">
        <ele>205.86</ele>
        <time>2023-05-28T09:56:13Z</time>
      </trkpt>
      <trkpt lat="44.33963" lon="0.70434">
        <ele>205.86</ele>
        <time>2023-05-28T09:56:20Z</time>
      </trkpt>
      <trkpt lat="44.33961" lon="0.7042">
        <ele>205.38</ele>
        <time>2023-05-28T09:56:27Z</time>
      </trkpt>
      <trkpt lat="44.33959" lon="0.70405">
        <ele>204.9</ele>
        <time>2023-05-28T09:56:34Z</time>
      </trkpt>
      <trkpt lat="44.33956" lon="0.70391">
        <ele>203.94</ele>
        <time>2023-05-28T09:56:41Z</time>
      </trkpt>
      <trkpt lat="44.33954" lon="0.70376">
        <ele>203.46</ele>
        <time>2023-05-28T09:56:48Z</time>
      </trkpt>
      <trkpt lat="44.33954" lon="0.70361">
        <ele>202.49</ele>
        <time>2023-05-28T09:56:54Z</time>
      </trkpt>
      <trkpt lat="44.33951" lon="0.70347">
        <ele>202.01</ele>
        <time>2023-05-28T09:57:01Z</time>
      </trkpt>
      <trkpt lat="44.3395" lon="0.70333">
        <ele>201.05</ele>
        <time>2023-05-28T09:57:08Z</time>
      </trkpt>
      <trkpt lat="44.33956" lon="0.7032">
        <ele>200.57</ele>
        <time>2023-05-28T09:57:16Z</time>
      </trkpt>
      <trkpt lat="44.33962" lon="0.70308">
        <ele>199.13</ele>
        <time>2023-05-28T09:57:24Z</time>
      </trkpt>
      <trkpt lat="44.33974" lon="0.70282">
        <ele>197.69</ele>
        <time>2023-05-28T09:58:30Z</time>
      </trkpt>
      <trkpt lat="44.33979" lon="0.70269">
        <ele>196.73</ele>
        <time>2023-05-28T09:58:37Z</time>
      </trkpt>
      <trkpt lat="44.33986" lon="0.7025">
        <ele>195.28</ele>
        <time>2023-05-28T09:58:51Z</time>
      </trkpt>
      <trkpt lat="44.34029" lon="0.702">
        <ele>186.15</ele>
        <time>2023-05-28T09:59:33Z</time>
      </trkpt>
      <trkpt lat="44.34036" lon="0.70185">
        <ele>182.31</ele>
        <time>2023-05-28T09:59:43Z</time>
      </trkpt>
      <trkpt lat="44.34024" lon="0.70171">
        <ele>180.87</ele>
        <time>2023-05-28T10:00:31Z</time>
      </trkpt>
      <trkpt lat="44.34012" lon="0.70162">
        <ele>180.38</ele>
        <time>2023-05-28T10:00:43Z</time>
      </trkpt>
      <trkpt lat="44.34005" lon="0.70149">
        <ele>179.9</ele>
        <time>2023-05-28T10:00:53Z</time>
      </trkpt>
      <trkpt lat="44.34" lon="0.70135">
        <ele>179.9</ele>
        <time>2023-05-28T10:01:02Z</time>
      </trkpt>
      <trkpt lat="44.33992" lon="0.70113">
        <ele>178.94</ele>
        <time>2023-05-28T10:01:13Z</time>
      </trkpt>
      <trkpt lat="44.3398" lon="0.70089">
        <ele>177.02</ele>
        <time>2023-05-28T10:01:25Z</time>
      </trkpt>
      <trkpt lat="44.33976" lon="0.70072">
        <ele>176.54</ele>
        <time>2023-05-28T10:01:33Z</time>
      </trkpt>
      <trkpt lat="44.33969" lon="0.70061">
        <ele>176.06</ele>
        <time>2023-05-28T10:01:40Z</time>
      </trkpt>
      <trkpt lat="44.33958" lon="0.70057">
        <ele>176.54</ele>
        <time>2023-05-28T10:01:49Z</time>
      </trkpt>
      <trkpt lat="44.33944" lon="0.70035">
        <ele>176.54</ele>
        <time>2023-05-28T10:02:03Z</time>
      </trkpt>
      <trkpt lat="44.33937" lon="0.70022">
        <ele>176.06</ele>
        <time>2023-05-28T10:02:10Z</time>
      </trkpt>
      <trkpt lat="44.33934" lon="0.70007">
        <ele>174.62</ele>
        <time>2023-05-28T10:02:19Z</time>
      </trkpt>
      <trkpt lat="44.33941" lon="0.69988">
        <ele>175.1</ele>
        <time>2023-05-28T10:02:29Z</time>
      </trkpt>
      <trkpt lat="44.33946" lon="0.69965">
        <ele>177.98</ele>
        <time>2023-05-28T10:02:41Z</time>
      </trkpt>
      <trkpt lat="44.33951" lon="0.69942">
        <ele>187.59</ele>
        <time>2023-05-28T10:02:53Z</time>
      </trkpt>
      <trkpt lat="44.33955" lon="0.69926">
        <ele>188.08</ele>
        <time>2023-05-28T10:03:01Z</time>
      </trkpt>
      <trkpt lat="44.33958" lon="0.69906">
        <ele>186.63</ele>
        <time>2023-05-28T10:03:11Z</time>
      </trkpt>
      <trkpt lat="44.3396" lon="0.69891">
        <ele>186.15</ele>
        <time>2023-05-28T10:03:20Z</time>
      </trkpt>
      <trkpt lat="44.33956" lon="0.69873">
        <ele>185.67</ele>
        <time>2023-05-28T10:03:29Z</time>
      </trkpt>
      <trkpt lat="44.33947" lon="0.69868">
        <ele>185.19</ele>
        <time>2023-05-28T10:03:35Z</time>
      </trkpt>
      <trkpt lat="44.33936" lon="0.69865">
        <ele>183.75</ele>
        <time>2023-05-28T10:03:45Z</time>
      </trkpt>
      <trkpt lat="44.33926" lon="0.6985">
        <ele>183.27</ele>
        <time>2023-05-28T10:03:54Z</time>
      </trkpt>
      <trkpt lat="44.33916" lon="0.69838">
        <ele>183.75</ele>
        <time>2023-05-28T10:04:02Z</time>
      </trkpt>
      <trkpt lat="44.33911" lon="0.69824">
        <ele>179.42</ele>
        <time>2023-05-28T10:04:13Z</time>
      </trkpt>
      <trkpt lat="44.33905" lon="0.69811">
        <ele>176.06</ele>
        <time>2023-05-28T10:04:21Z</time>
      </trkpt>
      <trkpt lat="44.33895" lon="0.69803">
        <ele>170.77</ele>
        <time>2023-05-28T10:04:32Z</time>
      </trkpt>
      <trkpt lat="44.33848" lon="0.69751">
        <ele>160.68</ele>
        <time>2023-05-28T10:05:20Z</time>
      </trkpt>
      <trkpt lat="44.33836" lon="0.69709">
        <ele>166.93</ele>
        <time>2023-05-28T10:05:38Z</time>
      </trkpt>
      <trkpt lat="44.3388" lon="0.69655">
        <ele>168.37</ele>
        <time>2023-05-28T10:06:39Z</time>
      </trkpt>
      <trkpt lat="44.33907" lon="0.6963">
        <ele>168.37</ele>
        <time>2023-05-28T10:07:07Z</time>
      </trkpt>
      <trkpt lat="44.33935" lon="0.69628">
        <ele>167.41</ele>
        <time>2023-05-28T10:07:33Z</time>
      </trkpt>
      <trkpt lat="44.33947" lon="0.69603">
        <ele>145.78</ele>
        <time>2023-05-28T10:08:49Z</time>
      </trkpt>
      <trkpt lat="44.33938" lon="0.69592">
        <ele>145.3</ele>
        <time>2023-05-28T10:08:57Z</time>
      </trkpt>
      <trkpt lat="44.33927" lon="0.69579">
        <ele>144.82</ele>
        <time>2023-05-28T10:09:05Z</time>
      </trkpt>
      <trkpt lat="44.33917" lon="0.69568">
        <ele>144.34</ele>
        <time>2023-05-28T10:09:13Z</time>
      </trkpt>
      <trkpt lat="44.33906" lon="0.69554">
        <ele>144.34</ele>
        <time>2023-05-28T10:09:22Z</time>
      </trkpt>
      <trkpt lat="44.33898" lon="0.6954">
        <ele>144.34</ele>
        <time>2023-05-28T10:09:30Z</time>
      </trkpt>
      <trkpt lat="44.3388" lon="0.695">
        <ele>150.1</ele>
        <time>2023-05-28T10:09:54Z</time>
      </trkpt>
      <trkpt lat="44.33866" lon="0.69431">
        <ele>144.82</ele>
        <time>2023-05-28T10:10:38Z</time>
      </trkpt>
      <trkpt lat="44.33866" lon="0.69411">
        <ele>142.41</ele>
        <time>2023-05-28T10:10:46Z</time>
      </trkpt>
      <trkpt lat="44.33872" lon="0.69386">
        <ele>143.37</ele>
        <time>2023-05-28T10:10:54Z</time>
      </trkpt>
      <trkpt lat="44.33883" lon="0.69358">
        <ele>146.74</ele>
        <time>2023-05-28T10:11:06Z</time>
      </trkpt>
      <trkpt lat="44.33888" lon="0.69338">
        <ele>147.22</ele>
        <time>2023-05-28T10:11:15Z</time>
      </trkpt>
      <trkpt lat="44.33892" lon="0.69317">
        <ele>149.62</ele>
        <time>2023-05-28T10:11:25Z</time>
      </trkpt>
      <trkpt lat="44.33892" lon="0.69295">
        <ele>150.58</ele>
        <time>2023-05-28T10:11:34Z</time>
      </trkpt>
      <trkpt lat="44.33891" lon="0.69271">
        <ele>149.62</ele>
        <time>2023-05-28T10:11:44Z</time>
      </trkpt>
      <trkpt lat="44.33896" lon="0.69238">
        <ele>150.58</ele>
        <time>2023-05-28T10:11:58Z</time>
      </trkpt>
      <trkpt lat="44.33901" lon="0.69217">
        <ele>151.54</ele>
        <time>2023-05-28T10:12:07Z</time>
      </trkpt>
      <trkpt lat="44.33916" lon="0.69155">
        <ele>147.22</ele>
        <time>2023-05-28T10:12:40Z</time>
      </trkpt>
      <trkpt lat="44.33917" lon="0.69139">
        <ele>145.3</ele>
        <time>2023-05-28T10:12:48Z</time>
      </trkpt>
      <trkpt lat="44.33918" lon="0.6912">
        <ele>144.82</ele>
        <time>2023-05-28T10:12:55Z</time>
      </trkpt>
      <trkpt lat="44.33918" lon="0.69104">
        <ele>143.85</ele>
        <time>2023-05-28T10:13:03Z</time>
      </trkpt>
      <trkpt lat="44.33918" lon="0.69077">
        <ele>140.97</ele>
        <time>2023-05-28T10:13:19Z</time>
      </trkpt>
      <trkpt lat="44.33918" lon="0.69058">
        <ele>139.53</ele>
        <time>2023-05-28T10:13:27Z</time>
      </trkpt>
      <trkpt lat="44.33916" lon="0.69042">
        <ele>139.53</ele>
        <time>2023-05-28T10:13:34Z</time>
      </trkpt>
      <trkpt lat="44.33912" lon="0.69026">
        <ele>140.97</ele>
        <time>2023-05-28T10:13:41Z</time>
      </trkpt>
      <trkpt lat="44.33908" lon="0.69012">
        <ele>140.97</ele>
        <time>2023-05-28T10:13:48Z</time>
      </trkpt>
      <trkpt lat="44.33904" lon="0.68998">
        <ele>140.49</ele>
        <time>2023-05-28T10:13:56Z</time>
      </trkpt>
      <trkpt lat="44.33901" lon="0.68985">
        <ele>140.97</ele>
        <time>2023-05-28T10:14:02Z</time>
      </trkpt>
      <trkpt lat="44.33897" lon="0.6897">
        <ele>140.49</ele>
        <time>2023-05-28T10:14:09Z</time>
      </trkpt>
      <trkpt lat="44.33892" lon="0.68957">
        <ele>140.01</ele>
        <time>2023-05-28T10:14:16Z</time>
      </trkpt>
      <trkpt lat="44.33888" lon="0.68944">
        <ele>138.09</ele>
        <time>2023-05-28T10:14:24Z</time>
      </trkpt>
      <trkpt lat="44.33885" lon="0.68933">
        <ele>135.2</ele>
        <time>2023-05-28T10:14:31Z</time>
      </trkpt>
      <trkpt lat="44.33881" lon="0.68921">
        <ele>132.8</ele>
        <time>2023-05-28T10:14:38Z</time>
      </trkpt>
      <trkpt lat="44.33876" lon="0.68908">
        <ele>129.92</ele>
        <time>2023-05-28T10:14:45Z</time>
      </trkpt>
      <trkpt lat="44.3387" lon="0.68896">
        <ele>125.59</ele>
        <time>2023-05-28T10:14:54Z</time>
      </trkpt>
      <trkpt lat="44.33865" lon="0.68883">
        <ele>123.19</ele>
        <time>2023-05-28T10:15:01Z</time>
      </trkpt>
      <trkpt lat="44.3386" lon="0.68871">
        <ele>123.19</ele>
        <time>2023-05-28T10:15:06Z</time>
      </trkpt>
      <trkpt lat="44.33856" lon="0.68859">
        <ele>122.71</ele>
        <time>2023-05-28T10:15:13Z</time>
      </trkpt>
      <trkpt lat="44.33852" lon="0.68849">
        <ele>120.78</ele>
        <time>2023-05-28T10:15:19Z</time>
      </trkpt>
      <trkpt lat="44.33848" lon="0.68837">
        <ele>120.3</ele>
        <time>2023-05-28T10:15:26Z</time>
      </trkpt>
      <trkpt lat="44.33845" lon="0.68823">
        <ele>119.82</ele>
        <time>2023-05-28T10:15:32Z</time>
      </trkpt>
      <trkpt lat="44.33842" lon="0.6881">
        <ele>118.38</ele>
        <time>2023-05-28T10:15:38Z</time>
      </trkpt>
      <trkpt lat="44.33841" lon="0.68797">
        <ele>116.94</ele>
        <time>2023-05-28T10:15:43Z</time>
      </trkpt>
      <trkpt lat="44.33839" lon="0.68786">
        <ele>115.5</ele>
        <time>2023-05-28T10:15:48Z</time>
      </trkpt>
      <trkpt lat="44.33839" lon="0.68773">
        <ele>114.05</ele>
        <time>2023-05-28T10:15:54Z</time>
      </trkpt>
      <trkpt lat="44.33837" lon="0.68759">
        <ele>112.13</ele>
        <time>2023-05-28T10:16:01Z</time>
      </trkpt>
      <trkpt lat="44.33836" lon="0.68745">
        <ele>109.73</ele>
        <time>2023-05-28T10:16:08Z</time>
      </trkpt>
      <trkpt lat="44.33834" lon="0.68732">
        <ele>107.32</ele>
        <time>2023-05-28T10:16:15Z</time>
      </trkpt>
      <trkpt lat="44.33842" lon="0.6871">
        <ele>103.96</ele>
        <time>2023-05-28T10:16:34Z</time>
      </trkpt>
      <trkpt lat="44.33855" lon="0.68706">
        <ele>104.92</ele>
        <time>2023-05-28T10:16:40Z</time>
      </trkpt>
      <trkpt lat="44.33864" lon="0.68703">
        <ele>108.77</ele>
        <time>2023-05-28T10:16:46Z</time>
      </trkpt>
      <trkpt lat="44.33873" lon="0.687">
        <ele>109.25</ele>
        <time>2023-05-28T10:16:52Z</time>
      </trkpt>
      <trkpt lat="44.33883" lon="0.68698">
        <ele>108.77</ele>
        <time>2023-05-28T10:16:59Z</time>
      </trkpt>
      <trkpt lat="44.33892" lon="0.68694">
        <ele>108.77</ele>
        <time>2023-05-28T10:17:05Z</time>
      </trkpt>
      <trkpt lat="44.33903" lon="0.6869">
        <ele>108.77</ele>
        <time>2023-05-28T10:17:12Z</time>
      </trkpt>
      <trkpt lat="44.33914" lon="0.68686">
        <ele>108.29</ele>
        <time>2023-05-28T10:17:19Z</time>
      </trkpt>
      <trkpt lat="44.33925" lon="0.68683">
        <ele>108.77</ele>
        <time>2023-05-28T10:17:26Z</time>
      </trkpt>
      <trkpt lat="44.33935" lon="0.6868">
        <ele>108.77</ele>
        <time>2023-05-28T10:17:32Z</time>
      </trkpt>
      <trkpt lat="44.33944" lon="0.68676">
        <ele>108.77</ele>
        <time>2023-05-28T10:17:38Z</time>
      </trkpt>
      <trkpt lat="44.33954" lon="0.68673">
        <ele>109.25</ele>
        <time>2023-05-28T10:17:45Z</time>
      </trkpt>
      <trkpt lat="44.33964" lon="0.68668">
        <ele>109.25</ele>
        <time>2023-05-28T10:17:52Z</time>
      </trkpt>
      <trkpt lat="44.33973" lon="0.68662">
        <ele>108.77</ele>
        <time>2023-05-28T10:17:59Z</time>
      </trkpt>
      <trkpt lat="44.33983" lon="0.68655">
        <ele>108.77</ele>
        <time>2023-05-28T10:18:06Z</time>
      </trkpt>
      <trkpt lat="44.33992" lon="0.68649">
        <ele>108.29</ele>
        <time>2023-05-28T10:18:12Z</time>
      </trkpt>
      <trkpt lat="44.34002" lon="0.68643">
        <ele>107.81</ele>
        <time>2023-05-28T10:18:18Z</time>
      </trkpt>
      <trkpt lat="44.34011" lon="0.68637">
        <ele>107.81</ele>
        <time>2023-05-28T10:18:24Z</time>
      </trkpt>
      <trkpt lat="44.34021" lon="0.6863">
        <ele>107.81</ele>
        <time>2023-05-28T10:18:30Z</time>
      </trkpt>
      <trkpt lat="44.34029" lon="0.68624">
        <ele>107.32</ele>
        <time>2023-05-28T10:18:36Z</time>
      </trkpt>
      <trkpt lat="44.34038" lon="0.68617">
        <ele>107.32</ele>
        <time>2023-05-28T10:18:42Z</time>
      </trkpt>
      <trkpt lat="44.34047" lon="0.68611">
        <ele>107.32</ele>
        <time>2023-05-28T10:18:49Z</time>
      </trkpt>
      <trkpt lat="44.34056" lon="0.68606">
        <ele>107.32</ele>
        <time>2023-05-28T10:18:57Z</time>
      </trkpt>
      <trkpt lat="44.34064" lon="0.68599">
        <ele>106.36</ele>
        <time>2023-05-28T10:19:11Z</time>
      </trkpt>
      <trkpt lat="44.34072" lon="0.68592">
        <ele>106.36</ele>
        <time>2023-05-28T10:19:17Z</time>
      </trkpt>
      <trkpt lat="44.34082" lon="0.68586">
        <ele>106.84</ele>
        <time>2023-05-28T10:19:23Z</time>
      </trkpt>
      <trkpt lat="44.34091" lon="0.68579">
        <ele>106.36</ele>
        <time>2023-05-28T10:19:29Z</time>
      </trkpt>
      <trkpt lat="44.34099" lon="0.68573">
        <ele>106.36</ele>
        <time>2023-05-28T10:19:35Z</time>
      </trkpt>
      <trkpt lat="44.34108" lon="0.68566">
        <ele>106.36</ele>
        <time>2023-05-28T10:19:42Z</time>
      </trkpt>
      <trkpt lat="44.34117" lon="0.6856">
        <ele>106.36</ele>
        <time>2023-05-28T10:19:48Z</time>
      </trkpt>
      <trkpt lat="44.34125" lon="0.68554">
        <ele>105.88</ele>
        <time>2023-05-28T10:19:54Z</time>
      </trkpt>
      <trkpt lat="44.34136" lon="0.68547">
        <ele>105.4</ele>
        <time>2023-05-28T10:20:01Z</time>
      </trkpt>
      <trkpt lat="44.34144" lon="0.68541">
        <ele>105.4</ele>
        <time>2023-05-28T10:20:07Z</time>
      </trkpt>
      <trkpt lat="44.34153" lon="0.68535">
        <ele>105.4</ele>
        <time>2023-05-28T10:20:13Z</time>
      </trkpt>
      <trkpt lat="44.34162" lon="0.68528">
        <ele>105.4</ele>
        <time>2023-05-28T10:20:20Z</time>
      </trkpt>
      <trkpt lat="44.34171" lon="0.68522">
        <ele>105.4</ele>
        <time>2023-05-28T10:20:27Z</time>
      </trkpt>
      <trkpt lat="44.34179" lon="0.68514">
        <ele>105.4</ele>
        <time>2023-05-28T10:20:34Z</time>
      </trkpt>
      <trkpt lat="44.34191" lon="0.68508">
        <ele>105.88</ele>
        <time>2023-05-28T10:20:43Z</time>
      </trkpt>
      <trkpt lat="44.34201" lon="0.68512">
        <ele>104.92</ele>
        <time>2023-05-28T10:20:51Z</time>
      </trkpt>
      <trkpt lat="44.34206" lon="0.68501">
        <ele>103.96</ele>
        <time>2023-05-28T10:20:59Z</time>
      </trkpt>
      <trkpt lat="44.34214" lon="0.68489">
        <ele>104.44</ele>
        <time>2023-05-28T10:21:07Z</time>
      </trkpt>
      <trkpt lat="44.34224" lon="0.68478">
        <ele>104.92</ele>
        <time>2023-05-28T10:21:14Z</time>
      </trkpt>
      <trkpt lat="44.34232" lon="0.68467">
        <ele>104.92</ele>
        <time>2023-05-28T10:21:21Z</time>
      </trkpt>
      <trkpt lat="44.34239" lon="0.68457">
        <ele>104.92</ele>
        <time>2023-05-28T10:21:27Z</time>
      </trkpt>
      <trkpt lat="44.34246" lon="0.68447">
        <ele>104.92</ele>
        <time>2023-05-28T10:21:33Z</time>
      </trkpt>
      <trkpt lat="44.34254" lon="0.68436">
        <ele>104.92</ele>
        <time>2023-05-28T10:21:40Z</time>
      </trkpt>
      <trkpt lat="44.3426" lon="0.68426">
        <ele>104.92</ele>
        <time>2023-05-28T10:21:46Z</time>
      </trkpt>
      <trkpt lat="44.34268" lon="0.68418">
        <ele>105.4</ele>
        <time>2023-05-28T10:21:53Z</time>
      </trkpt>
      <trkpt lat="44.34277" lon="0.6841">
        <ele>104.92</ele>
        <time>2023-05-28T10:21:59Z</time>
      </trkpt>
      <trkpt lat="44.34286" lon="0.68403">
        <ele>105.4</ele>
        <time>2023-05-28T10:22:05Z</time>
      </trkpt>
      <trkpt lat="44.34294" lon="0.68396">
        <ele>104.92</ele>
        <time>2023-05-28T10:22:11Z</time>
      </trkpt>
      <trkpt lat="44.34285" lon="0.68383">
        <ele>105.4</ele>
        <time>2023-05-28T10:22:31Z</time>
      </trkpt>
      <trkpt lat="44.34288" lon="0.68371">
        <ele>105.88</ele>
        <time>2023-05-28T10:22:40Z</time>
      </trkpt>
      <trkpt lat="44.34295" lon="0.68361">
        <ele>105.88</ele>
        <time>2023-05-28T10:22:47Z</time>
      </trkpt>
      <trkpt lat="44.34303" lon="0.68351">
        <ele>105.88</ele>
        <time>2023-05-28T10:22:53Z</time>
      </trkpt>
      <trkpt lat="44.3431" lon="0.6834">
        <ele>105.4</ele>
        <time>2023-05-28T10:22:59Z</time>
      </trkpt>
      <trkpt lat="44.34319" lon="0.68329">
        <ele>105.4</ele>
        <time>2023-05-28T10:23:05Z</time>
      </trkpt>
      <trkpt lat="44.34327" lon="0.68319">
        <ele>105.4</ele>
        <time>2023-05-28T10:23:11Z</time>
      </trkpt>
      <trkpt lat="44.34336" lon="0.68307">
        <ele>105.4</ele>
        <time>2023-05-28T10:23:18Z</time>
      </trkpt>
      <trkpt lat="44.34343" lon="0.68296">
        <ele>105.4</ele>
        <time>2023-05-28T10:23:25Z</time>
      </trkpt>
      <trkpt lat="44.34352" lon="0.68285">
        <ele>104.92</ele>
        <time>2023-05-28T10:23:32Z</time>
      </trkpt>
      <trkpt lat="44.34361" lon="0.68267">
        <ele>103.96</ele>
        <time>2023-05-28T10:23:55Z</time>
      </trkpt>
      <trkpt lat="44.34367" lon="0.68254">
        <ele>103.48</ele>
        <time>2023-05-28T10:24:04Z</time>
      </trkpt>
      <trkpt lat="44.34371" lon="0.6824">
        <ele>103.48</ele>
        <time>2023-05-28T10:24:13Z</time>
      </trkpt>
      <trkpt lat="44.34374" lon="0.68232">
        <ele>103.48</ele>
        <time>2023-05-28T10:24:35Z</time>
      </trkpt>
      <trkpt lat="44.34368" lon="0.68245">
        <ele>103.96</ele>
        <time>2023-05-28T10:24:43Z</time>
      </trkpt>
      <trkpt lat="44.34362" lon="0.68258">
        <ele>103.96</ele>
        <time>2023-05-28T10:24:50Z</time>
      </trkpt>
      <trkpt lat="44.34364" lon="0.68267">
        <ele>103.48</ele>
        <time>2023-05-28T10:24:58Z</time>
      </trkpt>
      <trkpt lat="44.34373" lon="0.68263">
        <ele>103.48</ele>
        <time>2023-05-28T10:25:05Z</time>
      </trkpt>
      <trkpt lat="44.34381" lon="0.68256">
        <ele>103.48</ele>
        <time>2023-05-28T10:25:13Z</time>
      </trkpt>
      <trkpt lat="44.34384" lon="0.68244">
        <ele>102.52</ele>
        <time>2023-05-28T10:25:21Z</time>
      </trkpt>
      <trkpt lat="44.34386" lon="0.68231">
        <ele>102.52</ele>
        <time>2023-05-28T10:25:28Z</time>
      </trkpt>
      <trkpt lat="44.34383" lon="0.68218">
        <ele>102.04</ele>
        <time>2023-05-28T10:25:35Z</time>
      </trkpt>
      <trkpt lat="44.34378" lon="0.68206">
        <ele>101.08</ele>
        <time>2023-05-28T10:25:43Z</time>
      </trkpt>
      <trkpt lat="44.34373" lon="0.68191">
        <ele>98.19</ele>
        <time>2023-05-28T10:25:53Z</time>
      </trkpt>
      <trkpt lat="44.34369" lon="0.68177">
        <ele>95.31</ele>
        <time>2023-05-28T10:26:02Z</time>
      </trkpt>
      <trkpt lat="44.34363" lon="0.68163">
        <ele>95.31</ele>
        <time>2023-05-28T10:26:09Z</time>
      </trkpt>
      <trkpt lat="44.34358" lon="0.68151">
        <ele>95.31</ele>
        <time>2023-05-28T10:26:15Z</time>
      </trkpt>
      <trkpt lat="44.34351" lon="0.68138">
        <ele>95.79</ele>
        <time>2023-05-28T10:26:22Z</time>
      </trkpt>
      <trkpt lat="44.34344" lon="0.68126">
        <ele>95.79</ele>
        <time>2023-05-28T10:26:30Z</time>
      </trkpt>
      <trkpt lat="44.34333" lon="0.68112">
        <ele>98.19</ele>
        <time>2023-05-28T10:26:37Z</time>
      </trkpt>
      <trkpt lat="44.34324" lon="0.68104">
        <ele>99.15</ele>
        <time>2023-05-28T10:26:44Z</time>
      </trkpt>
      <trkpt lat="44.34311" lon="0.68098">
        <ele>100.11</ele>
        <time>2023-05-28T10:26:52Z</time>
      </trkpt>
      <trkpt lat="44.34301" lon="0.68098">
        <ele>102.04</ele>
        <time>2023-05-28T10:26:58Z</time>
      </trkpt>
      <trkpt lat="44.34289" lon="0.681">
        <ele>104.44</ele>
        <time>2023-05-28T10:27:05Z</time>
      </trkpt>
      <trkpt lat="44.34277" lon="0.68103">
        <ele>109.73</ele>
        <time>2023-05-28T10:27:11Z</time>
      </trkpt>
      <trkpt lat="44.34266" lon="0.68107">
        <ele>112.61</ele>
        <time>2023-05-28T10:27:17Z</time>
      </trkpt>
      <trkpt lat="44.34257" lon="0.68113">
        <ele>114.53</ele>
        <time>2023-05-28T10:27:23Z</time>
      </trkpt>
      <trkpt lat="44.34248" lon="0.68118">
        <ele>115.98</ele>
        <time>2023-05-28T10:27:29Z</time>
      </trkpt>
      <trkpt lat="44.34238" lon="0.68123">
        <ele>117.9</ele>
        <time>2023-05-28T10:27:36Z</time>
      </trkpt>
      <trkpt lat="44.34228" lon="0.68129">
        <ele>119.34</ele>
        <time>2023-05-28T10:27:44Z</time>
      </trkpt>
      <trkpt lat="44.34216" lon="0.68134">
        <ele>120.3</ele>
        <time>2023-05-28T10:27:52Z</time>
      </trkpt>
      <trkpt lat="44.34204" lon="0.68138">
        <ele>121.26</ele>
        <time>2023-05-28T10:28:00Z</time>
      </trkpt>
      <trkpt lat="44.34192" lon="0.68138">
        <ele>122.22</ele>
        <time>2023-05-28T10:28:08Z</time>
      </trkpt>
      <trkpt lat="44.3418" lon="0.68137">
        <ele>122.71</ele>
        <time>2023-05-28T10:28:15Z</time>
      </trkpt>
      <trkpt lat="44.34167" lon="0.68135">
        <ele>122.22</ele>
        <time>2023-05-28T10:28:22Z</time>
      </trkpt>
      <trkpt lat="44.34154" lon="0.68133">
        <ele>122.22</ele>
        <time>2023-05-28T10:28:29Z</time>
      </trkpt>
      <trkpt lat="44.34142" lon="0.68132">
        <ele>122.22</ele>
        <time>2023-05-28T10:28:36Z</time>
      </trkpt>
      <trkpt lat="44.34132" lon="0.68128">
        <ele>122.71</ele>
        <time>2023-05-28T10:28:43Z</time>
      </trkpt>
      <trkpt lat="44.34121" lon="0.68123">
        <ele>123.19</ele>
        <time>2023-05-28T10:28:51Z</time>
      </trkpt>
      <trkpt lat="44.34112" lon="0.68114">
        <ele>123.19</ele>
        <time>2023-05-28T10:28:59Z</time>
      </trkpt>
      <trkpt lat="44.34104" lon="0.68099">
        <ele>124.63</ele>
        <time>2023-05-28T10:29:06Z</time>
      </trkpt>
      <trkpt lat="44.34098" lon="0.68082">
        <ele>128.47</ele>
        <time>2023-05-28T10:29:13Z</time>
      </trkpt>
      <trkpt lat="44.34094" lon="0.68065">
        <ele>128.95</ele>
        <time>2023-05-28T10:29:21Z</time>
      </trkpt>
      <trkpt lat="44.341" lon="0.68023">
        <ele>126.55</ele>
        <time>2023-05-28T10:29:45Z</time>
      </trkpt>
      <trkpt lat="44.34112" lon="0.68016">
        <ele>127.51</ele>
        <time>2023-05-28T10:29:53Z</time>
      </trkpt>
      <trkpt lat="44.34123" lon="0.68015">
        <ele>132.32</ele>
        <time>2023-05-28T10:30:00Z</time>
      </trkpt>
      <trkpt lat="44.3413" lon="0.68006">
        <ele>136.64</ele>
        <time>2023-05-28T10:30:07Z</time>
      </trkpt>
      <trkpt lat="44.34137" lon="0.67998">
        <ele>142.41</ele>
        <time>2023-05-28T10:30:24Z</time>
      </trkpt>
      <trkpt lat="44.34148" lon="0.68">
        <ele>144.82</ele>
        <time>2023-05-28T10:30:33Z</time>
      </trkpt>
      <trkpt lat="44.34159" lon="0.67999">
        <ele>142.41</ele>
        <time>2023-05-28T10:30:43Z</time>
      </trkpt>
      <trkpt lat="44.34171" lon="0.67993">
        <ele>137.61</ele>
        <time>2023-05-28T10:30:51Z</time>
      </trkpt>
      <trkpt lat="44.34181" lon="0.67987">
        <ele>134.72</ele>
        <time>2023-05-28T10:30:58Z</time>
      </trkpt>
      <trkpt lat="44.34192" lon="0.6798">
        <ele>132.8</ele>
        <time>2023-05-28T10:31:05Z</time>
      </trkpt>
      <trkpt lat="44.34201" lon="0.67976">
        <ele>130.88</ele>
        <time>2023-05-28T10:31:11Z</time>
      </trkpt>
      <trkpt lat="44.3421" lon="0.67968">
        <ele>128.95</ele>
        <time>2023-05-28T10:31:18Z</time>
      </trkpt>
      <trkpt lat="44.34218" lon="0.67962">
        <ele>127.03</ele>
        <time>2023-05-28T10:31:24Z</time>
      </trkpt>
      <trkpt lat="44.34227" lon="0.67956">
        <ele>124.63</ele>
        <time>2023-05-28T10:31:30Z</time>
      </trkpt>
      <trkpt lat="44.34236" lon="0.67951">
        <ele>122.22</ele>
        <time>2023-05-28T10:31:36Z</time>
      </trkpt>
      <trkpt lat="44.34246" lon="0.67944">
        <ele>120.3</ele>
        <time>2023-05-28T10:31:42Z</time>
      </trkpt>
      <trkpt lat="44.34256" lon="0.67935">
        <ele>118.38</ele>
        <time>2023-05-28T10:31:48Z</time>
      </trkpt>
      <trkpt lat="44.34263" lon="0.67926">
        <ele>117.42</ele>
        <time>2023-05-28T10:31:56Z</time>
      </trkpt>
      <trkpt lat="44.34276" lon="0.67922">
        <ele>117.42</ele>
        <time>2023-05-28T10:32:05Z</time>
      </trkpt>
      <trkpt lat="44.34294" lon="0.67906">
        <ele>119.34</ele>
        <time>2023-05-28T10:32:21Z</time>
      </trkpt>
      <trkpt lat="44.34311" lon="0.67895">
        <ele>121.26</ele>
        <time>2023-05-28T10:32:32Z</time>
      </trkpt>
      <trkpt lat="44.34328" lon="0.67884">
        <ele>124.63</ele>
        <time>2023-05-28T10:32:42Z</time>
      </trkpt>
      <trkpt lat="44.3438" lon="0.67882">
        <ele>141.45</ele>
        <time>2023-05-28T10:33:22Z</time>
      </trkpt>
      <trkpt lat="44.34489" lon="0.67885">
        <ele>136.64</ele>
        <time>2023-05-28T10:34:51Z</time>
      </trkpt>
      <trkpt lat="44.34602" lon="0.67793">
        <ele>127.99</ele>
        <time>2023-05-28T10:36:12Z</time>
      </trkpt>
      <trkpt lat="44.34613" lon="0.67782">
        <ele>131.36</ele>
        <time>2023-05-28T10:36:18Z</time>
      </trkpt>
      <trkpt lat="44.3462" lon="0.67771">
        <ele>133.76</ele>
        <time>2023-05-28T10:36:24Z</time>
      </trkpt>
      <trkpt lat="44.34632" lon="0.67761">
        <ele>137.61</ele>
        <time>2023-05-28T10:36:31Z</time>
      </trkpt>
      <trkpt lat="44.34643" lon="0.67753">
        <ele>140.97</ele>
        <time>2023-05-28T10:36:38Z</time>
      </trkpt>
      <trkpt lat="44.34652" lon="0.67745">
        <ele>144.82</ele>
        <time>2023-05-28T10:36:45Z</time>
      </trkpt>
      <trkpt lat="44.34661" lon="0.67738">
        <ele>148.66</ele>
        <time>2023-05-28T10:36:52Z</time>
      </trkpt>
      <trkpt lat="44.34668" lon="0.67728">
        <ele>152.03</ele>
        <time>2023-05-28T10:36:59Z</time>
      </trkpt>
      <trkpt lat="44.34678" lon="0.67721">
        <ele>154.43</ele>
        <time>2023-05-28T10:37:07Z</time>
      </trkpt>
      <trkpt lat="44.3469" lon="0.67713">
        <ele>156.83</ele>
        <time>2023-05-28T10:37:15Z</time>
      </trkpt>
      <trkpt lat="44.34699" lon="0.67704">
        <ele>158.27</ele>
        <time>2023-05-28T10:37:21Z</time>
      </trkpt>
      <trkpt lat="44.34706" lon="0.67692">
        <ele>159.72</ele>
        <time>2023-05-28T10:37:27Z</time>
      </trkpt>
      <trkpt lat="44.3471" lon="0.67679">
        <ele>161.16</ele>
        <time>2023-05-28T10:37:36Z</time>
      </trkpt>
      <trkpt lat="44.34718" lon="0.67664">
        <ele>161.64</ele>
        <time>2023-05-28T10:37:47Z</time>
      </trkpt>
      <trkpt lat="44.34736" lon="0.6766">
        <ele>162.6</ele>
        <time>2023-05-28T10:37:58Z</time>
      </trkpt>
      <trkpt lat="44.34748" lon="0.67662">
        <ele>161.64</ele>
        <time>2023-05-28T10:38:05Z</time>
      </trkpt>
      <trkpt lat="44.34759" lon="0.67663">
        <ele>160.2</ele>
        <time>2023-05-28T10:38:12Z</time>
      </trkpt>
      <trkpt lat="44.3477" lon="0.67664">
        <ele>157.79</ele>
        <time>2023-05-28T10:38:19Z</time>
      </trkpt>
      <trkpt lat="44.3478" lon="0.67668">
        <ele>156.83</ele>
        <time>2023-05-28T10:38:25Z</time>
      </trkpt>
      <trkpt lat="44.3479" lon="0.67675">
        <ele>155.87</ele>
        <time>2023-05-28T10:38:32Z</time>
      </trkpt>
      <trkpt lat="44.348" lon="0.67683">
        <ele>153.95</ele>
        <time>2023-05-28T10:38:39Z</time>
      </trkpt>
      <trkpt lat="44.3481" lon="0.67687">
        <ele>152.99</ele>
        <time>2023-05-28T10:38:45Z</time>
      </trkpt>
      <trkpt lat="44.34819" lon="0.67692">
        <ele>152.99</ele>
        <time>2023-05-28T10:38:51Z</time>
      </trkpt>
      <trkpt lat="44.34828" lon="0.67698">
        <ele>152.03</ele>
        <time>2023-05-28T10:38:59Z</time>
      </trkpt>
      <trkpt lat="44.34842" lon="0.67708">
        <ele>151.54</ele>
        <time>2023-05-28T10:39:09Z</time>
      </trkpt>
      <trkpt lat="44.34857" lon="0.67723">
        <ele>151.06</ele>
        <time>2023-05-28T10:39:22Z</time>
      </trkpt>
      <trkpt lat="44.34867" lon="0.67725">
        <ele>150.58</ele>
        <time>2023-05-28T10:39:29Z</time>
      </trkpt>
      <trkpt lat="44.34877" lon="0.6773">
        <ele>150.1</ele>
        <time>2023-05-28T10:39:35Z</time>
      </trkpt>
      <trkpt lat="44.34894" lon="0.67742">
        <ele>151.06</ele>
        <time>2023-05-28T10:40:01Z</time>
      </trkpt>
      <trkpt lat="44.34905" lon="0.67741">
        <ele>151.06</ele>
        <time>2023-05-28T10:40:09Z</time>
      </trkpt>
      <trkpt lat="44.34914" lon="0.67742">
        <ele>150.58</ele>
        <time>2023-05-28T10:40:17Z</time>
      </trkpt>
      <trkpt lat="44.34935" lon="0.67737">
        <ele>146.74</ele>
        <time>2023-05-28T10:40:38Z</time>
      </trkpt>
      <trkpt lat="44.34948" lon="0.67735">
        <ele>144.82</ele>
        <time>2023-05-28T10:40:46Z</time>
      </trkpt>
      <trkpt lat="44.34962" lon="0.67736">
        <ele>141.93</ele>
        <time>2023-05-28T10:40:54Z</time>
      </trkpt>
      <trkpt lat="44.34975" lon="0.67736">
        <ele>139.53</ele>
        <time>2023-05-28T10:41:01Z</time>
      </trkpt>
      <trkpt lat="44.34987" lon="0.67736">
        <ele>138.09</ele>
        <time>2023-05-28T10:41:07Z</time>
      </trkpt>
      <trkpt lat="44.34999" lon="0.67736">
        <ele>137.13</ele>
        <time>2023-05-28T10:41:14Z</time>
      </trkpt>
      <trkpt lat="44.35012" lon="0.67739">
        <ele>135.68</ele>
        <time>2023-05-28T10:41:21Z</time>
      </trkpt>
      <trkpt lat="44.35024" lon="0.67741">
        <ele>134.72</ele>
        <time>2023-05-28T10:41:27Z</time>
      </trkpt>
      <trkpt lat="44.35034" lon="0.67743">
        <ele>134.24</ele>
        <time>2023-05-28T10:41:33Z</time>
      </trkpt>
      <trkpt lat="44.35045" lon="0.67746">
        <ele>133.28</ele>
        <time>2023-05-28T10:41:39Z</time>
      </trkpt>
      <trkpt lat="44.35055" lon="0.67748">
        <ele>132.32</ele>
        <time>2023-05-28T10:41:45Z</time>
      </trkpt>
      <trkpt lat="44.35065" lon="0.67751">
        <ele>132.32</ele>
        <time>2023-05-28T10:41:52Z</time>
      </trkpt>
      <trkpt lat="44.35076" lon="0.67754">
        <ele>131.84</ele>
        <time>2023-05-28T10:41:58Z</time>
      </trkpt>
      <trkpt lat="44.35086" lon="0.67758">
        <ele>131.36</ele>
        <time>2023-05-28T10:42:04Z</time>
      </trkpt>
      <trkpt lat="44.35097" lon="0.67761">
        <ele>130.88</ele>
        <time>2023-05-28T10:42:10Z</time>
      </trkpt>
      <trkpt lat="44.35107" lon="0.67764">
        <ele>130.4</ele>
        <time>2023-05-28T10:42:16Z</time>
      </trkpt>
      <trkpt lat="44.35117" lon="0.67766">
        <ele>129.43</ele>
        <time>2023-05-28T10:42:22Z</time>
      </trkpt>
      <trkpt lat="44.35127" lon="0.67768">
        <ele>129.43</ele>
        <time>2023-05-28T10:42:28Z</time>
      </trkpt>
      <trkpt lat="44.35138" lon="0.67771">
        <ele>128.47</ele>
        <time>2023-05-28T10:42:34Z</time>
      </trkpt>
      <trkpt lat="44.35147" lon="0.67773">
        <ele>127.51</ele>
        <time>2023-05-28T10:42:40Z</time>
      </trkpt>
      <trkpt lat="44.35158" lon="0.67773">
        <ele>125.59</ele>
        <time>2023-05-28T10:43:11Z</time>
      </trkpt>
      <trkpt lat="44.35157" lon="0.67757">
        <ele>124.63</ele>
        <time>2023-05-28T10:43:19Z</time>
      </trkpt>
      <trkpt lat="44.35158" lon="0.67743">
        <ele>124.63</ele>
        <time>2023-05-28T10:43:26Z</time>
      </trkpt>
      <trkpt lat="44.35159" lon="0.67726">
        <ele>123.67</ele>
        <time>2023-05-28T10:43:33Z</time>
      </trkpt>
      <trkpt lat="44.3516" lon="0.6771">
        <ele>123.19</ele>
        <time>2023-05-28T10:43:40Z</time>
      </trkpt>
      <trkpt lat="44.3516" lon="0.67694">
        <ele>124.15</ele>
        <time>2023-05-28T10:43:48Z</time>
      </trkpt>
      <trkpt lat="44.3516" lon="0.67674">
        <ele>126.07</ele>
        <time>2023-05-28T10:43:58Z</time>
      </trkpt>
      <trkpt lat="44.3516" lon="0.67652">
        <ele>128.47</ele>
        <time>2023-05-28T10:44:08Z</time>
      </trkpt>
      <trkpt lat="44.35157" lon="0.67638">
        <ele>133.28</ele>
        <time>2023-05-28T10:44:15Z</time>
      </trkpt>
      <trkpt lat="44.35156" lon="0.67623">
        <ele>136.16</ele>
        <time>2023-05-28T10:44:22Z</time>
      </trkpt>
      <trkpt lat="44.35156" lon="0.67609">
        <ele>138.09</ele>
        <time>2023-05-28T10:44:29Z</time>
      </trkpt>
      <trkpt lat="44.35155" lon="0.67595">
        <ele>138.57</ele>
        <time>2023-05-28T10:44:36Z</time>
      </trkpt>
      <trkpt lat="44.35153" lon="0.67581">
        <ele>139.05</ele>
        <time>2023-05-28T10:44:43Z</time>
      </trkpt>
      <trkpt lat="44.35149" lon="0.67568">
        <ele>139.53</ele>
        <time>2023-05-28T10:44:50Z</time>
      </trkpt>
      <trkpt lat="44.35147" lon="0.67554">
        <ele>140.49</ele>
        <time>2023-05-28T10:44:58Z</time>
      </trkpt>
      <trkpt lat="44.35143" lon="0.67538">
        <ele>141.45</ele>
        <time>2023-05-28T10:45:06Z</time>
      </trkpt>
      <trkpt lat="44.35138" lon="0.67524">
        <ele>142.89</ele>
        <time>2023-05-28T10:45:14Z</time>
      </trkpt>
      <trkpt lat="44.35147" lon="0.67509">
        <ele>141.45</ele>
        <time>2023-05-28T10:45:39Z</time>
      </trkpt>
      <trkpt lat="44.35234" lon="0.67498">
        <ele>123.67</ele>
        <time>2023-05-28T10:46:37Z</time>
      </trkpt>
      <trkpt lat="44.35367" lon="0.67491">
        <ele>110.69</ele>
        <time>2023-05-28T10:47:52Z</time>
      </trkpt>
      <trkpt lat="44.3542" lon="0.67481">
        <ele>104.92</ele>
        <time>2023-05-28T10:48:29Z</time>
      </trkpt>
      <trkpt lat="44.35433" lon="0.67479">
        <ele>103.48</ele>
        <time>2023-05-28T10:48:37Z</time>
      </trkpt>
      <trkpt lat="44.35444" lon="0.67479">
        <ele>103</ele>
        <time>2023-05-28T10:48:43Z</time>
      </trkpt>
      <trkpt lat="44.35454" lon="0.67477">
        <ele>102.04</ele>
        <time>2023-05-28T10:48:50Z</time>
      </trkpt>
      <trkpt lat="44.3547" lon="0.67473">
        <ele>100.6</ele>
        <time>2023-05-28T10:49:01Z</time>
      </trkpt>
      <trkpt lat="44.35488" lon="0.67469">
        <ele>97.23</ele>
        <time>2023-05-28T10:49:21Z</time>
      </trkpt>
      <trkpt lat="44.35498" lon="0.67463">
        <ele>95.79</ele>
        <time>2023-05-28T10:49:29Z</time>
      </trkpt>
      <trkpt lat="44.35513" lon="0.67463">
        <ele>94.83</ele>
        <time>2023-05-28T10:49:38Z</time>
      </trkpt>
      <trkpt lat="44.35527" lon="0.67462">
        <ele>94.35</ele>
        <time>2023-05-28T10:49:46Z</time>
      </trkpt>
      <trkpt lat="44.35539" lon="0.67456">
        <ele>95.31</ele>
        <time>2023-05-28T10:49:53Z</time>
      </trkpt>
      <trkpt lat="44.35549" lon="0.6745">
        <ele>96.27</ele>
        <time>2023-05-28T10:49:59Z</time>
      </trkpt>
      <trkpt lat="44.35558" lon="0.67444">
        <ele>96.75</ele>
        <time>2023-05-28T10:50:05Z</time>
      </trkpt>
      <trkpt lat="44.35567" lon="0.67437">
        <ele>99.15</ele>
        <time>2023-05-28T10:50:13Z</time>
      </trkpt>
      <trkpt lat="44.35578" lon="0.67429">
        <ele>99.63</ele>
        <time>2023-05-28T10:50:19Z</time>
      </trkpt>
      <trkpt lat="44.35588" lon="0.67424">
        <ele>101.08</ele>
        <time>2023-05-28T10:50:23Z</time>
      </trkpt>
      <trkpt lat="44.35598" lon="0.67418">
        <ele>102.52</ele>
        <time>2023-05-28T10:50:31Z</time>
      </trkpt>
      <trkpt lat="44.35607" lon="0.67408">
        <ele>106.36</ele>
        <time>2023-05-28T10:50:41Z</time>
      </trkpt>
      <trkpt lat="44.35638" lon="0.67389">
        <ele>115.98</ele>
        <time>2023-05-28T10:54:36Z</time>
      </trkpt>
      <trkpt lat="44.35651" lon="0.67382">
        <ele>117.42</ele>
        <time>2023-05-28T10:54:42Z</time>
      </trkpt>
      <trkpt lat="44.35676" lon="0.67383">
        <ele>131.84</ele>
        <time>2023-05-28T10:55:39Z</time>
      </trkpt>
      <trkpt lat="44.3569" lon="0.67394">
        <ele>129.92</ele>
        <time>2023-05-28T10:55:48Z</time>
      </trkpt>
      <trkpt lat="44.35704" lon="0.67403">
        <ele>130.4</ele>
        <time>2023-05-28T10:55:59Z</time>
      </trkpt>
      <trkpt lat="44.35721" lon="0.67414">
        <ele>129.92</ele>
        <time>2023-05-28T10:56:09Z</time>
      </trkpt>
      <trkpt lat="44.35735" lon="0.6742">
        <ele>130.4</ele>
        <time>2023-05-28T10:56:19Z</time>
      </trkpt>
      <trkpt lat="44.35767" lon="0.67351">
        <ele>139.53</ele>
        <time>2023-05-28T10:57:01Z</time>
      </trkpt>
      <trkpt lat="44.35773" lon="0.67332">
        <ele>140.01</ele>
        <time>2023-05-28T10:57:10Z</time>
      </trkpt>
      <trkpt lat="44.35793" lon="0.67278">
        <ele>143.85</ele>
        <time>2023-05-28T10:57:42Z</time>
      </trkpt>
      <trkpt lat="44.35766" lon="0.67228">
        <ele>164.04</ele>
        <time>2023-05-28T10:58:27Z</time>
      </trkpt>
      <trkpt lat="44.35742" lon="0.67188">
        <ele>169.81</ele>
        <time>2023-05-28T10:58:51Z</time>
      </trkpt>
      <trkpt lat="44.35734" lon="0.6717">
        <ele>171.25</ele>
        <time>2023-05-28T10:59:01Z</time>
      </trkpt>
      <trkpt lat="44.35728" lon="0.67147">
        <ele>169.33</ele>
        <time>2023-05-28T10:59:13Z</time>
      </trkpt>
      <trkpt lat="44.35724" lon="0.67131">
        <ele>166.45</ele>
        <time>2023-05-28T10:59:22Z</time>
      </trkpt>
      <trkpt lat="44.35645" lon="0.66967">
        <ele>153.47</ele>
        <time>2023-05-28T11:00:59Z</time>
      </trkpt>
      <trkpt lat="44.35619" lon="0.66832">
        <ele>154.43</ele>
        <time>2023-05-28T11:02:06Z</time>
      </trkpt>
      <trkpt lat="44.35639" lon="0.66797">
        <ele>158.75</ele>
        <time>2023-05-28T11:02:28Z</time>
      </trkpt>
      <trkpt lat="44.35707" lon="0.66707">
        <ele>170.77</ele>
        <time>2023-05-28T11:03:39Z</time>
      </trkpt>
      <trkpt lat="44.35725" lon="0.66621">
        <ele>169.81</ele>
        <time>2023-05-28T11:04:24Z</time>
      </trkpt>
      <trkpt lat="44.35729" lon="0.66599">
        <ele>170.77</ele>
        <time>2023-05-28T11:04:33Z</time>
      </trkpt>
      <trkpt lat="44.35733" lon="0.66572">
        <ele>168.37</ele>
        <time>2023-05-28T11:04:49Z</time>
      </trkpt>
      <trkpt lat="44.35738" lon="0.66555">
        <ele>167.89</ele>
        <time>2023-05-28T11:04:56Z</time>
      </trkpt>
      <trkpt lat="44.35746" lon="0.66539">
        <ele>167.41</ele>
        <time>2023-05-28T11:05:04Z</time>
      </trkpt>
      <trkpt lat="44.35761" lon="0.66521">
        <ele>166.93</ele>
        <time>2023-05-28T11:05:17Z</time>
      </trkpt>
      <trkpt lat="44.3577" lon="0.66503">
        <ele>167.89</ele>
        <time>2023-05-28T11:05:26Z</time>
      </trkpt>
      <trkpt lat="44.35777" lon="0.66489">
        <ele>168.85</ele>
        <time>2023-05-28T11:05:34Z</time>
      </trkpt>
      <trkpt lat="44.35789" lon="0.66476">
        <ele>171.25</ele>
        <time>2023-05-28T11:05:42Z</time>
      </trkpt>
      <trkpt lat="44.35801" lon="0.66469">
        <ele>174.14</ele>
        <time>2023-05-28T11:05:49Z</time>
      </trkpt>
      <trkpt lat="44.35811" lon="0.66464">
        <ele>174.62</ele>
        <time>2023-05-28T11:05:56Z</time>
      </trkpt>
      <trkpt lat="44.35822" lon="0.66461">
        <ele>175.58</ele>
        <time>2023-05-28T11:06:03Z</time>
      </trkpt>
      <trkpt lat="44.3583" lon="0.66457">
        <ele>176.06</ele>
        <time>2023-05-28T11:06:10Z</time>
      </trkpt>
      <trkpt lat="44.35843" lon="0.66449">
        <ele>176.54</ele>
        <time>2023-05-28T11:06:18Z</time>
      </trkpt>
      <trkpt lat="44.35859" lon="0.66434">
        <ele>178.94</ele>
        <time>2023-05-28T11:06:32Z</time>
      </trkpt>
      <trkpt lat="44.35866" lon="0.66418">
        <ele>178.94</ele>
        <time>2023-05-28T11:06:42Z</time>
      </trkpt>
      <trkpt lat="44.3589" lon="0.6638">
        <ele>176.06</ele>
        <time>2023-05-28T11:07:09Z</time>
      </trkpt>
      <trkpt lat="44.35912" lon="0.66363">
        <ele>175.1</ele>
        <time>2023-05-28T11:07:23Z</time>
      </trkpt>
      <trkpt lat="44.35945" lon="0.66335">
        <ele>174.62</ele>
        <time>2023-05-28T11:07:48Z</time>
      </trkpt>
      <trkpt lat="44.35944" lon="0.6632">
        <ele>172.69</ele>
        <time>2023-05-28T11:07:56Z</time>
      </trkpt>
      <trkpt lat="44.35944" lon="0.66304">
        <ele>171.25</ele>
        <time>2023-05-28T11:08:05Z</time>
      </trkpt>
      <trkpt lat="44.35942" lon="0.66283">
        <ele>170.77</ele>
        <time>2023-05-28T11:08:14Z</time>
      </trkpt>
      <trkpt lat="44.35934" lon="0.66267">
        <ele>171.25</ele>
        <time>2023-05-28T11:08:21Z</time>
      </trkpt>
      <trkpt lat="44.35922" lon="0.66257">
        <ele>171.25</ele>
        <time>2023-05-28T11:08:29Z</time>
      </trkpt>
      <trkpt lat="44.35911" lon="0.66249">
        <ele>175.58</ele>
        <time>2023-05-28T11:08:37Z</time>
      </trkpt>
      <trkpt lat="44.35903" lon="0.66233">
        <ele>177.5</ele>
        <time>2023-05-28T11:08:45Z</time>
      </trkpt>
      <trkpt lat="44.35898" lon="0.66216">
        <ele>178.46</ele>
        <time>2023-05-28T11:08:54Z</time>
      </trkpt>
      <trkpt lat="44.35893" lon="0.66196">
        <ele>179.42</ele>
        <time>2023-05-28T11:09:03Z</time>
      </trkpt>
      <trkpt lat="44.3589" lon="0.66176">
        <ele>180.38</ele>
        <time>2023-05-28T11:09:12Z</time>
      </trkpt>
      <trkpt lat="44.35886" lon="0.66154">
        <ele>179.9</ele>
        <time>2023-05-28T11:09:22Z</time>
      </trkpt>
      <trkpt lat="44.3588" lon="0.66133">
        <ele>178.94</ele>
        <time>2023-05-28T11:09:33Z</time>
      </trkpt>
      <trkpt lat="44.35873" lon="0.66117">
        <ele>178.94</ele>
        <time>2023-05-28T11:09:42Z</time>
      </trkpt>
      <trkpt lat="44.35867" lon="0.66106">
        <ele>177.5</ele>
        <time>2023-05-28T11:09:51Z</time>
      </trkpt>
      <trkpt lat="44.35863" lon="0.66089">
        <ele>177.02</ele>
        <time>2023-05-28T11:10:00Z</time>
      </trkpt>
      <trkpt lat="44.35867" lon="0.6607">
        <ele>178.94</ele>
        <time>2023-05-28T11:10:08Z</time>
      </trkpt>
      <trkpt lat="44.35871" lon="0.66057">
        <ele>179.42</ele>
        <time>2023-05-28T11:10:15Z</time>
      </trkpt>
      <trkpt lat="44.35876" lon="0.66043">
        <ele>179.42</ele>
        <time>2023-05-28T11:10:23Z</time>
      </trkpt>
      <trkpt lat="44.35883" lon="0.66017">
        <ele>180.87</ele>
        <time>2023-05-28T11:10:37Z</time>
      </trkpt>
      <trkpt lat="44.3589" lon="0.66004">
        <ele>181.35</ele>
        <time>2023-05-28T11:10:46Z</time>
      </trkpt>
      <trkpt lat="44.35898" lon="0.65994">
        <ele>179.42</ele>
        <time>2023-05-28T11:10:56Z</time>
      </trkpt>
      <trkpt lat="44.35896" lon="0.65989">
        <ele>175.58</ele>
        <time>2023-05-28T11:11:12Z</time>
      </trkpt>
      <trkpt lat="44.35887" lon="0.65999">
        <ele>175.1</ele>
        <time>2023-05-28T11:11:21Z</time>
      </trkpt>
      <trkpt lat="44.35871" lon="0.66006">
        <ele>177.5</ele>
        <time>2023-05-28T11:11:30Z</time>
      </trkpt>
      <trkpt lat="44.35817" lon="0.66034">
        <ele>168.85</ele>
        <time>2023-05-28T11:12:37Z</time>
      </trkpt>
      <trkpt lat="44.3581" lon="0.66047">
        <ele>165.96</ele>
        <time>2023-05-28T11:12:47Z</time>
      </trkpt>
      <trkpt lat="44.35803" lon="0.6606">
        <ele>163.56</ele>
        <time>2023-05-28T11:12:56Z</time>
      </trkpt>
      <trkpt lat="44.35796" lon="0.66071">
        <ele>163.08</ele>
        <time>2023-05-28T11:13:04Z</time>
      </trkpt>
      <trkpt lat="44.35789" lon="0.66085">
        <ele>162.12</ele>
        <time>2023-05-28T11:13:14Z</time>
      </trkpt>
      <trkpt lat="44.35783" lon="0.66101">
        <ele>159.24</ele>
        <time>2023-05-28T11:13:26Z</time>
      </trkpt>
      <trkpt lat="44.35773" lon="0.66119">
        <ele>155.87</ele>
        <time>2023-05-28T11:13:41Z</time>
      </trkpt>
      <trkpt lat="44.35766" lon="0.66134">
        <ele>153.95</ele>
        <time>2023-05-28T11:13:51Z</time>
      </trkpt>
      <trkpt lat="44.35764" lon="0.66149">
        <ele>150.58</ele>
        <time>2023-05-28T11:14:01Z</time>
      </trkpt>
      <trkpt lat="44.35756" lon="0.66163">
        <ele>147.7</ele>
        <time>2023-05-28T11:14:13Z</time>
      </trkpt>
      <trkpt lat="44.35743" lon="0.66167">
        <ele>142.89</ele>
        <time>2023-05-28T11:14:23Z</time>
      </trkpt>
      <trkpt lat="44.35731" lon="0.66168">
        <ele>140.01</ele>
        <time>2023-05-28T11:14:31Z</time>
      </trkpt>
      <trkpt lat="44.35721" lon="0.66167">
        <ele>139.53</ele>
        <time>2023-05-28T11:14:39Z</time>
      </trkpt>
      <trkpt lat="44.35711" lon="0.66162">
        <ele>139.53</ele>
        <time>2023-05-28T11:14:47Z</time>
      </trkpt>
      <trkpt lat="44.35706" lon="0.6615">
        <ele>139.05</ele>
        <time>2023-05-28T11:14:57Z</time>
      </trkpt>
      <trkpt lat="44.35703" lon="0.66137">
        <ele>138.09</ele>
        <time>2023-05-28T11:15:06Z</time>
      </trkpt>
      <trkpt lat="44.35701" lon="0.66123">
        <ele>138.09</ele>
        <time>2023-05-28T11:15:16Z</time>
      </trkpt>
      <trkpt lat="44.35697" lon="0.66108">
        <ele>137.13</ele>
        <time>2023-05-28T11:15:25Z</time>
      </trkpt>
      <trkpt lat="44.35689" lon="0.66104">
        <ele>136.16</ele>
        <time>2023-05-28T11:15:34Z</time>
      </trkpt>
      <trkpt lat="44.35679" lon="0.66103">
        <ele>134.72</ele>
        <time>2023-05-28T11:15:42Z</time>
      </trkpt>
      <trkpt lat="44.35669" lon="0.66103">
        <ele>131.84</ele>
        <time>2023-05-28T11:15:52Z</time>
      </trkpt>
      <trkpt lat="44.35651" lon="0.66101">
        <ele>122.22</ele>
        <time>2023-05-28T11:16:11Z</time>
      </trkpt>
      <trkpt lat="44.35628" lon="0.66099">
        <ele>116.46</ele>
        <time>2023-05-28T11:16:41Z</time>
      </trkpt>
      <trkpt lat="44.35618" lon="0.66098">
        <ele>116.46</ele>
        <time>2023-05-28T11:16:50Z</time>
      </trkpt>
      <trkpt lat="44.35607" lon="0.66096">
        <ele>117.9</ele>
        <time>2023-05-28T11:17:00Z</time>
      </trkpt>
      <trkpt lat="44.35604" lon="0.66084">
        <ele>117.9</ele>
        <time>2023-05-28T11:17:08Z</time>
      </trkpt>
      <trkpt lat="44.35605" lon="0.66069">
        <ele>116.94</ele>
        <time>2023-05-28T11:17:16Z</time>
      </trkpt>
      <trkpt lat="44.35604" lon="0.66055">
        <ele>115.98</ele>
        <time>2023-05-28T11:17:25Z</time>
      </trkpt>
      <trkpt lat="44.35591" lon="0.66052">
        <ele>116.94</ele>
        <time>2023-05-28T11:17:34Z</time>
      </trkpt>
      <trkpt lat="44.35577" lon="0.66054">
        <ele>118.86</ele>
        <time>2023-05-28T11:17:45Z</time>
      </trkpt>
      <trkpt lat="44.35537" lon="0.66138">
        <ele>129.43</ele>
        <time>2023-05-28T11:18:59Z</time>
      </trkpt>
      <trkpt lat="44.3553" lon="0.66165">
        <ele>130.88</ele>
        <time>2023-05-28T11:19:13Z</time>
      </trkpt>
      <trkpt lat="44.35522" lon="0.66185">
        <ele>136.64</ele>
        <time>2023-05-28T11:19:27Z</time>
      </trkpt>
      <trkpt lat="44.35518" lon="0.66198">
        <ele>137.13</ele>
        <time>2023-05-28T11:19:34Z</time>
      </trkpt>
      <trkpt lat="44.35514" lon="0.66212">
        <ele>133.76</ele>
        <time>2023-05-28T11:19:42Z</time>
      </trkpt>
      <trkpt lat="44.3551" lon="0.66225">
        <ele>131.36</ele>
        <time>2023-05-28T11:19:50Z</time>
      </trkpt>
      <trkpt lat="44.35506" lon="0.66239">
        <ele>130.4</ele>
        <time>2023-05-28T11:19:58Z</time>
      </trkpt>
      <trkpt lat="44.35501" lon="0.66251">
        <ele>129.43</ele>
        <time>2023-05-28T11:20:05Z</time>
      </trkpt>
      <trkpt lat="44.35497" lon="0.66265">
        <ele>128.95</ele>
        <time>2023-05-28T11:20:13Z</time>
      </trkpt>
      <trkpt lat="44.35491" lon="0.6628">
        <ele>122.22</ele>
        <time>2023-05-28T11:21:10Z</time>
      </trkpt>
      <trkpt lat="44.35486" lon="0.66295">
        <ele>120.78</ele>
        <time>2023-05-28T11:21:18Z</time>
      </trkpt>
      <trkpt lat="44.35482" lon="0.66308">
        <ele>119.34</ele>
        <time>2023-05-28T11:21:26Z</time>
      </trkpt>
      <trkpt lat="44.35477" lon="0.6632">
        <ele>119.34</ele>
        <time>2023-05-28T11:21:33Z</time>
      </trkpt>
      <trkpt lat="44.35471" lon="0.66332">
        <ele>119.34</ele>
        <time>2023-05-28T11:21:42Z</time>
      </trkpt>
      <trkpt lat="44.35465" lon="0.66352">
        <ele>119.34</ele>
        <time>2023-05-28T11:21:55Z</time>
      </trkpt>
      <trkpt lat="44.35455" lon="0.66381">
        <ele>120.3</ele>
        <time>2023-05-28T11:22:10Z</time>
      </trkpt>
      <trkpt lat="44.35448" lon="0.66397">
        <ele>122.22</ele>
        <time>2023-05-28T11:22:20Z</time>
      </trkpt>
      <trkpt lat="44.3544" lon="0.66408">
        <ele>125.59</ele>
        <time>2023-05-28T11:22:28Z</time>
      </trkpt>
      <trkpt lat="44.35425" lon="0.66419">
        <ele>127.51</ele>
        <time>2023-05-28T11:22:39Z</time>
      </trkpt>
      <trkpt lat="44.35413" lon="0.66433">
        <ele>130.4</ele>
        <time>2023-05-28T11:22:52Z</time>
      </trkpt>
      <trkpt lat="44.35402" lon="0.66449">
        <ele>131.36</ele>
        <time>2023-05-28T11:23:04Z</time>
      </trkpt>
      <trkpt lat="44.3539" lon="0.66463">
        <ele>130.88</ele>
        <time>2023-05-28T11:23:15Z</time>
      </trkpt>
      <trkpt lat="44.35381" lon="0.66476">
        <ele>133.28</ele>
        <time>2023-05-28T11:23:24Z</time>
      </trkpt>
      <trkpt lat="44.3537" lon="0.66492">
        <ele>136.64</ele>
        <time>2023-05-28T11:23:36Z</time>
      </trkpt>
      <trkpt lat="44.35356" lon="0.66502">
        <ele>134.72</ele>
        <time>2023-05-28T11:23:49Z</time>
      </trkpt>
      <trkpt lat="44.35343" lon="0.66502">
        <ele>132.8</ele>
        <time>2023-05-28T11:23:59Z</time>
      </trkpt>
      <trkpt lat="44.35324" lon="0.66498">
        <ele>130.4</ele>
        <time>2023-05-28T11:24:14Z</time>
      </trkpt>
      <trkpt lat="44.35315" lon="0.66487">
        <ele>127.51</ele>
        <time>2023-05-28T11:24:24Z</time>
      </trkpt>
      <trkpt lat="44.35306" lon="0.66477">
        <ele>125.11</ele>
        <time>2023-05-28T11:24:34Z</time>
      </trkpt>
      <trkpt lat="44.35296" lon="0.66467">
        <ele>121.74</ele>
        <time>2023-05-28T11:24:54Z</time>
      </trkpt>
      <trkpt lat="44.35298" lon="0.66464">
        <ele>117.9</ele>
        <time>2023-05-28T13:22:23Z</time>
      </trkpt>
      <trkpt lat="44.35306" lon="0.66473">
        <ele>118.86</ele>
        <time>2023-05-28T13:22:32Z</time>
      </trkpt>
      <trkpt lat="44.35314" lon="0.66484">
        <ele>119.82</ele>
        <time>2023-05-28T13:22:43Z</time>
      </trkpt>
      <trkpt lat="44.35326" lon="0.66495">
        <ele>118.38</ele>
        <time>2023-05-28T13:22:57Z</time>
      </trkpt>
      <trkpt lat="44.35345" lon="0.66502">
        <ele>118.86</ele>
        <time>2023-05-28T13:23:16Z</time>
      </trkpt>
      <trkpt lat="44.35403" lon="0.66444">
        <ele>118.86</ele>
        <time>2023-05-28T13:24:19Z</time>
      </trkpt>
      <trkpt lat="44.35467" lon="0.66322">
        <ele>114.05</ele>
        <time>2023-05-28T13:25:50Z</time>
      </trkpt>
      <trkpt lat="44.35475" lon="0.66305">
        <ele>113.57</ele>
        <time>2023-05-28T13:26:01Z</time>
      </trkpt>
      <trkpt lat="44.35489" lon="0.66284">
        <ele>115.01</ele>
        <time>2023-05-28T13:26:10Z</time>
      </trkpt>
      <trkpt lat="44.35497" lon="0.66268">
        <ele>114.53</ele>
        <time>2023-05-28T13:26:18Z</time>
      </trkpt>
      <trkpt lat="44.35503" lon="0.66254">
        <ele>114.53</ele>
        <time>2023-05-28T13:26:26Z</time>
      </trkpt>
      <trkpt lat="44.35507" lon="0.66239">
        <ele>115.01</ele>
        <time>2023-05-28T13:26:34Z</time>
      </trkpt>
      <trkpt lat="44.35511" lon="0.66225">
        <ele>115.01</ele>
        <time>2023-05-28T13:26:42Z</time>
      </trkpt>
      <trkpt lat="44.35515" lon="0.6621">
        <ele>115.98</ele>
        <time>2023-05-28T13:26:50Z</time>
      </trkpt>
      <trkpt lat="44.35518" lon="0.66195">
        <ele>116.46</ele>
        <time>2023-05-28T13:26:58Z</time>
      </trkpt>
      <trkpt lat="44.35522" lon="0.66181">
        <ele>116.94</ele>
        <time>2023-05-28T13:27:06Z</time>
      </trkpt>
      <trkpt lat="44.35526" lon="0.66168">
        <ele>117.42</ele>
        <time>2023-05-28T13:27:14Z</time>
      </trkpt>
      <trkpt lat="44.3553" lon="0.66146">
        <ele>117.9</ele>
        <time>2023-05-28T13:27:29Z</time>
      </trkpt>
      <trkpt lat="44.35534" lon="0.66132">
        <ele>118.38</ele>
        <time>2023-05-28T13:27:37Z</time>
      </trkpt>
      <trkpt lat="44.35541" lon="0.66116">
        <ele>122.22</ele>
        <time>2023-05-28T13:27:47Z</time>
      </trkpt>
      <trkpt lat="44.35543" lon="0.661">
        <ele>122.71</ele>
        <time>2023-05-28T13:27:56Z</time>
      </trkpt>
      <trkpt lat="44.35556" lon="0.6606">
        <ele>127.03</ele>
        <time>2023-05-28T13:29:35Z</time>
      </trkpt>
      <trkpt lat="44.35561" lon="0.66049">
        <ele>129.43</ele>
        <time>2023-05-28T13:29:44Z</time>
      </trkpt>
      <trkpt lat="44.35561" lon="0.66006">
        <ele>127.99</ele>
        <time>2023-05-28T13:30:17Z</time>
      </trkpt>
      <trkpt lat="44.35562" lon="0.65985">
        <ele>126.55</ele>
        <time>2023-05-28T13:30:29Z</time>
      </trkpt>
      <trkpt lat="44.35566" lon="0.65966">
        <ele>125.11</ele>
        <time>2023-05-28T13:30:39Z</time>
      </trkpt>
      <trkpt lat="44.3559" lon="0.65885">
        <ele>129.43</ele>
        <time>2023-05-28T13:31:28Z</time>
      </trkpt>
      <trkpt lat="44.35603" lon="0.65854">
        <ele>130.88</ele>
        <time>2023-05-28T13:31:42Z</time>
      </trkpt>
      <trkpt lat="44.35607" lon="0.65827">
        <ele>131.36</ele>
        <time>2023-05-28T13:31:57Z</time>
      </trkpt>
      <trkpt lat="44.35609" lon="0.65789">
        <ele>128.95</ele>
        <time>2023-05-28T13:32:15Z</time>
      </trkpt>
      <trkpt lat="44.35602" lon="0.65727">
        <ele>126.55</ele>
        <time>2023-05-28T13:32:46Z</time>
      </trkpt>
      <trkpt lat="44.3559" lon="0.65702">
        <ele>126.07</ele>
        <time>2023-05-28T13:33:00Z</time>
      </trkpt>
      <trkpt lat="44.35582" lon="0.65668">
        <ele>123.67</ele>
        <time>2023-05-28T13:33:17Z</time>
      </trkpt>
      <trkpt lat="44.35582" lon="0.65652">
        <ele>125.59</ele>
        <time>2023-05-28T13:33:24Z</time>
      </trkpt>
      <trkpt lat="44.3558" lon="0.65636">
        <ele>126.55</ele>
        <time>2023-05-28T13:33:31Z</time>
      </trkpt>
      <trkpt lat="44.35582" lon="0.6562">
        <ele>128.47</ele>
        <time>2023-05-28T13:33:38Z</time>
      </trkpt>
      <trkpt lat="44.35583" lon="0.65607">
        <ele>129.43</ele>
        <time>2023-05-28T13:33:44Z</time>
      </trkpt>
      <trkpt lat="44.35575" lon="0.65596">
        <ele>130.88</ele>
        <time>2023-05-28T13:33:52Z</time>
      </trkpt>
      <trkpt lat="44.35564" lon="0.65588">
        <ele>131.84</ele>
        <time>2023-05-28T13:33:59Z</time>
      </trkpt>
      <trkpt lat="44.35555" lon="0.65579">
        <ele>133.28</ele>
        <time>2023-05-28T13:34:06Z</time>
      </trkpt>
      <trkpt lat="44.35553" lon="0.65565">
        <ele>135.68</ele>
        <time>2023-05-28T13:34:13Z</time>
      </trkpt>
      <trkpt lat="44.35548" lon="0.65553">
        <ele>137.61</ele>
        <time>2023-05-28T13:34:22Z</time>
      </trkpt>
      <trkpt lat="44.35541" lon="0.65543">
        <ele>139.05</ele>
        <time>2023-05-28T13:34:29Z</time>
      </trkpt>
      <trkpt lat="44.35535" lon="0.65533">
        <ele>141.93</ele>
        <time>2023-05-28T13:34:37Z</time>
      </trkpt>
      <trkpt lat="44.35529" lon="0.65521">
        <ele>144.34</ele>
        <time>2023-05-28T13:34:45Z</time>
      </trkpt>
      <trkpt lat="44.35522" lon="0.6551">
        <ele>146.26</ele>
        <time>2023-05-28T13:34:52Z</time>
      </trkpt>
      <trkpt lat="44.35517" lon="0.65498">
        <ele>146.74</ele>
        <time>2023-05-28T13:34:59Z</time>
      </trkpt>
      <trkpt lat="44.35516" lon="0.6548">
        <ele>148.18</ele>
        <time>2023-05-28T13:35:07Z</time>
      </trkpt>
      <trkpt lat="44.35504" lon="0.65446">
        <ele>152.99</ele>
        <time>2023-05-28T13:35:29Z</time>
      </trkpt>
      <trkpt lat="44.35487" lon="0.65415">
        <ele>155.87</ele>
        <time>2023-05-28T13:35:51Z</time>
      </trkpt>
      <trkpt lat="44.35481" lon="0.65403">
        <ele>155.87</ele>
        <time>2023-05-28T13:35:59Z</time>
      </trkpt>
      <trkpt lat="44.35476" lon="0.65389">
        <ele>155.39</ele>
        <time>2023-05-28T13:36:07Z</time>
      </trkpt>
      <trkpt lat="44.35475" lon="0.65372">
        <ele>155.87</ele>
        <time>2023-05-28T13:36:14Z</time>
      </trkpt>
      <trkpt lat="44.35475" lon="0.65353">
        <ele>155.87</ele>
        <time>2023-05-28T13:36:23Z</time>
      </trkpt>
      <trkpt lat="44.35476" lon="0.65338">
        <ele>156.35</ele>
        <time>2023-05-28T13:36:30Z</time>
      </trkpt>
      <trkpt lat="44.35474" lon="0.65319">
        <ele>158.27</ele>
        <time>2023-05-28T13:36:38Z</time>
      </trkpt>
      <trkpt lat="44.35471" lon="0.65302">
        <ele>161.64</ele>
        <time>2023-05-28T13:36:48Z</time>
      </trkpt>
      <trkpt lat="44.35458" lon="0.65258">
        <ele>168.37</ele>
        <time>2023-05-28T13:37:20Z</time>
      </trkpt>
      <trkpt lat="44.35448" lon="0.65238">
        <ele>176.54</ele>
        <time>2023-05-28T13:37:38Z</time>
      </trkpt>
      <trkpt lat="44.35438" lon="0.65236">
        <ele>177.02</ele>
        <time>2023-05-28T13:37:47Z</time>
      </trkpt>
      <trkpt lat="44.35426" lon="0.65235">
        <ele>177.98</ele>
        <time>2023-05-28T13:37:55Z</time>
      </trkpt>
      <trkpt lat="44.35413" lon="0.65236">
        <ele>180.38</ele>
        <time>2023-05-28T13:38:02Z</time>
      </trkpt>
      <trkpt lat="44.35404" lon="0.65237">
        <ele>182.31</ele>
        <time>2023-05-28T13:38:09Z</time>
      </trkpt>
      <trkpt lat="44.35395" lon="0.65245">
        <ele>183.27</ele>
        <time>2023-05-28T13:38:16Z</time>
      </trkpt>
      <trkpt lat="44.35386" lon="0.65249">
        <ele>183.27</ele>
        <time>2023-05-28T13:38:22Z</time>
      </trkpt>
      <trkpt lat="44.35375" lon="0.6525">
        <ele>183.75</ele>
        <time>2023-05-28T13:38:29Z</time>
      </trkpt>
      <trkpt lat="44.35364" lon="0.65251">
        <ele>183.75</ele>
        <time>2023-05-28T13:38:36Z</time>
      </trkpt>
      <trkpt lat="44.35354" lon="0.65249">
        <ele>184.23</ele>
        <time>2023-05-28T13:38:43Z</time>
      </trkpt>
      <trkpt lat="44.35344" lon="0.65245">
        <ele>185.67</ele>
        <time>2023-05-28T13:38:49Z</time>
      </trkpt>
      <trkpt lat="44.35334" lon="0.65245">
        <ele>187.11</ele>
        <time>2023-05-28T13:38:55Z</time>
      </trkpt>
      <trkpt lat="44.35324" lon="0.65246">
        <ele>187.59</ele>
        <time>2023-05-28T13:39:01Z</time>
      </trkpt>
      <trkpt lat="44.35316" lon="0.65249">
        <ele>188.56</ele>
        <time>2023-05-28T13:39:07Z</time>
      </trkpt>
      <trkpt lat="44.35307" lon="0.65251">
        <ele>190</ele>
        <time>2023-05-28T13:39:14Z</time>
      </trkpt>
      <trkpt lat="44.35296" lon="0.65255">
        <ele>191.92</ele>
        <time>2023-05-28T13:39:22Z</time>
      </trkpt>
      <trkpt lat="44.35287" lon="0.6526">
        <ele>192.88</ele>
        <time>2023-05-28T13:39:29Z</time>
      </trkpt>
      <trkpt lat="44.35278" lon="0.65264">
        <ele>194.32</ele>
        <time>2023-05-28T13:39:36Z</time>
      </trkpt>
      <trkpt lat="44.35269" lon="0.65266">
        <ele>194.8</ele>
        <time>2023-05-28T13:39:42Z</time>
      </trkpt>
      <trkpt lat="44.35259" lon="0.65269">
        <ele>195.28</ele>
        <time>2023-05-28T13:39:48Z</time>
      </trkpt>
      <trkpt lat="44.35249" lon="0.65272">
        <ele>195.77</ele>
        <time>2023-05-28T13:39:54Z</time>
      </trkpt>
      <trkpt lat="44.3524" lon="0.65275">
        <ele>196.25</ele>
        <time>2023-05-28T13:40:00Z</time>
      </trkpt>
      <trkpt lat="44.35231" lon="0.65276">
        <ele>196.25</ele>
        <time>2023-05-28T13:40:06Z</time>
      </trkpt>
      <trkpt lat="44.35222" lon="0.65279">
        <ele>196.25</ele>
        <time>2023-05-28T13:40:12Z</time>
      </trkpt>
      <trkpt lat="44.35212" lon="0.65282">
        <ele>195.77</ele>
        <time>2023-05-28T13:40:18Z</time>
      </trkpt>
      <trkpt lat="44.35203" lon="0.65286">
        <ele>195.77</ele>
        <time>2023-05-28T13:40:24Z</time>
      </trkpt>
      <trkpt lat="44.35194" lon="0.6529">
        <ele>195.77</ele>
        <time>2023-05-28T13:40:30Z</time>
      </trkpt>
      <trkpt lat="44.35186" lon="0.65295">
        <ele>196.25</ele>
        <time>2023-05-28T13:40:36Z</time>
      </trkpt>
      <trkpt lat="44.35178" lon="0.65302">
        <ele>196.73</ele>
        <time>2023-05-28T13:40:43Z</time>
      </trkpt>
      <trkpt lat="44.35169" lon="0.65309">
        <ele>196.73</ele>
        <time>2023-05-28T13:40:50Z</time>
      </trkpt>
      <trkpt lat="44.3516" lon="0.65317">
        <ele>196.73</ele>
        <time>2023-05-28T13:40:57Z</time>
      </trkpt>
      <trkpt lat="44.35151" lon="0.65323">
        <ele>197.21</ele>
        <time>2023-05-28T13:41:04Z</time>
      </trkpt>
      <trkpt lat="44.3514" lon="0.65327">
        <ele>196.73</ele>
        <time>2023-05-28T13:41:11Z</time>
      </trkpt>
      <trkpt lat="44.35131" lon="0.65332">
        <ele>196.25</ele>
        <time>2023-05-28T13:41:17Z</time>
      </trkpt>
      <trkpt lat="44.35122" lon="0.65338">
        <ele>195.77</ele>
        <time>2023-05-28T13:41:24Z</time>
      </trkpt>
      <trkpt lat="44.35111" lon="0.65341">
        <ele>196.25</ele>
        <time>2023-05-28T13:41:31Z</time>
      </trkpt>
      <trkpt lat="44.35102" lon="0.6534">
        <ele>195.77</ele>
        <time>2023-05-28T13:41:37Z</time>
      </trkpt>
      <trkpt lat="44.35091" lon="0.6534">
        <ele>195.77</ele>
        <time>2023-05-28T13:41:43Z</time>
      </trkpt>
      <trkpt lat="44.3508" lon="0.65343">
        <ele>196.73</ele>
        <time>2023-05-28T13:41:49Z</time>
      </trkpt>
      <trkpt lat="44.3507" lon="0.65347">
        <ele>196.73</ele>
        <time>2023-05-28T13:41:55Z</time>
      </trkpt>
      <trkpt lat="44.3506" lon="0.6535">
        <ele>197.21</ele>
        <time>2023-05-28T13:42:01Z</time>
      </trkpt>
      <trkpt lat="44.35051" lon="0.65354">
        <ele>197.21</ele>
        <time>2023-05-28T13:42:07Z</time>
      </trkpt>
      <trkpt lat="44.35042" lon="0.65359">
        <ele>197.21</ele>
        <time>2023-05-28T13:42:13Z</time>
      </trkpt>
      <trkpt lat="44.35034" lon="0.65366">
        <ele>196.73</ele>
        <time>2023-05-28T13:42:19Z</time>
      </trkpt>
      <trkpt lat="44.35026" lon="0.65375">
        <ele>196.25</ele>
        <time>2023-05-28T13:42:25Z</time>
      </trkpt>
      <trkpt lat="44.35019" lon="0.65384">
        <ele>195.28</ele>
        <time>2023-05-28T13:42:32Z</time>
      </trkpt>
      <trkpt lat="44.35014" lon="0.65375">
        <ele>194.32</ele>
        <time>2023-05-28T13:42:40Z</time>
      </trkpt>
      <trkpt lat="44.35013" lon="0.65361">
        <ele>194.32</ele>
        <time>2023-05-28T13:42:46Z</time>
      </trkpt>
      <trkpt lat="44.35014" lon="0.65348">
        <ele>195.28</ele>
        <time>2023-05-28T13:42:52Z</time>
      </trkpt>
      <trkpt lat="44.35016" lon="0.65335">
        <ele>196.25</ele>
        <time>2023-05-28T13:42:58Z</time>
      </trkpt>
      <trkpt lat="44.35016" lon="0.65322">
        <ele>196.73</ele>
        <time>2023-05-28T13:43:04Z</time>
      </trkpt>
      <trkpt lat="44.35016" lon="0.65308">
        <ele>196.73</ele>
        <time>2023-05-28T13:43:11Z</time>
      </trkpt>
      <trkpt lat="44.35016" lon="0.65293">
        <ele>197.21</ele>
        <time>2023-05-28T13:43:18Z</time>
      </trkpt>
      <trkpt lat="44.35017" lon="0.65279">
        <ele>197.69</ele>
        <time>2023-05-28T13:43:25Z</time>
      </trkpt>
      <trkpt lat="44.35017" lon="0.65265">
        <ele>198.65</ele>
        <time>2023-05-28T13:43:31Z</time>
      </trkpt>
      <trkpt lat="44.35017" lon="0.6525">
        <ele>199.13</ele>
        <time>2023-05-28T13:43:38Z</time>
      </trkpt>
      <trkpt lat="44.35018" lon="0.65236">
        <ele>199.61</ele>
        <time>2023-05-28T13:43:45Z</time>
      </trkpt>
      <trkpt lat="44.35019" lon="0.65222">
        <ele>200.09</ele>
        <time>2023-05-28T13:43:52Z</time>
      </trkpt>
      <trkpt lat="44.3502" lon="0.65206">
        <ele>202.01</ele>
        <time>2023-05-28T13:43:59Z</time>
      </trkpt>
      <trkpt lat="44.35021" lon="0.65192">
        <ele>201.53</ele>
        <time>2023-05-28T13:44:06Z</time>
      </trkpt>
      <trkpt lat="44.35023" lon="0.65176">
        <ele>202.01</ele>
        <time>2023-05-28T13:44:14Z</time>
      </trkpt>
      <trkpt lat="44.35024" lon="0.65162">
        <ele>201.05</ele>
        <time>2023-05-28T13:44:21Z</time>
      </trkpt>
      <trkpt lat="44.35024" lon="0.65147">
        <ele>200.57</ele>
        <time>2023-05-28T13:44:28Z</time>
      </trkpt>
      <trkpt lat="44.35027" lon="0.65132">
        <ele>200.57</ele>
        <time>2023-05-28T13:44:36Z</time>
      </trkpt>
      <trkpt lat="44.35031" lon="0.65111">
        <ele>200.57</ele>
        <time>2023-05-28T13:44:47Z</time>
      </trkpt>
      <trkpt lat="44.35033" lon="0.65082">
        <ele>200.09</ele>
        <time>2023-05-28T13:45:00Z</time>
      </trkpt>
      <trkpt lat="44.35037" lon="0.65065">
        <ele>199.61</ele>
        <time>2023-05-28T13:45:08Z</time>
      </trkpt>
      <trkpt lat="44.35041" lon="0.65048">
        <ele>197.21</ele>
        <time>2023-05-28T13:45:17Z</time>
      </trkpt>
      <trkpt lat="44.35046" lon="0.65027">
        <ele>194.8</ele>
        <time>2023-05-28T13:45:29Z</time>
      </trkpt>
      <trkpt lat="44.35054" lon="0.65">
        <ele>197.69</ele>
        <time>2023-05-28T13:45:41Z</time>
      </trkpt>
      <trkpt lat="44.35058" lon="0.64981">
        <ele>202.01</ele>
        <time>2023-05-28T13:45:50Z</time>
      </trkpt>
      <trkpt lat="44.35061" lon="0.64965">
        <ele>203.94</ele>
        <time>2023-05-28T13:45:59Z</time>
      </trkpt>
      <trkpt lat="44.35065" lon="0.6495">
        <ele>204.42</ele>
        <time>2023-05-28T13:46:06Z</time>
      </trkpt>
      <trkpt lat="44.3507" lon="0.64936">
        <ele>203.94</ele>
        <time>2023-05-28T13:46:13Z</time>
      </trkpt>
      <trkpt lat="44.35076" lon="0.64924">
        <ele>204.42</ele>
        <time>2023-05-28T13:46:19Z</time>
      </trkpt>
      <trkpt lat="44.35081" lon="0.64912">
        <ele>204.9</ele>
        <time>2023-05-28T13:46:26Z</time>
      </trkpt>
      <trkpt lat="44.35085" lon="0.649">
        <ele>205.38</ele>
        <time>2023-05-28T13:46:32Z</time>
      </trkpt>
      <trkpt lat="44.35091" lon="0.6489">
        <ele>205.86</ele>
        <time>2023-05-28T13:46:38Z</time>
      </trkpt>
      <trkpt lat="44.35096" lon="0.64879">
        <ele>205.38</ele>
        <time>2023-05-28T13:46:44Z</time>
      </trkpt>
      <trkpt lat="44.35102" lon="0.64869">
        <ele>205.38</ele>
        <time>2023-05-28T13:46:50Z</time>
      </trkpt>
      <trkpt lat="44.35108" lon="0.64858">
        <ele>205.86</ele>
        <time>2023-05-28T13:46:57Z</time>
      </trkpt>
      <trkpt lat="44.35114" lon="0.64847">
        <ele>206.34</ele>
        <time>2023-05-28T13:47:03Z</time>
      </trkpt>
      <trkpt lat="44.35121" lon="0.64837">
        <ele>206.82</ele>
        <time>2023-05-28T13:47:10Z</time>
      </trkpt>
      <trkpt lat="44.35129" lon="0.64827">
        <ele>207.3</ele>
        <time>2023-05-28T13:47:17Z</time>
      </trkpt>
      <trkpt lat="44.35138" lon="0.64816">
        <ele>208.26</ele>
        <time>2023-05-28T13:47:24Z</time>
      </trkpt>
      <trkpt lat="44.35146" lon="0.64807">
        <ele>208.74</ele>
        <time>2023-05-28T13:47:31Z</time>
      </trkpt>
      <trkpt lat="44.35153" lon="0.64799">
        <ele>209.22</ele>
        <time>2023-05-28T13:47:38Z</time>
      </trkpt>
      <trkpt lat="44.35158" lon="0.64787">
        <ele>209.22</ele>
        <time>2023-05-28T13:47:45Z</time>
      </trkpt>
      <trkpt lat="44.35161" lon="0.64774">
        <ele>208.74</ele>
        <time>2023-05-28T13:47:51Z</time>
      </trkpt>
      <trkpt lat="44.35161" lon="0.64759">
        <ele>208.74</ele>
        <time>2023-05-28T13:47:58Z</time>
      </trkpt>
      <trkpt lat="44.35159" lon="0.64744">
        <ele>209.22</ele>
        <time>2023-05-28T13:48:05Z</time>
      </trkpt>
      <trkpt lat="44.35158" lon="0.64729">
        <ele>209.22</ele>
        <time>2023-05-28T13:48:12Z</time>
      </trkpt>
      <trkpt lat="44.35161" lon="0.64713">
        <ele>208.74</ele>
        <time>2023-05-28T13:48:19Z</time>
      </trkpt>
      <trkpt lat="44.35165" lon="0.64701">
        <ele>207.78</ele>
        <time>2023-05-28T13:48:26Z</time>
      </trkpt>
      <trkpt lat="44.35171" lon="0.64689">
        <ele>207.3</ele>
        <time>2023-05-28T13:48:33Z</time>
      </trkpt>
      <trkpt lat="44.35182" lon="0.64674">
        <ele>206.82</ele>
        <time>2023-05-28T13:48:44Z</time>
      </trkpt>
      <trkpt lat="44.3518" lon="0.64654">
        <ele>204.9</ele>
        <time>2023-05-28T13:49:01Z</time>
      </trkpt>
      <trkpt lat="44.35166" lon="0.64646">
        <ele>203.94</ele>
        <time>2023-05-28T13:49:09Z</time>
      </trkpt>
      <trkpt lat="44.35154" lon="0.64636">
        <ele>203.46</ele>
        <time>2023-05-28T13:49:19Z</time>
      </trkpt>
      <trkpt lat="44.35139" lon="0.64627">
        <ele>200.09</ele>
        <time>2023-05-28T13:49:30Z</time>
      </trkpt>
      <trkpt lat="44.35125" lon="0.64614">
        <ele>195.28</ele>
        <time>2023-05-28T13:49:42Z</time>
      </trkpt>
      <trkpt lat="44.35114" lon="0.64606">
        <ele>194.8</ele>
        <time>2023-05-28T13:49:49Z</time>
      </trkpt>
      <trkpt lat="44.35104" lon="0.64599">
        <ele>194.32</ele>
        <time>2023-05-28T13:49:56Z</time>
      </trkpt>
      <trkpt lat="44.35091" lon="0.64592">
        <ele>196.25</ele>
        <time>2023-05-28T13:50:03Z</time>
      </trkpt>
      <trkpt lat="44.35077" lon="0.64581">
        <ele>197.21</ele>
        <time>2023-05-28T13:50:14Z</time>
      </trkpt>
      <trkpt lat="44.35067" lon="0.64575">
        <ele>197.21</ele>
        <time>2023-05-28T13:50:21Z</time>
      </trkpt>
      <trkpt lat="44.35056" lon="0.64567">
        <ele>197.69</ele>
        <time>2023-05-28T13:50:28Z</time>
      </trkpt>
      <trkpt lat="44.35047" lon="0.64561">
        <ele>198.65</ele>
        <time>2023-05-28T13:50:34Z</time>
      </trkpt>
      <trkpt lat="44.35038" lon="0.64554">
        <ele>199.13</ele>
        <time>2023-05-28T13:50:40Z</time>
      </trkpt>
      <trkpt lat="44.35029" lon="0.64547">
        <ele>200.57</ele>
        <time>2023-05-28T13:50:46Z</time>
      </trkpt>
      <trkpt lat="44.35021" lon="0.64541">
        <ele>201.05</ele>
        <time>2023-05-28T13:50:52Z</time>
      </trkpt>
      <trkpt lat="44.35012" lon="0.64538">
        <ele>202.01</ele>
        <time>2023-05-28T13:50:59Z</time>
      </trkpt>
      <trkpt lat="44.35003" lon="0.64534">
        <ele>202.01</ele>
        <time>2023-05-28T13:51:05Z</time>
      </trkpt>
      <trkpt lat="44.34994" lon="0.64532">
        <ele>201.53</ele>
        <time>2023-05-28T13:51:11Z</time>
      </trkpt>
      <trkpt lat="44.34985" lon="0.64531">
        <ele>201.05</ele>
        <time>2023-05-28T13:51:17Z</time>
      </trkpt>
      <trkpt lat="44.34976" lon="0.64531">
        <ele>200.09</ele>
        <time>2023-05-28T13:51:23Z</time>
      </trkpt>
      <trkpt lat="44.34967" lon="0.64532">
        <ele>199.61</ele>
        <time>2023-05-28T13:51:29Z</time>
      </trkpt>
      <trkpt lat="44.34958" lon="0.64532">
        <ele>198.65</ele>
        <time>2023-05-28T13:51:36Z</time>
      </trkpt>
      <trkpt lat="44.34947" lon="0.6453">
        <ele>197.69</ele>
        <time>2023-05-28T13:51:43Z</time>
      </trkpt>
      <trkpt lat="44.34936" lon="0.64527">
        <ele>196.73</ele>
        <time>2023-05-28T13:51:50Z</time>
      </trkpt>
      <trkpt lat="44.34925" lon="0.64524">
        <ele>196.25</ele>
        <time>2023-05-28T13:51:57Z</time>
      </trkpt>
      <trkpt lat="44.34915" lon="0.64521">
        <ele>195.77</ele>
        <time>2023-05-28T13:52:03Z</time>
      </trkpt>
      <trkpt lat="44.34904" lon="0.6452">
        <ele>195.28</ele>
        <time>2023-05-28T13:52:09Z</time>
      </trkpt>
      <trkpt lat="44.34893" lon="0.6452">
        <ele>194.8</ele>
        <time>2023-05-28T13:52:17Z</time>
      </trkpt>
      <trkpt lat="44.34871" lon="0.6451">
        <ele>192.4</ele>
        <time>2023-05-28T13:52:31Z</time>
      </trkpt>
      <trkpt lat="44.34856" lon="0.64505">
        <ele>190</ele>
        <time>2023-05-28T13:52:39Z</time>
      </trkpt>
      <trkpt lat="44.34841" lon="0.645">
        <ele>189.04</ele>
        <time>2023-05-28T13:52:47Z</time>
      </trkpt>
      <trkpt lat="44.34813" lon="0.64507">
        <ele>186.63</ele>
        <time>2023-05-28T13:53:08Z</time>
      </trkpt>
      <trkpt lat="44.34798" lon="0.64519">
        <ele>190</ele>
        <time>2023-05-28T13:53:18Z</time>
      </trkpt>
      <trkpt lat="44.34784" lon="0.64534">
        <ele>192.88</ele>
        <time>2023-05-28T13:53:29Z</time>
      </trkpt>
      <trkpt lat="44.34773" lon="0.64547">
        <ele>195.28</ele>
        <time>2023-05-28T13:53:37Z</time>
      </trkpt>
      <trkpt lat="44.34758" lon="0.6454">
        <ele>194.32</ele>
        <time>2023-05-28T13:53:52Z</time>
      </trkpt>
      <trkpt lat="44.34737" lon="0.64523">
        <ele>195.77</ele>
        <time>2023-05-28T13:54:05Z</time>
      </trkpt>
      <trkpt lat="44.34721" lon="0.64515">
        <ele>197.21</ele>
        <time>2023-05-28T13:54:13Z</time>
      </trkpt>
      <trkpt lat="44.34708" lon="0.64509">
        <ele>197.69</ele>
        <time>2023-05-28T13:54:22Z</time>
      </trkpt>
      <trkpt lat="44.34692" lon="0.64516">
        <ele>197.69</ele>
        <time>2023-05-28T13:54:33Z</time>
      </trkpt>
      <trkpt lat="44.34666" lon="0.64537">
        <ele>199.13</ele>
        <time>2023-05-28T13:54:50Z</time>
      </trkpt>
      <trkpt lat="44.34624" lon="0.64555">
        <ele>195.77</ele>
        <time>2023-05-28T13:55:18Z</time>
      </trkpt>
      <trkpt lat="44.34583" lon="0.64549">
        <ele>191.44</ele>
        <time>2023-05-28T13:55:50Z</time>
      </trkpt>
      <trkpt lat="44.34568" lon="0.64545">
        <ele>190</ele>
        <time>2023-05-28T13:55:57Z</time>
      </trkpt>
      <trkpt lat="44.34553" lon="0.64546">
        <ele>189.52</ele>
        <time>2023-05-28T13:56:05Z</time>
      </trkpt>
      <trkpt lat="44.34541" lon="0.64551">
        <ele>188.56</ele>
        <time>2023-05-28T13:56:13Z</time>
      </trkpt>
      <trkpt lat="44.34525" lon="0.64556">
        <ele>188.08</ele>
        <time>2023-05-28T13:56:23Z</time>
      </trkpt>
      <trkpt lat="44.345" lon="0.64568">
        <ele>190</ele>
        <time>2023-05-28T13:56:39Z</time>
      </trkpt>
      <trkpt lat="44.34486" lon="0.64571">
        <ele>190</ele>
        <time>2023-05-28T13:56:48Z</time>
      </trkpt>
      <trkpt lat="44.34471" lon="0.64578">
        <ele>191.44</ele>
        <time>2023-05-28T13:56:57Z</time>
      </trkpt>
      <trkpt lat="44.34454" lon="0.64582">
        <ele>193.36</ele>
        <time>2023-05-28T13:57:07Z</time>
      </trkpt>
      <trkpt lat="44.3444" lon="0.64585">
        <ele>193.84</ele>
        <time>2023-05-28T13:57:17Z</time>
      </trkpt>
      <trkpt lat="44.34413" lon="0.64601">
        <ele>194.32</ele>
        <time>2023-05-28T13:57:36Z</time>
      </trkpt>
      <trkpt lat="44.34399" lon="0.64606">
        <ele>195.28</ele>
        <time>2023-05-28T13:57:45Z</time>
      </trkpt>
      <trkpt lat="44.34379" lon="0.64612">
        <ele>196.73</ele>
        <time>2023-05-28T13:57:57Z</time>
      </trkpt>
      <trkpt lat="44.34363" lon="0.64615">
        <ele>197.69</ele>
        <time>2023-05-28T13:58:06Z</time>
      </trkpt>
      <trkpt lat="44.3435" lon="0.64618">
        <ele>196.73</ele>
        <time>2023-05-28T13:58:14Z</time>
      </trkpt>
      <trkpt lat="44.34338" lon="0.64624">
        <ele>193.84</ele>
        <time>2023-05-28T13:58:24Z</time>
      </trkpt>
      <trkpt lat="44.34327" lon="0.64634">
        <ele>192.4</ele>
        <time>2023-05-28T13:58:30Z</time>
      </trkpt>
      <trkpt lat="44.34316" lon="0.6464">
        <ele>191.92</ele>
        <time>2023-05-28T13:58:34Z</time>
      </trkpt>
      <trkpt lat="44.34305" lon="0.64648">
        <ele>191.92</ele>
        <time>2023-05-28T13:58:37Z</time>
      </trkpt>
      <trkpt lat="44.34295" lon="0.64655">
        <ele>191.92</ele>
        <time>2023-05-28T13:58:40Z</time>
      </trkpt>
      <trkpt lat="44.34283" lon="0.64663">
        <ele>192.4</ele>
        <time>2023-05-28T13:58:44Z</time>
      </trkpt>
      <trkpt lat="44.34272" lon="0.6467">
        <ele>192.88</ele>
        <time>2023-05-28T13:58:50Z</time>
      </trkpt>
      <trkpt lat="44.34262" lon="0.64676">
        <ele>192.4</ele>
        <time>2023-05-28T13:58:56Z</time>
      </trkpt>
      <trkpt lat="44.34249" lon="0.64682">
        <ele>193.36</ele>
        <time>2023-05-28T13:59:04Z</time>
      </trkpt>
      <trkpt lat="44.34239" lon="0.64687">
        <ele>192.4</ele>
        <time>2023-05-28T13:59:11Z</time>
      </trkpt>
      <trkpt lat="44.34229" lon="0.64692">
        <ele>190.96</ele>
        <time>2023-05-28T13:59:19Z</time>
      </trkpt>
      <trkpt lat="44.34216" lon="0.64699">
        <ele>189.52</ele>
        <time>2023-05-28T13:59:28Z</time>
      </trkpt>
      <trkpt lat="44.34201" lon="0.64705">
        <ele>190.96</ele>
        <time>2023-05-28T13:59:36Z</time>
      </trkpt>
      <trkpt lat="44.34187" lon="0.64709">
        <ele>191.92</ele>
        <time>2023-05-28T13:59:44Z</time>
      </trkpt>
      <trkpt lat="44.34173" lon="0.64709">
        <ele>191.92</ele>
        <time>2023-05-28T13:59:51Z</time>
      </trkpt>
      <trkpt lat="44.3416" lon="0.64704">
        <ele>192.4</ele>
        <time>2023-05-28T13:59:54Z</time>
      </trkpt>
      <trkpt lat="44.34149" lon="0.64702">
        <ele>192.88</ele>
        <time>2023-05-28T13:59:59Z</time>
      </trkpt>
      <trkpt lat="44.34137" lon="0.64699">
        <ele>193.84</ele>
        <time>2023-05-28T14:00:05Z</time>
      </trkpt>
      <trkpt lat="44.34126" lon="0.64696">
        <ele>193.84</ele>
        <time>2023-05-28T14:00:12Z</time>
      </trkpt>
      <trkpt lat="44.34116" lon="0.64696">
        <ele>193.84</ele>
        <time>2023-05-28T14:00:18Z</time>
      </trkpt>
      <trkpt lat="44.34106" lon="0.64695">
        <ele>193.84</ele>
        <time>2023-05-28T14:00:23Z</time>
      </trkpt>
      <trkpt lat="44.34094" lon="0.64693">
        <ele>194.8</ele>
        <time>2023-05-28T14:00:27Z</time>
      </trkpt>
      <trkpt lat="44.34084" lon="0.64689">
        <ele>194.8</ele>
        <time>2023-05-28T14:00:32Z</time>
      </trkpt>
      <trkpt lat="44.34073" lon="0.64687">
        <ele>194.8</ele>
        <time>2023-05-28T14:00:38Z</time>
      </trkpt>
      <trkpt lat="44.34064" lon="0.64683">
        <ele>194.32</ele>
        <time>2023-05-28T14:00:44Z</time>
      </trkpt>
      <trkpt lat="44.34053" lon="0.6468">
        <ele>194.32</ele>
        <time>2023-05-28T14:00:51Z</time>
      </trkpt>
      <trkpt lat="44.34044" lon="0.64679">
        <ele>194.32</ele>
        <time>2023-05-28T14:00:57Z</time>
      </trkpt>
      <trkpt lat="44.34033" lon="0.64679">
        <ele>193.84</ele>
        <time>2023-05-28T14:01:04Z</time>
      </trkpt>
      <trkpt lat="44.34021" lon="0.64681">
        <ele>192.88</ele>
        <time>2023-05-28T14:01:12Z</time>
      </trkpt>
      <trkpt lat="44.34005" lon="0.64678">
        <ele>191.92</ele>
        <time>2023-05-28T14:01:22Z</time>
      </trkpt>
      <trkpt lat="44.33989" lon="0.64676">
        <ele>191.92</ele>
        <time>2023-05-28T14:01:31Z</time>
      </trkpt>
      <trkpt lat="44.33976" lon="0.64675">
        <ele>192.88</ele>
        <time>2023-05-28T14:01:38Z</time>
      </trkpt>
      <trkpt lat="44.33965" lon="0.64675">
        <ele>193.36</ele>
        <time>2023-05-28T14:01:44Z</time>
      </trkpt>
      <trkpt lat="44.33954" lon="0.64674">
        <ele>192.88</ele>
        <time>2023-05-28T14:01:51Z</time>
      </trkpt>
      <trkpt lat="44.33942" lon="0.64673">
        <ele>192.4</ele>
        <time>2023-05-28T14:01:59Z</time>
      </trkpt>
      <trkpt lat="44.33938" lon="0.64656">
        <ele>192.4</ele>
        <time>2023-05-28T14:02:06Z</time>
      </trkpt>
      <trkpt lat="44.33936" lon="0.6464">
        <ele>192.4</ele>
        <time>2023-05-28T14:02:12Z</time>
      </trkpt>
      <trkpt lat="44.33934" lon="0.64626">
        <ele>195.28</ele>
        <time>2023-05-28T14:02:18Z</time>
      </trkpt>
      <trkpt lat="44.33933" lon="0.64612">
        <ele>197.21</ele>
        <time>2023-05-28T14:02:24Z</time>
      </trkpt>
      <trkpt lat="44.33933" lon="0.64599">
        <ele>197.21</ele>
        <time>2023-05-28T14:02:30Z</time>
      </trkpt>
      <trkpt lat="44.33933" lon="0.64585">
        <ele>197.21</ele>
        <time>2023-05-28T14:02:36Z</time>
      </trkpt>
      <trkpt lat="44.33933" lon="0.64571">
        <ele>196.73</ele>
        <time>2023-05-28T14:02:42Z</time>
      </trkpt>
      <trkpt lat="44.33933" lon="0.64556">
        <ele>195.77</ele>
        <time>2023-05-28T14:02:49Z</time>
      </trkpt>
      <trkpt lat="44.33934" lon="0.64542">
        <ele>195.28</ele>
        <time>2023-05-28T14:02:55Z</time>
      </trkpt>
      <trkpt lat="44.33935" lon="0.64527">
        <ele>194.32</ele>
        <time>2023-05-28T14:03:01Z</time>
      </trkpt>
      <trkpt lat="44.33934" lon="0.64513">
        <ele>193.36</ele>
        <time>2023-05-28T14:03:07Z</time>
      </trkpt>
      <trkpt lat="44.33933" lon="0.64499">
        <ele>192.4</ele>
        <time>2023-05-28T14:03:13Z</time>
      </trkpt>
      <trkpt lat="44.33933" lon="0.64482">
        <ele>190.96</ele>
        <time>2023-05-28T14:03:20Z</time>
      </trkpt>
      <trkpt lat="44.33934" lon="0.64467">
        <ele>190.48</ele>
        <time>2023-05-28T14:03:26Z</time>
      </trkpt>
      <trkpt lat="44.33935" lon="0.64451">
        <ele>190</ele>
        <time>2023-05-28T14:03:33Z</time>
      </trkpt>
      <trkpt lat="44.33939" lon="0.64437">
        <ele>189.52</ele>
        <time>2023-05-28T14:03:39Z</time>
      </trkpt>
      <trkpt lat="44.33945" lon="0.64423">
        <ele>190</ele>
        <time>2023-05-28T14:03:45Z</time>
      </trkpt>
      <trkpt lat="44.33951" lon="0.64411">
        <ele>190.48</ele>
        <time>2023-05-28T14:03:51Z</time>
      </trkpt>
      <trkpt lat="44.33958" lon="0.64398">
        <ele>190.96</ele>
        <time>2023-05-28T14:03:59Z</time>
      </trkpt>
      <trkpt lat="44.33966" lon="0.64388">
        <ele>190.96</ele>
        <time>2023-05-28T14:04:07Z</time>
      </trkpt>
      <trkpt lat="44.33976" lon="0.64377">
        <ele>190.96</ele>
        <time>2023-05-28T14:04:17Z</time>
      </trkpt>
      <trkpt lat="44.33994" lon="0.64354">
        <ele>191.92</ele>
        <time>2023-05-28T14:04:30Z</time>
      </trkpt>
      <trkpt lat="44.34005" lon="0.64341">
        <ele>194.32</ele>
        <time>2023-05-28T14:04:38Z</time>
      </trkpt>
      <trkpt lat="44.34011" lon="0.64329">
        <ele>194.32</ele>
        <time>2023-05-28T14:04:45Z</time>
      </trkpt>
      <trkpt lat="44.34018" lon="0.64318">
        <ele>193.84</ele>
        <time>2023-05-28T14:04:53Z</time>
      </trkpt>
      <trkpt lat="44.34024" lon="0.64305">
        <ele>194.8</ele>
        <time>2023-05-28T14:05:00Z</time>
      </trkpt>
      <trkpt lat="44.3403" lon="0.64293">
        <ele>195.28</ele>
        <time>2023-05-28T14:05:07Z</time>
      </trkpt>
      <trkpt lat="44.34036" lon="0.64281">
        <ele>196.25</ele>
        <time>2023-05-28T14:05:14Z</time>
      </trkpt>
      <trkpt lat="44.34042" lon="0.64268">
        <ele>197.69</ele>
        <time>2023-05-28T14:05:21Z</time>
      </trkpt>
      <trkpt lat="44.34047" lon="0.64257">
        <ele>196.73</ele>
        <time>2023-05-28T14:05:27Z</time>
      </trkpt>
      <trkpt lat="44.34053" lon="0.64245">
        <ele>197.21</ele>
        <time>2023-05-28T14:05:33Z</time>
      </trkpt>
      <trkpt lat="44.34059" lon="0.64233">
        <ele>197.69</ele>
        <time>2023-05-28T14:05:40Z</time>
      </trkpt>
      <trkpt lat="44.34066" lon="0.64222">
        <ele>197.69</ele>
        <time>2023-05-28T14:05:46Z</time>
      </trkpt>
      <trkpt lat="44.34071" lon="0.6421">
        <ele>197.21</ele>
        <time>2023-05-28T14:05:52Z</time>
      </trkpt>
      <trkpt lat="44.34076" lon="0.64198">
        <ele>196.73</ele>
        <time>2023-05-28T14:05:58Z</time>
      </trkpt>
      <trkpt lat="44.34082" lon="0.64186">
        <ele>196.73</ele>
        <time>2023-05-28T14:06:04Z</time>
      </trkpt>
      <trkpt lat="44.34087" lon="0.64174">
        <ele>196.25</ele>
        <time>2023-05-28T14:06:10Z</time>
      </trkpt>
      <trkpt lat="44.34092" lon="0.64162">
        <ele>196.73</ele>
        <time>2023-05-28T14:06:16Z</time>
      </trkpt>
      <trkpt lat="44.34097" lon="0.64149">
        <ele>196.73</ele>
        <time>2023-05-28T14:06:22Z</time>
      </trkpt>
      <trkpt lat="44.34101" lon="0.64138">
        <ele>197.21</ele>
        <time>2023-05-28T14:06:28Z</time>
      </trkpt>
      <trkpt lat="44.34106" lon="0.64127">
        <ele>197.21</ele>
        <time>2023-05-28T14:06:34Z</time>
      </trkpt>
      <trkpt lat="44.3411" lon="0.64114">
        <ele>197.21</ele>
        <time>2023-05-28T14:06:41Z</time>
      </trkpt>
      <trkpt lat="44.34115" lon="0.64099">
        <ele>197.69</ele>
        <time>2023-05-28T14:06:48Z</time>
      </trkpt>
      <trkpt lat="44.3412" lon="0.64087">
        <ele>197.21</ele>
        <time>2023-05-28T14:06:54Z</time>
      </trkpt>
      <trkpt lat="44.34126" lon="0.64075">
        <ele>197.69</ele>
        <time>2023-05-28T14:07:00Z</time>
      </trkpt>
      <trkpt lat="44.34132" lon="0.64063">
        <ele>197.69</ele>
        <time>2023-05-28T14:07:06Z</time>
      </trkpt>
      <trkpt lat="44.34135" lon="0.64051">
        <ele>198.17</ele>
        <time>2023-05-28T14:07:12Z</time>
      </trkpt>
      <trkpt lat="44.3414" lon="0.64036">
        <ele>198.65</ele>
        <time>2023-05-28T14:07:19Z</time>
      </trkpt>
      <trkpt lat="44.34144" lon="0.64022">
        <ele>199.13</ele>
        <time>2023-05-28T14:07:26Z</time>
      </trkpt>
      <trkpt lat="44.34147" lon="0.64007">
        <ele>199.13</ele>
        <time>2023-05-28T14:07:33Z</time>
      </trkpt>
      <trkpt lat="44.34149" lon="0.63991">
        <ele>198.65</ele>
        <time>2023-05-28T14:07:41Z</time>
      </trkpt>
      <trkpt lat="44.34151" lon="0.63973">
        <ele>199.13</ele>
        <time>2023-05-28T14:07:49Z</time>
      </trkpt>
      <trkpt lat="44.34153" lon="0.63957">
        <ele>198.65</ele>
        <time>2023-05-28T14:07:56Z</time>
      </trkpt>
      <trkpt lat="44.34154" lon="0.63935">
        <ele>199.13</ele>
        <time>2023-05-28T14:08:09Z</time>
      </trkpt>
      <trkpt lat="44.34155" lon="0.63915">
        <ele>198.17</ele>
        <time>2023-05-28T14:08:18Z</time>
      </trkpt>
      <trkpt lat="44.34157" lon="0.63894">
        <ele>197.69</ele>
        <time>2023-05-28T14:08:27Z</time>
      </trkpt>
      <trkpt lat="44.34158" lon="0.63878">
        <ele>197.69</ele>
        <time>2023-05-28T14:08:35Z</time>
      </trkpt>
      <trkpt lat="44.34158" lon="0.6386">
        <ele>198.65</ele>
        <time>2023-05-28T14:08:43Z</time>
      </trkpt>
      <trkpt lat="44.34158" lon="0.63842">
        <ele>197.69</ele>
        <time>2023-05-28T14:08:51Z</time>
      </trkpt>
      <trkpt lat="44.34159" lon="0.63827">
        <ele>197.21</ele>
        <time>2023-05-28T14:08:58Z</time>
      </trkpt>
      <trkpt lat="44.34159" lon="0.63812">
        <ele>196.73</ele>
        <time>2023-05-28T14:09:05Z</time>
      </trkpt>
      <trkpt lat="44.34161" lon="0.63794">
        <ele>197.69</ele>
        <time>2023-05-28T14:09:12Z</time>
      </trkpt>
      <trkpt lat="44.34163" lon="0.63778">
        <ele>198.17</ele>
        <time>2023-05-28T14:09:18Z</time>
      </trkpt>
      <trkpt lat="44.34166" lon="0.63765">
        <ele>199.13</ele>
        <time>2023-05-28T14:09:24Z</time>
      </trkpt>
      <trkpt lat="44.34169" lon="0.63751">
        <ele>200.09</ele>
        <time>2023-05-28T14:09:31Z</time>
      </trkpt>
      <trkpt lat="44.34172" lon="0.63737">
        <ele>200.09</ele>
        <time>2023-05-28T14:09:37Z</time>
      </trkpt>
      <trkpt lat="44.34176" lon="0.63724">
        <ele>199.61</ele>
        <time>2023-05-28T14:09:43Z</time>
      </trkpt>
      <trkpt lat="44.34181" lon="0.63711">
        <ele>199.61</ele>
        <time>2023-05-28T14:09:49Z</time>
      </trkpt>
      <trkpt lat="44.34184" lon="0.63699">
        <ele>199.13</ele>
        <time>2023-05-28T14:09:55Z</time>
      </trkpt>
      <trkpt lat="44.34187" lon="0.63684">
        <ele>198.65</ele>
        <time>2023-05-28T14:10:02Z</time>
      </trkpt>
      <trkpt lat="44.34189" lon="0.6367">
        <ele>198.65</ele>
        <time>2023-05-28T14:10:10Z</time>
      </trkpt>
      <trkpt lat="44.34188" lon="0.63655">
        <ele>198.65</ele>
        <time>2023-05-28T14:10:17Z</time>
      </trkpt>
      <trkpt lat="44.34186" lon="0.63641">
        <ele>199.61</ele>
        <time>2023-05-28T14:10:24Z</time>
      </trkpt>
      <trkpt lat="44.34182" lon="0.63627">
        <ele>200.09</ele>
        <time>2023-05-28T14:10:31Z</time>
      </trkpt>
      <trkpt lat="44.3418" lon="0.63612">
        <ele>200.57</ele>
        <time>2023-05-28T14:10:38Z</time>
      </trkpt>
      <trkpt lat="44.34179" lon="0.63598">
        <ele>200.57</ele>
        <time>2023-05-28T14:10:44Z</time>
      </trkpt>
      <trkpt lat="44.34178" lon="0.63583">
        <ele>201.05</ele>
        <time>2023-05-28T14:10:51Z</time>
      </trkpt>
      <trkpt lat="44.34178" lon="0.63569">
        <ele>201.53</ele>
        <time>2023-05-28T14:10:57Z</time>
      </trkpt>
      <trkpt lat="44.34178" lon="0.63554">
        <ele>202.01</ele>
        <time>2023-05-28T14:11:03Z</time>
      </trkpt>
      <trkpt lat="44.34178" lon="0.63541">
        <ele>202.49</ele>
        <time>2023-05-28T14:11:08Z</time>
      </trkpt>
      <trkpt lat="44.34178" lon="0.63526">
        <ele>202.01</ele>
        <time>2023-05-28T14:11:15Z</time>
      </trkpt>
      <trkpt lat="44.34179" lon="0.63511">
        <ele>201.53</ele>
        <time>2023-05-28T14:11:22Z</time>
      </trkpt>
      <trkpt lat="44.34179" lon="0.63494">
        <ele>200.57</ele>
        <time>2023-05-28T14:11:29Z</time>
      </trkpt>
      <trkpt lat="44.34182" lon="0.63479">
        <ele>199.61</ele>
        <time>2023-05-28T14:11:36Z</time>
      </trkpt>
      <trkpt lat="44.34186" lon="0.63464">
        <ele>199.13</ele>
        <time>2023-05-28T14:11:43Z</time>
      </trkpt>
      <trkpt lat="44.34191" lon="0.63452">
        <ele>199.61</ele>
        <time>2023-05-28T14:11:49Z</time>
      </trkpt>
      <trkpt lat="44.34194" lon="0.63439">
        <ele>199.61</ele>
        <time>2023-05-28T14:11:55Z</time>
      </trkpt>
      <trkpt lat="44.34199" lon="0.63428">
        <ele>200.09</ele>
        <time>2023-05-28T14:12:01Z</time>
      </trkpt>
      <trkpt lat="44.34204" lon="0.63414">
        <ele>200.57</ele>
        <time>2023-05-28T14:12:08Z</time>
      </trkpt>
      <trkpt lat="44.34209" lon="0.63401">
        <ele>200.09</ele>
        <time>2023-05-28T14:12:15Z</time>
      </trkpt>
      <trkpt lat="44.34214" lon="0.63388">
        <ele>200.09</ele>
        <time>2023-05-28T14:12:22Z</time>
      </trkpt>
      <trkpt lat="44.3422" lon="0.63374">
        <ele>199.13</ele>
        <time>2023-05-28T14:12:29Z</time>
      </trkpt>
      <trkpt lat="44.34224" lon="0.63359">
        <ele>198.65</ele>
        <time>2023-05-28T14:12:36Z</time>
      </trkpt>
      <trkpt lat="44.3423" lon="0.63342">
        <ele>196.73</ele>
        <time>2023-05-28T14:19:27Z</time>
      </trkpt>
      <trkpt lat="44.34235" lon="0.63331">
        <ele>196.25</ele>
        <time>2023-05-28T14:19:35Z</time>
      </trkpt>
      <trkpt lat="44.34238" lon="0.63316">
        <ele>196.73</ele>
        <time>2023-05-28T14:19:42Z</time>
      </trkpt>
      <trkpt lat="44.34243" lon="0.63304">
        <ele>197.69</ele>
        <time>2023-05-28T14:19:49Z</time>
      </trkpt>
      <trkpt lat="44.34247" lon="0.63289">
        <ele>197.69</ele>
        <time>2023-05-28T14:19:57Z</time>
      </trkpt>
      <trkpt lat="44.3425" lon="0.63275">
        <ele>196.73</ele>
        <time>2023-05-28T14:20:05Z</time>
      </trkpt>
      <trkpt lat="44.34255" lon="0.63259">
        <ele>196.25</ele>
        <time>2023-05-28T14:20:13Z</time>
      </trkpt>
      <trkpt lat="44.34259" lon="0.63243">
        <ele>196.73</ele>
        <time>2023-05-28T14:20:20Z</time>
      </trkpt>
      <trkpt lat="44.34262" lon="0.63231">
        <ele>197.69</ele>
        <time>2023-05-28T14:20:26Z</time>
      </trkpt>
      <trkpt lat="44.34264" lon="0.63217">
        <ele>197.69</ele>
        <time>2023-05-28T14:20:33Z</time>
      </trkpt>
      <trkpt lat="44.34267" lon="0.63203">
        <ele>197.21</ele>
        <time>2023-05-28T14:20:40Z</time>
      </trkpt>
      <trkpt lat="44.34271" lon="0.63188">
        <ele>197.21</ele>
        <time>2023-05-28T14:20:47Z</time>
      </trkpt>
      <trkpt lat="44.34275" lon="0.63176">
        <ele>197.69</ele>
        <time>2023-05-28T14:20:53Z</time>
      </trkpt>
      <trkpt lat="44.34278" lon="0.63163">
        <ele>197.69</ele>
        <time>2023-05-28T14:20:59Z</time>
      </trkpt>
      <trkpt lat="44.34281" lon="0.6315">
        <ele>198.17</ele>
        <time>2023-05-28T14:21:05Z</time>
      </trkpt>
      <trkpt lat="44.34284" lon="0.63138">
        <ele>198.17</ele>
        <time>2023-05-28T14:21:11Z</time>
      </trkpt>
      <trkpt lat="44.34287" lon="0.63124">
        <ele>198.17</ele>
        <time>2023-05-28T14:21:18Z</time>
      </trkpt>
      <trkpt lat="44.3429" lon="0.63112">
        <ele>197.69</ele>
        <time>2023-05-28T14:21:24Z</time>
      </trkpt>
      <trkpt lat="44.34293" lon="0.631">
        <ele>197.21</ele>
        <time>2023-05-28T14:21:31Z</time>
      </trkpt>
      <trkpt lat="44.34295" lon="0.63085">
        <ele>197.21</ele>
        <time>2023-05-28T14:21:38Z</time>
      </trkpt>
      <trkpt lat="44.34296" lon="0.63072">
        <ele>196.73</ele>
        <time>2023-05-28T14:21:44Z</time>
      </trkpt>
      <trkpt lat="44.34298" lon="0.63058">
        <ele>196.25</ele>
        <time>2023-05-28T14:21:51Z</time>
      </trkpt>
      <trkpt lat="44.343" lon="0.63043">
        <ele>196.25</ele>
        <time>2023-05-28T14:21:58Z</time>
      </trkpt>
      <trkpt lat="44.34303" lon="0.63029">
        <ele>196.25</ele>
        <time>2023-05-28T14:22:05Z</time>
      </trkpt>
      <trkpt lat="44.34307" lon="0.63016">
        <ele>195.77</ele>
        <time>2023-05-28T14:22:12Z</time>
      </trkpt>
      <trkpt lat="44.34313" lon="0.63006">
        <ele>195.28</ele>
        <time>2023-05-28T14:22:19Z</time>
      </trkpt>
      <trkpt lat="44.3432" lon="0.62994">
        <ele>194.8</ele>
        <time>2023-05-28T14:22:27Z</time>
      </trkpt>
      <trkpt lat="44.34329" lon="0.62981">
        <ele>194.32</ele>
        <time>2023-05-28T14:22:35Z</time>
      </trkpt>
      <trkpt lat="44.34337" lon="0.6297">
        <ele>194.8</ele>
        <time>2023-05-28T14:22:42Z</time>
      </trkpt>
      <trkpt lat="44.34344" lon="0.62959">
        <ele>195.77</ele>
        <time>2023-05-28T14:22:49Z</time>
      </trkpt>
      <trkpt lat="44.34352" lon="0.6295">
        <ele>196.73</ele>
        <time>2023-05-28T14:22:56Z</time>
      </trkpt>
      <trkpt lat="44.3436" lon="0.62943">
        <ele>197.69</ele>
        <time>2023-05-28T14:23:02Z</time>
      </trkpt>
      <trkpt lat="44.34368" lon="0.62933">
        <ele>198.17</ele>
        <time>2023-05-28T14:23:09Z</time>
      </trkpt>
      <trkpt lat="44.34378" lon="0.62927">
        <ele>198.65</ele>
        <time>2023-05-28T14:23:16Z</time>
      </trkpt>
      <trkpt lat="44.34387" lon="0.62919">
        <ele>200.57</ele>
        <time>2023-05-28T14:23:22Z</time>
      </trkpt>
      <trkpt lat="44.34394" lon="0.62908">
        <ele>201.53</ele>
        <time>2023-05-28T14:23:29Z</time>
      </trkpt>
      <trkpt lat="44.34401" lon="0.62897">
        <ele>201.53</ele>
        <time>2023-05-28T14:23:36Z</time>
      </trkpt>
      <trkpt lat="44.34407" lon="0.62886">
        <ele>201.53</ele>
        <time>2023-05-28T14:23:43Z</time>
      </trkpt>
      <trkpt lat="44.34414" lon="0.62873">
        <ele>201.05</ele>
        <time>2023-05-28T14:23:51Z</time>
      </trkpt>
      <trkpt lat="44.34422" lon="0.62861">
        <ele>201.53</ele>
        <time>2023-05-28T14:23:58Z</time>
      </trkpt>
      <trkpt lat="44.34427" lon="0.62849">
        <ele>202.01</ele>
        <time>2023-05-28T14:24:06Z</time>
      </trkpt>
      <trkpt lat="44.34434" lon="0.62837">
        <ele>202.98</ele>
        <time>2023-05-28T14:24:13Z</time>
      </trkpt>
      <trkpt lat="44.34441" lon="0.62824">
        <ele>204.42</ele>
        <time>2023-05-28T14:24:21Z</time>
      </trkpt>
      <trkpt lat="44.34447" lon="0.62811">
        <ele>206.34</ele>
        <time>2023-05-28T14:24:29Z</time>
      </trkpt>
      <trkpt lat="44.34454" lon="0.62801">
        <ele>206.82</ele>
        <time>2023-05-28T14:24:36Z</time>
      </trkpt>
      <trkpt lat="44.34461" lon="0.62789">
        <ele>209.22</ele>
        <time>2023-05-28T14:24:43Z</time>
      </trkpt>
      <trkpt lat="44.34467" lon="0.62779">
        <ele>210.67</ele>
        <time>2023-05-28T14:24:50Z</time>
      </trkpt>
      <trkpt lat="44.34476" lon="0.62769">
        <ele>211.15</ele>
        <time>2023-05-28T14:24:58Z</time>
      </trkpt>
      <trkpt lat="44.34482" lon="0.62759">
        <ele>211.15</ele>
        <time>2023-05-28T14:25:05Z</time>
      </trkpt>
      <trkpt lat="44.3449" lon="0.62748">
        <ele>211.15</ele>
        <time>2023-05-28T14:25:13Z</time>
      </trkpt>
      <trkpt lat="44.34498" lon="0.62737">
        <ele>211.63</ele>
        <time>2023-05-28T14:25:20Z</time>
      </trkpt>
      <trkpt lat="44.34505" lon="0.62726">
        <ele>211.63</ele>
        <time>2023-05-28T14:25:27Z</time>
      </trkpt>
      <trkpt lat="44.3451" lon="0.62714">
        <ele>211.15</ele>
        <time>2023-05-28T14:25:34Z</time>
      </trkpt>
      <trkpt lat="44.34516" lon="0.62701">
        <ele>212.11</ele>
        <time>2023-05-28T14:25:42Z</time>
      </trkpt>
      <trkpt lat="44.3452" lon="0.62688">
        <ele>212.11</ele>
        <time>2023-05-28T14:25:49Z</time>
      </trkpt>
      <trkpt lat="44.34527" lon="0.62672">
        <ele>212.11</ele>
        <time>2023-05-28T14:25:57Z</time>
      </trkpt>
      <trkpt lat="44.34536" lon="0.62663">
        <ele>211.63</ele>
        <time>2023-05-28T14:26:04Z</time>
      </trkpt>
      <trkpt lat="44.34544" lon="0.62656">
        <ele>212.59</ele>
        <time>2023-05-28T14:26:10Z</time>
      </trkpt>
      <trkpt lat="44.34553" lon="0.62647">
        <ele>212.59</ele>
        <time>2023-05-28T14:26:17Z</time>
      </trkpt>
      <trkpt lat="44.3456" lon="0.62635">
        <ele>211.15</ele>
        <time>2023-05-28T14:26:24Z</time>
      </trkpt>
      <trkpt lat="44.34569" lon="0.62622">
        <ele>210.67</ele>
        <time>2023-05-28T14:26:32Z</time>
      </trkpt>
      <trkpt lat="44.34578" lon="0.62607">
        <ele>209.22</ele>
        <time>2023-05-28T14:26:41Z</time>
      </trkpt>
      <trkpt lat="44.34585" lon="0.62591">
        <ele>207.3</ele>
        <time>2023-05-28T14:26:50Z</time>
      </trkpt>
      <trkpt lat="44.34594" lon="0.62576">
        <ele>207.3</ele>
        <time>2023-05-28T14:26:58Z</time>
      </trkpt>
      <trkpt lat="44.34601" lon="0.62564">
        <ele>207.78</ele>
        <time>2023-05-28T14:27:05Z</time>
      </trkpt>
      <trkpt lat="44.34607" lon="0.62553">
        <ele>207.3</ele>
        <time>2023-05-28T14:27:12Z</time>
      </trkpt>
      <trkpt lat="44.34614" lon="0.62538">
        <ele>205.86</ele>
        <time>2023-05-28T14:27:21Z</time>
      </trkpt>
      <trkpt lat="44.34623" lon="0.62524">
        <ele>205.86</ele>
        <time>2023-05-28T14:27:30Z</time>
      </trkpt>
      <trkpt lat="44.34634" lon="0.62503">
        <ele>204.9</ele>
        <time>2023-05-28T14:27:41Z</time>
      </trkpt>
      <trkpt lat="44.34644" lon="0.62489">
        <ele>203.94</ele>
        <time>2023-05-28T14:27:50Z</time>
      </trkpt>
      <trkpt lat="44.34653" lon="0.62474">
        <ele>203.46</ele>
        <time>2023-05-28T14:27:58Z</time>
      </trkpt>
      <trkpt lat="44.34662" lon="0.6246">
        <ele>202.98</ele>
        <time>2023-05-28T14:28:07Z</time>
      </trkpt>
      <trkpt lat="44.34676" lon="0.6244">
        <ele>201.53</ele>
        <time>2023-05-28T14:28:21Z</time>
      </trkpt>
      <trkpt lat="44.34683" lon="0.62429">
        <ele>197.69</ele>
        <time>2023-05-28T14:28:29Z</time>
      </trkpt>
      <trkpt lat="44.34692" lon="0.6242">
        <ele>193.36</ele>
        <time>2023-05-28T14:28:37Z</time>
      </trkpt>
      <trkpt lat="44.34704" lon="0.6241">
        <ele>190.96</ele>
        <time>2023-05-28T14:28:45Z</time>
      </trkpt>
      <trkpt lat="44.34714" lon="0.62401">
        <ele>190</ele>
        <time>2023-05-28T14:28:52Z</time>
      </trkpt>
      <trkpt lat="44.34724" lon="0.62392">
        <ele>188.08</ele>
        <time>2023-05-28T14:28:59Z</time>
      </trkpt>
      <trkpt lat="44.34734" lon="0.62383">
        <ele>185.19</ele>
        <time>2023-05-28T14:29:08Z</time>
      </trkpt>
      <trkpt lat="44.34745" lon="0.62373">
        <ele>183.27</ele>
        <time>2023-05-28T14:29:16Z</time>
      </trkpt>
      <trkpt lat="44.34754" lon="0.62365">
        <ele>181.35</ele>
        <time>2023-05-28T14:29:23Z</time>
      </trkpt>
      <trkpt lat="44.3476" lon="0.62347">
        <ele>181.35</ele>
        <time>2023-05-28T14:29:30Z</time>
      </trkpt>
      <trkpt lat="44.34767" lon="0.62331">
        <ele>181.83</ele>
        <time>2023-05-28T14:29:37Z</time>
      </trkpt>
      <trkpt lat="44.34774" lon="0.62322">
        <ele>182.31</ele>
        <time>2023-05-28T14:29:43Z</time>
      </trkpt>
      <trkpt lat="44.34784" lon="0.62312">
        <ele>183.27</ele>
        <time>2023-05-28T14:29:50Z</time>
      </trkpt>
      <trkpt lat="44.34792" lon="0.62304">
        <ele>184.71</ele>
        <time>2023-05-28T14:29:56Z</time>
      </trkpt>
      <trkpt lat="44.348" lon="0.62295">
        <ele>185.19</ele>
        <time>2023-05-28T14:30:02Z</time>
      </trkpt>
      <trkpt lat="44.34807" lon="0.62286">
        <ele>185.19</ele>
        <time>2023-05-28T14:30:08Z</time>
      </trkpt>
      <trkpt lat="44.34813" lon="0.62277">
        <ele>185.67</ele>
        <time>2023-05-28T14:30:14Z</time>
      </trkpt>
      <trkpt lat="44.34821" lon="0.62266">
        <ele>185.19</ele>
        <time>2023-05-28T14:30:20Z</time>
      </trkpt>
      <trkpt lat="44.34827" lon="0.62256">
        <ele>184.71</ele>
        <time>2023-05-28T14:30:26Z</time>
      </trkpt>
      <trkpt lat="44.34833" lon="0.62244">
        <ele>184.71</ele>
        <time>2023-05-28T14:30:33Z</time>
      </trkpt>
      <trkpt lat="44.34839" lon="0.62233">
        <ele>184.23</ele>
        <time>2023-05-28T14:30:39Z</time>
      </trkpt>
      <trkpt lat="44.34844" lon="0.62222">
        <ele>183.75</ele>
        <time>2023-05-28T14:30:45Z</time>
      </trkpt>
      <trkpt lat="44.3485" lon="0.62208">
        <ele>183.27</ele>
        <time>2023-05-28T14:30:52Z</time>
      </trkpt>
      <trkpt lat="44.34855" lon="0.62197">
        <ele>183.27</ele>
        <time>2023-05-28T14:30:58Z</time>
      </trkpt>
      <trkpt lat="44.3486" lon="0.62184">
        <ele>183.27</ele>
        <time>2023-05-28T14:31:05Z</time>
      </trkpt>
      <trkpt lat="44.34865" lon="0.62171">
        <ele>183.27</ele>
        <time>2023-05-28T14:31:11Z</time>
      </trkpt>
      <trkpt lat="44.3487" lon="0.62158">
        <ele>183.27</ele>
        <time>2023-05-28T14:31:18Z</time>
      </trkpt>
      <trkpt lat="44.34874" lon="0.62145">
        <ele>182.79</ele>
        <time>2023-05-28T14:31:24Z</time>
      </trkpt>
      <trkpt lat="44.3488" lon="0.62134">
        <ele>183.27</ele>
        <time>2023-05-28T14:31:30Z</time>
      </trkpt>
      <trkpt lat="44.34886" lon="0.62123">
        <ele>183.75</ele>
        <time>2023-05-28T14:31:36Z</time>
      </trkpt>
      <trkpt lat="44.34893" lon="0.62111">
        <ele>183.75</ele>
        <time>2023-05-28T14:31:43Z</time>
      </trkpt>
      <trkpt lat="44.34898" lon="0.621">
        <ele>184.23</ele>
        <time>2023-05-28T14:31:49Z</time>
      </trkpt>
      <trkpt lat="44.34905" lon="0.62089">
        <ele>185.19</ele>
        <time>2023-05-28T14:31:55Z</time>
      </trkpt>
      <trkpt lat="44.34911" lon="0.62079">
        <ele>185.67</ele>
        <time>2023-05-28T14:32:01Z</time>
      </trkpt>
      <trkpt lat="44.34918" lon="0.62067">
        <ele>185.67</ele>
        <time>2023-05-28T14:32:08Z</time>
      </trkpt>
      <trkpt lat="44.34924" lon="0.62055">
        <ele>185.19</ele>
        <time>2023-05-28T14:32:15Z</time>
      </trkpt>
      <trkpt lat="44.34931" lon="0.62046">
        <ele>185.19</ele>
        <time>2023-05-28T14:32:21Z</time>
      </trkpt>
      <trkpt lat="44.34939" lon="0.62036">
        <ele>185.67</ele>
        <time>2023-05-28T14:32:28Z</time>
      </trkpt>
      <trkpt lat="44.34946" lon="0.62026">
        <ele>185.19</ele>
        <time>2023-05-28T14:32:34Z</time>
      </trkpt>
      <trkpt lat="44.34953" lon="0.62018">
        <ele>185.19</ele>
        <time>2023-05-28T14:32:40Z</time>
      </trkpt>
      <trkpt lat="44.34961" lon="0.62008">
        <ele>185.19</ele>
        <time>2023-05-28T14:32:47Z</time>
      </trkpt>
      <trkpt lat="44.3497" lon="0.62001">
        <ele>185.19</ele>
        <time>2023-05-28T14:32:53Z</time>
      </trkpt>
      <trkpt lat="44.34978" lon="0.61993">
        <ele>185.19</ele>
        <time>2023-05-28T14:32:59Z</time>
      </trkpt>
      <trkpt lat="44.34987" lon="0.61987">
        <ele>185.19</ele>
        <time>2023-05-28T14:33:06Z</time>
      </trkpt>
      <trkpt lat="44.34996" lon="0.6198">
        <ele>185.67</ele>
        <time>2023-05-28T14:33:13Z</time>
      </trkpt>
      <trkpt lat="44.35005" lon="0.61974">
        <ele>185.67</ele>
        <time>2023-05-28T14:33:19Z</time>
      </trkpt>
      <trkpt lat="44.35013" lon="0.61968">
        <ele>186.15</ele>
        <time>2023-05-28T14:33:25Z</time>
      </trkpt>
      <trkpt lat="44.35022" lon="0.61962">
        <ele>186.15</ele>
        <time>2023-05-28T14:33:32Z</time>
      </trkpt>
      <trkpt lat="44.35031" lon="0.61957">
        <ele>187.11</ele>
        <time>2023-05-28T14:33:37Z</time>
      </trkpt>
      <trkpt lat="44.3504" lon="0.6195">
        <ele>187.59</ele>
        <time>2023-05-28T14:33:43Z</time>
      </trkpt>
      <trkpt lat="44.35049" lon="0.61942">
        <ele>188.08</ele>
        <time>2023-05-28T14:33:49Z</time>
      </trkpt>
      <trkpt lat="44.35057" lon="0.61934">
        <ele>188.08</ele>
        <time>2023-05-28T14:33:55Z</time>
      </trkpt>
      <trkpt lat="44.35066" lon="0.61925">
        <ele>187.59</ele>
        <time>2023-05-28T14:34:01Z</time>
      </trkpt>
      <trkpt lat="44.35074" lon="0.61916">
        <ele>187.59</ele>
        <time>2023-05-28T14:34:07Z</time>
      </trkpt>
      <trkpt lat="44.35082" lon="0.61908">
        <ele>187.59</ele>
        <time>2023-05-28T14:34:13Z</time>
      </trkpt>
      <trkpt lat="44.3509" lon="0.619">
        <ele>188.08</ele>
        <time>2023-05-28T14:34:20Z</time>
      </trkpt>
      <trkpt lat="44.35098" lon="0.61904">
        <ele>189.04</ele>
        <time>2023-05-28T14:34:27Z</time>
      </trkpt>
      <trkpt lat="44.351" lon="0.61918">
        <ele>189.52</ele>
        <time>2023-05-28T14:34:33Z</time>
      </trkpt>
      <trkpt lat="44.35102" lon="0.61932">
        <ele>190</ele>
        <time>2023-05-28T14:34:39Z</time>
      </trkpt>
      <trkpt lat="44.35104" lon="0.61947">
        <ele>190.48</ele>
        <time>2023-05-28T14:34:45Z</time>
      </trkpt>
      <trkpt lat="44.35105" lon="0.61961">
        <ele>190.96</ele>
        <time>2023-05-28T14:34:51Z</time>
      </trkpt>
      <trkpt lat="44.35105" lon="0.61974">
        <ele>192.4</ele>
        <time>2023-05-28T14:34:57Z</time>
      </trkpt>
      <trkpt lat="44.35107" lon="0.61988">
        <ele>192.4</ele>
        <time>2023-05-28T14:35:03Z</time>
      </trkpt>
      <trkpt lat="44.35108" lon="0.62001">
        <ele>192.4</ele>
        <time>2023-05-28T14:35:09Z</time>
      </trkpt>
      <trkpt lat="44.35109" lon="0.62015">
        <ele>192.88</ele>
        <time>2023-05-28T14:35:15Z</time>
      </trkpt>
      <trkpt lat="44.35111" lon="0.62028">
        <ele>193.84</ele>
        <time>2023-05-28T14:35:22Z</time>
      </trkpt>
      <trkpt lat="44.3512" lon="0.62018">
        <ele>194.32</ele>
        <time>2023-05-28T14:35:31Z</time>
      </trkpt>
      <trkpt lat="44.35127" lon="0.62007">
        <ele>194.8</ele>
        <time>2023-05-28T14:35:37Z</time>
      </trkpt>
      <trkpt lat="44.35134" lon="0.61996">
        <ele>194.8</ele>
        <time>2023-05-28T14:35:43Z</time>
      </trkpt>
      <trkpt lat="44.35142" lon="0.61986">
        <ele>195.28</ele>
        <time>2023-05-28T14:35:50Z</time>
      </trkpt>
      <trkpt lat="44.35149" lon="0.61975">
        <ele>194.8</ele>
        <time>2023-05-28T14:35:56Z</time>
      </trkpt>
      <trkpt lat="44.35155" lon="0.61965">
        <ele>194.8</ele>
        <time>2023-05-28T14:36:02Z</time>
      </trkpt>
      <trkpt lat="44.35162" lon="0.61955">
        <ele>194.8</ele>
        <time>2023-05-28T14:36:08Z</time>
      </trkpt>
      <trkpt lat="44.35169" lon="0.61945">
        <ele>194.32</ele>
        <time>2023-05-28T14:36:14Z</time>
      </trkpt>
      <trkpt lat="44.35176" lon="0.61936">
        <ele>194.32</ele>
        <time>2023-05-28T14:36:20Z</time>
      </trkpt>
      <trkpt lat="44.35183" lon="0.61927">
        <ele>194.32</ele>
        <time>2023-05-28T14:36:26Z</time>
      </trkpt>
      <trkpt lat="44.3519" lon="0.61917">
        <ele>193.84</ele>
        <time>2023-05-28T14:36:32Z</time>
      </trkpt>
      <trkpt lat="44.35196" lon="0.61907">
        <ele>193.36</ele>
        <time>2023-05-28T14:36:38Z</time>
      </trkpt>
      <trkpt lat="44.35203" lon="0.61896">
        <ele>193.36</ele>
        <time>2023-05-28T14:36:44Z</time>
      </trkpt>
      <trkpt lat="44.35209" lon="0.61887">
        <ele>193.36</ele>
        <time>2023-05-28T14:36:50Z</time>
      </trkpt>
      <trkpt lat="44.35215" lon="0.61877">
        <ele>192.88</ele>
        <time>2023-05-28T14:36:57Z</time>
      </trkpt>
      <trkpt lat="44.35223" lon="0.61866">
        <ele>192.88</ele>
        <time>2023-05-28T14:37:04Z</time>
      </trkpt>
      <trkpt lat="44.3523" lon="0.61857">
        <ele>192.88</ele>
        <time>2023-05-28T14:37:10Z</time>
      </trkpt>
      <trkpt lat="44.35238" lon="0.61848">
        <ele>193.36</ele>
        <time>2023-05-28T14:37:16Z</time>
      </trkpt>
      <trkpt lat="44.35245" lon="0.61839">
        <ele>192.88</ele>
        <time>2023-05-28T14:37:22Z</time>
      </trkpt>
      <trkpt lat="44.35252" lon="0.61828">
        <ele>192.88</ele>
        <time>2023-05-28T14:37:29Z</time>
      </trkpt>
      <trkpt lat="44.35259" lon="0.61818">
        <ele>192.88</ele>
        <time>2023-05-28T14:37:35Z</time>
      </trkpt>
      <trkpt lat="44.35267" lon="0.61808">
        <ele>191.92</ele>
        <time>2023-05-28T14:37:41Z</time>
      </trkpt>
      <trkpt lat="44.35275" lon="0.61801">
        <ele>191.44</ele>
        <time>2023-05-28T14:37:47Z</time>
      </trkpt>
      <trkpt lat="44.35284" lon="0.61794">
        <ele>190.48</ele>
        <time>2023-05-28T14:37:53Z</time>
      </trkpt>
      <trkpt lat="44.35293" lon="0.61789">
        <ele>190.48</ele>
        <time>2023-05-28T14:37:59Z</time>
      </trkpt>
      <trkpt lat="44.35303" lon="0.61784">
        <ele>190</ele>
        <time>2023-05-28T14:38:05Z</time>
      </trkpt>
      <trkpt lat="44.35312" lon="0.61779">
        <ele>190</ele>
        <time>2023-05-28T14:38:11Z</time>
      </trkpt>
      <trkpt lat="44.35321" lon="0.61775">
        <ele>190</ele>
        <time>2023-05-28T14:38:17Z</time>
      </trkpt>
      <trkpt lat="44.3533" lon="0.6177">
        <ele>190.48</ele>
        <time>2023-05-28T14:38:23Z</time>
      </trkpt>
      <trkpt lat="44.35339" lon="0.61765">
        <ele>190.48</ele>
        <time>2023-05-28T14:38:29Z</time>
      </trkpt>
      <trkpt lat="44.3535" lon="0.61759">
        <ele>190.48</ele>
        <time>2023-05-28T14:38:36Z</time>
      </trkpt>
      <trkpt lat="44.35359" lon="0.61752">
        <ele>189.52</ele>
        <time>2023-05-28T14:38:43Z</time>
      </trkpt>
      <trkpt lat="44.35368" lon="0.61744">
        <ele>189.04</ele>
        <time>2023-05-28T14:38:49Z</time>
      </trkpt>
      <trkpt lat="44.35375" lon="0.61736">
        <ele>188.56</ele>
        <time>2023-05-28T14:38:55Z</time>
      </trkpt>
      <trkpt lat="44.35382" lon="0.61728">
        <ele>188.56</ele>
        <time>2023-05-28T14:39:01Z</time>
      </trkpt>
      <trkpt lat="44.35389" lon="0.61721">
        <ele>188.56</ele>
        <time>2023-05-28T14:39:07Z</time>
      </trkpt>
      <trkpt lat="44.35396" lon="0.61712">
        <ele>188.08</ele>
        <time>2023-05-28T14:39:13Z</time>
      </trkpt>
      <trkpt lat="44.35403" lon="0.61702">
        <ele>188.08</ele>
        <time>2023-05-28T14:39:19Z</time>
      </trkpt>
      <trkpt lat="44.35408" lon="0.61691">
        <ele>188.08</ele>
        <time>2023-05-28T14:39:25Z</time>
      </trkpt>
      <trkpt lat="44.35414" lon="0.61678">
        <ele>187.59</ele>
        <time>2023-05-28T14:39:31Z</time>
      </trkpt>
      <trkpt lat="44.35419" lon="0.61666">
        <ele>187.11</ele>
        <time>2023-05-28T14:39:37Z</time>
      </trkpt>
      <trkpt lat="44.35423" lon="0.61653">
        <ele>186.15</ele>
        <time>2023-05-28T14:39:43Z</time>
      </trkpt>
      <trkpt lat="44.35428" lon="0.61642">
        <ele>186.15</ele>
        <time>2023-05-28T14:39:48Z</time>
      </trkpt>
      <trkpt lat="44.35433" lon="0.61629">
        <ele>185.67</ele>
        <time>2023-05-28T14:39:54Z</time>
      </trkpt>
      <trkpt lat="44.35437" lon="0.61616">
        <ele>185.19</ele>
        <time>2023-05-28T14:40:00Z</time>
      </trkpt>
      <trkpt lat="44.35442" lon="0.61603">
        <ele>184.71</ele>
        <time>2023-05-28T14:40:07Z</time>
      </trkpt>
      <trkpt lat="44.35447" lon="0.6159">
        <ele>184.23</ele>
        <time>2023-05-28T14:40:13Z</time>
      </trkpt>
      <trkpt lat="44.35451" lon="0.61577">
        <ele>183.75</ele>
        <time>2023-05-28T14:40:19Z</time>
      </trkpt>
      <trkpt lat="44.35455" lon="0.61565">
        <ele>183.27</ele>
        <time>2023-05-28T14:40:25Z</time>
      </trkpt>
      <trkpt lat="44.35461" lon="0.61553">
        <ele>182.31</ele>
        <time>2023-05-28T14:40:32Z</time>
      </trkpt>
      <trkpt lat="44.35467" lon="0.61541">
        <ele>180.87</ele>
        <time>2023-05-28T14:40:39Z</time>
      </trkpt>
      <trkpt lat="44.35474" lon="0.61531">
        <ele>180.87</ele>
        <time>2023-05-28T14:40:45Z</time>
      </trkpt>
      <trkpt lat="44.35482" lon="0.61519">
        <ele>180.87</ele>
        <time>2023-05-28T14:40:52Z</time>
      </trkpt>
      <trkpt lat="44.35489" lon="0.61508">
        <ele>181.35</ele>
        <time>2023-05-28T14:40:58Z</time>
      </trkpt>
      <trkpt lat="44.35496" lon="0.61497">
        <ele>180.87</ele>
        <time>2023-05-28T14:41:04Z</time>
      </trkpt>
      <trkpt lat="44.35503" lon="0.61487">
        <ele>180.38</ele>
        <time>2023-05-28T14:41:11Z</time>
      </trkpt>
      <trkpt lat="44.35509" lon="0.61478">
        <ele>180.87</ele>
        <time>2023-05-28T14:41:18Z</time>
      </trkpt>
      <trkpt lat="44.35519" lon="0.61475">
        <ele>180.87</ele>
        <time>2023-05-28T14:41:25Z</time>
      </trkpt>
      <trkpt lat="44.35531" lon="0.61474">
        <ele>180.87</ele>
        <time>2023-05-28T14:41:32Z</time>
      </trkpt>
      <trkpt lat="44.35541" lon="0.61469">
        <ele>180.38</ele>
        <time>2023-05-28T14:41:39Z</time>
      </trkpt>
      <trkpt lat="44.35551" lon="0.61463">
        <ele>178.46</ele>
        <time>2023-05-28T14:41:46Z</time>
      </trkpt>
      <trkpt lat="44.3556" lon="0.61453">
        <ele>177.02</ele>
        <time>2023-05-28T14:41:53Z</time>
      </trkpt>
      <trkpt lat="44.35569" lon="0.6144">
        <ele>174.62</ele>
        <time>2023-05-28T14:42:01Z</time>
      </trkpt>
      <trkpt lat="44.35577" lon="0.61427">
        <ele>171.25</ele>
        <time>2023-05-28T14:42:09Z</time>
      </trkpt>
      <trkpt lat="44.35584" lon="0.61409">
        <ele>167.41</ele>
        <time>2023-05-28T14:42:18Z</time>
      </trkpt>
      <trkpt lat="44.35595" lon="0.6139">
        <ele>164.52</ele>
        <time>2023-05-28T14:42:30Z</time>
      </trkpt>
      <trkpt lat="44.35635" lon="0.6134">
        <ele>156.35</ele>
        <time>2023-05-28T14:43:01Z</time>
      </trkpt>
      <trkpt lat="44.3565" lon="0.61314">
        <ele>148.18</ele>
        <time>2023-05-28T14:43:18Z</time>
      </trkpt>
      <trkpt lat="44.35656" lon="0.61298">
        <ele>142.41</ele>
        <time>2023-05-28T14:43:28Z</time>
      </trkpt>
      <trkpt lat="44.35669" lon="0.61277">
        <ele>140.97</ele>
        <time>2023-05-28T14:43:38Z</time>
      </trkpt>
      <trkpt lat="44.3569" lon="0.61251">
        <ele>140.01</ele>
        <time>2023-05-28T14:43:53Z</time>
      </trkpt>
      <trkpt lat="44.35704" lon="0.61239">
        <ele>138.57</ele>
        <time>2023-05-28T14:44:03Z</time>
      </trkpt>
      <trkpt lat="44.35725" lon="0.61226">
        <ele>137.61</ele>
        <time>2023-05-28T14:44:17Z</time>
      </trkpt>
      <trkpt lat="44.35739" lon="0.61222">
        <ele>139.53</ele>
        <time>2023-05-28T14:44:24Z</time>
      </trkpt>
      <trkpt lat="44.35757" lon="0.61217">
        <ele>140.49</ele>
        <time>2023-05-28T14:44:33Z</time>
      </trkpt>
      <trkpt lat="44.35772" lon="0.61213">
        <ele>140.49</ele>
        <time>2023-05-28T14:44:43Z</time>
      </trkpt>
      <trkpt lat="44.35788" lon="0.61208">
        <ele>141.45</ele>
        <time>2023-05-28T14:44:52Z</time>
      </trkpt>
      <trkpt lat="44.35801" lon="0.61203">
        <ele>140.49</ele>
        <time>2023-05-28T14:45:00Z</time>
      </trkpt>
      <trkpt lat="44.35812" lon="0.61198">
        <ele>139.05</ele>
        <time>2023-05-28T14:45:07Z</time>
      </trkpt>
      <trkpt lat="44.35823" lon="0.61193">
        <ele>137.61</ele>
        <time>2023-05-28T14:45:14Z</time>
      </trkpt>
      <trkpt lat="44.35833" lon="0.61187">
        <ele>137.13</ele>
        <time>2023-05-28T14:45:21Z</time>
      </trkpt>
      <trkpt lat="44.35844" lon="0.61181">
        <ele>136.16</ele>
        <time>2023-05-28T14:45:28Z</time>
      </trkpt>
      <trkpt lat="44.35855" lon="0.61174">
        <ele>135.2</ele>
        <time>2023-05-28T14:45:35Z</time>
      </trkpt>
      <trkpt lat="44.35863" lon="0.61167">
        <ele>135.2</ele>
        <time>2023-05-28T14:45:41Z</time>
      </trkpt>
      <trkpt lat="44.35871" lon="0.61158">
        <ele>134.24</ele>
        <time>2023-05-28T14:45:47Z</time>
      </trkpt>
      <trkpt lat="44.3588" lon="0.61151">
        <ele>133.76</ele>
        <time>2023-05-28T14:45:53Z</time>
      </trkpt>
      <trkpt lat="44.35888" lon="0.61143">
        <ele>132.8</ele>
        <time>2023-05-28T14:45:59Z</time>
      </trkpt>
      <trkpt lat="44.35896" lon="0.61136">
        <ele>132.32</ele>
        <time>2023-05-28T14:46:05Z</time>
      </trkpt>
      <trkpt lat="44.35905" lon="0.61129">
        <ele>130.88</ele>
        <time>2023-05-28T14:46:12Z</time>
      </trkpt>
      <trkpt lat="44.35915" lon="0.61122">
        <ele>128.95</ele>
        <time>2023-05-28T14:46:19Z</time>
      </trkpt>
      <trkpt lat="44.35925" lon="0.61117">
        <ele>127.51</ele>
        <time>2023-05-28T14:46:27Z</time>
      </trkpt>
      <trkpt lat="44.35936" lon="0.61113">
        <ele>125.59</ele>
        <time>2023-05-28T14:46:34Z</time>
      </trkpt>
      <trkpt lat="44.3595" lon="0.61108">
        <ele>123.67</ele>
        <time>2023-05-28T14:46:45Z</time>
      </trkpt>
      <trkpt lat="44.35962" lon="0.61105">
        <ele>122.22</ele>
        <time>2023-05-28T14:46:53Z</time>
      </trkpt>
      <trkpt lat="44.35977" lon="0.61105">
        <ele>119.82</ele>
        <time>2023-05-28T14:47:01Z</time>
      </trkpt>
      <trkpt lat="44.35989" lon="0.61104">
        <ele>118.86</ele>
        <time>2023-05-28T14:47:08Z</time>
      </trkpt>
      <trkpt lat="44.36002" lon="0.61103">
        <ele>117.42</ele>
        <time>2023-05-28T14:47:16Z</time>
      </trkpt>
      <trkpt lat="44.36014" lon="0.61102">
        <ele>117.42</ele>
        <time>2023-05-28T14:47:23Z</time>
      </trkpt>
      <trkpt lat="44.36025" lon="0.611">
        <ele>116.94</ele>
        <time>2023-05-28T14:47:30Z</time>
      </trkpt>
      <trkpt lat="44.36037" lon="0.61099">
        <ele>115.98</ele>
        <time>2023-05-28T14:47:37Z</time>
      </trkpt>
      <trkpt lat="44.36046" lon="0.61097">
        <ele>115.01</ele>
        <time>2023-05-28T14:47:43Z</time>
      </trkpt>
      <trkpt lat="44.36058" lon="0.61096">
        <ele>115.01</ele>
        <time>2023-05-28T14:47:50Z</time>
      </trkpt>
      <trkpt lat="44.3607" lon="0.61093">
        <ele>115.01</ele>
        <time>2023-05-28T14:47:57Z</time>
      </trkpt>
      <trkpt lat="44.3608" lon="0.61089">
        <ele>115.5</ele>
        <time>2023-05-28T14:48:03Z</time>
      </trkpt>
      <trkpt lat="44.36089" lon="0.61084">
        <ele>115.5</ele>
        <time>2023-05-28T14:48:09Z</time>
      </trkpt>
      <trkpt lat="44.361" lon="0.61079">
        <ele>116.46</ele>
        <time>2023-05-28T14:48:16Z</time>
      </trkpt>
      <trkpt lat="44.36107" lon="0.6109">
        <ele>115.98</ele>
        <time>2023-05-28T14:48:23Z</time>
      </trkpt>
      <trkpt lat="44.36111" lon="0.61105">
        <ele>116.46</ele>
        <time>2023-05-28T14:48:29Z</time>
      </trkpt>
      <trkpt lat="44.36114" lon="0.61118">
        <ele>116.46</ele>
        <time>2023-05-28T14:48:35Z</time>
      </trkpt>
      <trkpt lat="44.36117" lon="0.61131">
        <ele>115.5</ele>
        <time>2023-05-28T14:48:41Z</time>
      </trkpt>
      <trkpt lat="44.3612" lon="0.61144">
        <ele>115.98</ele>
        <time>2023-05-28T14:48:47Z</time>
      </trkpt>
      <trkpt lat="44.3612" lon="0.61158">
        <ele>115.5</ele>
        <time>2023-05-28T14:48:54Z</time>
      </trkpt>
      <trkpt lat="44.36122" lon="0.61171">
        <ele>115.5</ele>
        <time>2023-05-28T14:49:02Z</time>
      </trkpt>
      <trkpt lat="44.36123" lon="0.61185">
        <ele>114.53</ele>
        <time>2023-05-28T14:49:22Z</time>
      </trkpt>
      <trkpt lat="44.36124" lon="0.61201">
        <ele>112.13</ele>
        <time>2023-05-28T14:49:29Z</time>
      </trkpt>
      <trkpt lat="44.36132" lon="0.6121">
        <ele>110.69</ele>
        <time>2023-05-28T14:49:37Z</time>
      </trkpt>
      <trkpt lat="44.36143" lon="0.61207">
        <ele>109.73</ele>
        <time>2023-05-28T14:49:45Z</time>
      </trkpt>
      <trkpt lat="44.36277" lon="0.61155">
        <ele>102.52</ele>
        <time>2023-05-28T14:51:11Z</time>
      </trkpt>
      <trkpt lat="44.36288" lon="0.61149">
        <ele>102.52</ele>
        <time>2023-05-28T14:51:18Z</time>
      </trkpt>
      <trkpt lat="44.36299" lon="0.61145">
        <ele>102.04</ele>
        <time>2023-05-28T14:51:25Z</time>
      </trkpt>
      <trkpt lat="44.36312" lon="0.61136">
        <ele>101.56</ele>
        <time>2023-05-28T14:51:37Z</time>
      </trkpt>
      <trkpt lat="44.36329" lon="0.6113">
        <ele>103.48</ele>
        <time>2023-05-28T14:51:45Z</time>
      </trkpt>
      <trkpt lat="44.36342" lon="0.61125">
        <ele>104.44</ele>
        <time>2023-05-28T14:51:52Z</time>
      </trkpt>
      <trkpt lat="44.36353" lon="0.6112">
        <ele>104.44</ele>
        <time>2023-05-28T14:52:00Z</time>
      </trkpt>
      <trkpt lat="44.36366" lon="0.61113">
        <ele>103</ele>
        <time>2023-05-28T14:52:08Z</time>
      </trkpt>
      <trkpt lat="44.36376" lon="0.61104">
        <ele>103.48</ele>
        <time>2023-05-28T14:52:17Z</time>
      </trkpt>
      <trkpt lat="44.3639" lon="0.61101">
        <ele>103.96</ele>
        <time>2023-05-28T14:52:24Z</time>
      </trkpt>
      <trkpt lat="44.36401" lon="0.61095">
        <ele>104.92</ele>
        <time>2023-05-28T14:52:31Z</time>
      </trkpt>
      <trkpt lat="44.36412" lon="0.61089">
        <ele>105.88</ele>
        <time>2023-05-28T14:52:38Z</time>
      </trkpt>
      <trkpt lat="44.36423" lon="0.61081">
        <ele>107.32</ele>
        <time>2023-05-28T14:52:45Z</time>
      </trkpt>
      <trkpt lat="44.36433" lon="0.61071">
        <ele>107.32</ele>
        <time>2023-05-28T14:52:53Z</time>
      </trkpt>
      <trkpt lat="44.36441" lon="0.61057">
        <ele>106.84</ele>
        <time>2023-05-28T14:53:01Z</time>
      </trkpt>
      <trkpt lat="44.3645" lon="0.61045">
        <ele>106.36</ele>
        <time>2023-05-28T14:53:08Z</time>
      </trkpt>
      <trkpt lat="44.3646" lon="0.61036">
        <ele>106.84</ele>
        <time>2023-05-28T14:53:16Z</time>
      </trkpt>
      <trkpt lat="44.36471" lon="0.61031">
        <ele>106.36</ele>
        <time>2023-05-28T14:53:22Z</time>
      </trkpt>
      <trkpt lat="44.36478" lon="0.61025">
        <ele>106.36</ele>
        <time>2023-05-28T14:53:27Z</time>
      </trkpt>
      <trkpt lat="44.36486" lon="0.61016">
        <ele>105.88</ele>
        <time>2023-05-28T14:53:33Z</time>
      </trkpt>
      <trkpt lat="44.36492" lon="0.61007">
        <ele>105.88</ele>
        <time>2023-05-28T14:53:39Z</time>
      </trkpt>
      <trkpt lat="44.36497" lon="0.60995">
        <ele>105.88</ele>
        <time>2023-05-28T14:53:45Z</time>
      </trkpt>
      <trkpt lat="44.36501" lon="0.60981">
        <ele>104.92</ele>
        <time>2023-05-28T14:53:52Z</time>
      </trkpt>
      <trkpt lat="44.36509" lon="0.6097">
        <ele>104.92</ele>
        <time>2023-05-28T14:54:01Z</time>
      </trkpt>
      <trkpt lat="44.36519" lon="0.60964">
        <ele>104.44</ele>
        <time>2023-05-28T14:54:07Z</time>
      </trkpt>
      <trkpt lat="44.36533" lon="0.60953">
        <ele>101.56</ele>
        <time>2023-05-28T14:54:40Z</time>
      </trkpt>
      <trkpt lat="44.36542" lon="0.60946">
        <ele>100.11</ele>
        <time>2023-05-28T14:54:47Z</time>
      </trkpt>
      <trkpt lat="44.36553" lon="0.60937">
        <ele>99.15</ele>
        <time>2023-05-28T14:54:55Z</time>
      </trkpt>
      <trkpt lat="44.36564" lon="0.60928">
        <ele>98.67</ele>
        <time>2023-05-28T14:55:03Z</time>
      </trkpt>
      <trkpt lat="44.36577" lon="0.60918">
        <ele>97.23</ele>
        <time>2023-05-28T14:55:12Z</time>
      </trkpt>
      <trkpt lat="44.36585" lon="0.6091">
        <ele>95.79</ele>
        <time>2023-05-28T14:55:18Z</time>
      </trkpt>
      <trkpt lat="44.36589" lon="0.60889">
        <ele>104.44</ele>
        <time>2023-05-28T15:08:38Z</time>
      </trkpt>
      <trkpt lat="44.36697" lon="0.60766">
        <ele>80.41</ele>
        <time>2023-05-28T15:14:02Z</time>
      </trkpt>
      <trkpt lat="44.36699" lon="0.60752">
        <ele>79.45</ele>
        <time>2023-05-28T15:14:09Z</time>
      </trkpt>
      <trkpt lat="44.36694" lon="0.60738">
        <ele>79.93</ele>
        <time>2023-05-28T15:14:17Z</time>
      </trkpt>
      <trkpt lat="44.3669" lon="0.60726">
        <ele>81.37</ele>
        <time>2023-05-28T15:14:24Z</time>
      </trkpt>
      <trkpt lat="44.36684" lon="0.60715">
        <ele>82.33</ele>
        <time>2023-05-28T15:14:30Z</time>
      </trkpt>
      <trkpt lat="44.36676" lon="0.60705">
        <ele>82.33</ele>
        <time>2023-05-28T15:14:37Z</time>
      </trkpt>
      <trkpt lat="44.36669" lon="0.60696">
        <ele>82.33</ele>
        <time>2023-05-28T15:14:43Z</time>
      </trkpt>
      <trkpt lat="44.36663" lon="0.60683">
        <ele>82.33</ele>
        <time>2023-05-28T15:14:50Z</time>
      </trkpt>
      <trkpt lat="44.36659" lon="0.6067">
        <ele>84.73</ele>
        <time>2023-05-28T15:14:56Z</time>
      </trkpt>
      <trkpt lat="44.36654" lon="0.6066">
        <ele>87.14</ele>
        <time>2023-05-28T15:15:02Z</time>
      </trkpt>
      <trkpt lat="44.36647" lon="0.60648">
        <ele>87.62</ele>
        <time>2023-05-28T15:15:09Z</time>
      </trkpt>
      <trkpt lat="44.3664" lon="0.60636">
        <ele>88.1</ele>
        <time>2023-05-28T15:15:16Z</time>
      </trkpt>
      <trkpt lat="44.36634" lon="0.60624">
        <ele>88.1</ele>
        <time>2023-05-28T15:15:23Z</time>
      </trkpt>
      <trkpt lat="44.3663" lon="0.60608">
        <ele>89.06</ele>
        <time>2023-05-28T15:15:30Z</time>
      </trkpt>
      <trkpt lat="44.36631" lon="0.60585">
        <ele>90.5</ele>
        <time>2023-05-28T15:15:46Z</time>
      </trkpt>
      <trkpt lat="44.36629" lon="0.60567">
        <ele>90.5</ele>
        <time>2023-05-28T15:15:54Z</time>
      </trkpt>
      <trkpt lat="44.36628" lon="0.6055">
        <ele>89.54</ele>
        <time>2023-05-28T15:16:03Z</time>
      </trkpt>
      <trkpt lat="44.36629" lon="0.60533">
        <ele>89.06</ele>
        <time>2023-05-28T15:16:11Z</time>
      </trkpt>
      <trkpt lat="44.36628" lon="0.60519">
        <ele>89.06</ele>
        <time>2023-05-28T15:16:17Z</time>
      </trkpt>
      <trkpt lat="44.36626" lon="0.60504">
        <ele>88.58</ele>
        <time>2023-05-28T15:16:24Z</time>
      </trkpt>
      <trkpt lat="44.36623" lon="0.6049">
        <ele>87.62</ele>
        <time>2023-05-28T15:16:31Z</time>
      </trkpt>
      <trkpt lat="44.3662" lon="0.60477">
        <ele>86.66</ele>
        <time>2023-05-28T15:16:38Z</time>
      </trkpt>
      <trkpt lat="44.36616" lon="0.60464">
        <ele>87.62</ele>
        <time>2023-05-28T15:16:45Z</time>
      </trkpt>
      <trkpt lat="44.36611" lon="0.60451">
        <ele>88.1</ele>
        <time>2023-05-28T15:16:52Z</time>
      </trkpt>
      <trkpt lat="44.36605" lon="0.60438">
        <ele>88.1</ele>
        <time>2023-05-28T15:16:59Z</time>
      </trkpt>
      <trkpt lat="44.366" lon="0.60426">
        <ele>88.1</ele>
        <time>2023-05-28T15:17:06Z</time>
      </trkpt>
      <trkpt lat="44.36595" lon="0.60411">
        <ele>88.58</ele>
        <time>2023-05-28T15:17:14Z</time>
      </trkpt>
      <trkpt lat="44.3659" lon="0.60398">
        <ele>90.02</ele>
        <time>2023-05-28T15:17:21Z</time>
      </trkpt>
      <trkpt lat="44.36587" lon="0.60385">
        <ele>90.02</ele>
        <time>2023-05-28T15:17:28Z</time>
      </trkpt>
      <trkpt lat="44.36584" lon="0.60372">
        <ele>90.02</ele>
        <time>2023-05-28T15:17:34Z</time>
      </trkpt>
      <trkpt lat="44.36581" lon="0.60356">
        <ele>90.98</ele>
        <time>2023-05-28T15:17:41Z</time>
      </trkpt>
      <trkpt lat="44.36578" lon="0.60341">
        <ele>90.5</ele>
        <time>2023-05-28T15:17:48Z</time>
      </trkpt>
      <trkpt lat="44.36576" lon="0.60327">
        <ele>89.54</ele>
        <time>2023-05-28T15:17:55Z</time>
      </trkpt>
      <trkpt lat="44.36572" lon="0.60314">
        <ele>89.06</ele>
        <time>2023-05-28T15:18:01Z</time>
      </trkpt>
      <trkpt lat="44.36569" lon="0.60301">
        <ele>88.1</ele>
        <time>2023-05-28T15:18:07Z</time>
      </trkpt>
      <trkpt lat="44.36565" lon="0.60288">
        <ele>88.1</ele>
        <time>2023-05-28T15:18:13Z</time>
      </trkpt>
      <trkpt lat="44.3656" lon="0.60276">
        <ele>87.14</ele>
        <time>2023-05-28T15:18:19Z</time>
      </trkpt>
      <trkpt lat="44.36553" lon="0.60263">
        <ele>86.66</ele>
        <time>2023-05-28T15:18:25Z</time>
      </trkpt>
      <trkpt lat="44.36547" lon="0.60254">
        <ele>87.14</ele>
        <time>2023-05-28T15:18:30Z</time>
      </trkpt>
      <trkpt lat="44.36539" lon="0.60245">
        <ele>87.14</ele>
        <time>2023-05-28T15:18:36Z</time>
      </trkpt>
      <trkpt lat="44.36531" lon="0.60236">
        <ele>86.66</ele>
        <time>2023-05-28T15:18:43Z</time>
      </trkpt>
      <trkpt lat="44.36521" lon="0.60224">
        <ele>87.14</ele>
        <time>2023-05-28T15:18:52Z</time>
      </trkpt>
      <trkpt lat="44.36512" lon="0.60213">
        <ele>87.14</ele>
        <time>2023-05-28T15:18:58Z</time>
      </trkpt>
      <trkpt lat="44.36505" lon="0.60203">
        <ele>87.62</ele>
        <time>2023-05-28T15:19:04Z</time>
      </trkpt>
      <trkpt lat="44.36498" lon="0.60192">
        <ele>87.62</ele>
        <time>2023-05-28T15:19:10Z</time>
      </trkpt>
      <trkpt lat="44.36491" lon="0.6018">
        <ele>88.1</ele>
        <time>2023-05-28T15:19:16Z</time>
      </trkpt>
      <trkpt lat="44.36485" lon="0.60168">
        <ele>88.1</ele>
        <time>2023-05-28T15:19:22Z</time>
      </trkpt>
      <trkpt lat="44.36479" lon="0.60156">
        <ele>88.58</ele>
        <time>2023-05-28T15:19:28Z</time>
      </trkpt>
      <trkpt lat="44.36473" lon="0.60145">
        <ele>89.06</ele>
        <time>2023-05-28T15:19:34Z</time>
      </trkpt>
      <trkpt lat="44.36467" lon="0.60135">
        <ele>90.02</ele>
        <time>2023-05-28T15:19:40Z</time>
      </trkpt>
      <trkpt lat="44.36462" lon="0.60125">
        <ele>90.5</ele>
        <time>2023-05-28T15:19:46Z</time>
      </trkpt>
      <trkpt lat="44.36456" lon="0.60114">
        <ele>91.46</ele>
        <time>2023-05-28T15:19:53Z</time>
      </trkpt>
      <trkpt lat="44.36449" lon="0.60101">
        <ele>92.42</ele>
        <time>2023-05-28T15:20:01Z</time>
      </trkpt>
      <trkpt lat="44.36441" lon="0.60089">
        <ele>92.9</ele>
        <time>2023-05-28T15:20:08Z</time>
      </trkpt>
      <trkpt lat="44.36435" lon="0.60078">
        <ele>93.87</ele>
        <time>2023-05-28T15:20:14Z</time>
      </trkpt>
      <trkpt lat="44.36432" lon="0.60066">
        <ele>93.87</ele>
        <time>2023-05-28T15:20:21Z</time>
      </trkpt>
      <trkpt lat="44.36432" lon="0.60051">
        <ele>93.87</ele>
        <time>2023-05-28T15:20:29Z</time>
      </trkpt>
      <trkpt lat="44.36428" lon="0.60036">
        <ele>94.35</ele>
        <time>2023-05-28T15:20:36Z</time>
      </trkpt>
      <trkpt lat="44.36427" lon="0.60022">
        <ele>94.83</ele>
        <time>2023-05-28T15:20:43Z</time>
      </trkpt>
      <trkpt lat="44.36431" lon="0.6001">
        <ele>94.83</ele>
        <time>2023-05-28T15:20:50Z</time>
      </trkpt>
      <trkpt lat="44.36437" lon="0.59999">
        <ele>95.31</ele>
        <time>2023-05-28T15:20:58Z</time>
      </trkpt>
      <trkpt lat="44.36443" lon="0.59986">
        <ele>94.83</ele>
        <time>2023-05-28T15:21:06Z</time>
      </trkpt>
      <trkpt lat="44.36448" lon="0.59972">
        <ele>94.83</ele>
        <time>2023-05-28T15:21:13Z</time>
      </trkpt>
      <trkpt lat="44.36454" lon="0.59963">
        <ele>94.83</ele>
        <time>2023-05-28T15:21:20Z</time>
      </trkpt>
      <trkpt lat="44.36462" lon="0.59955">
        <ele>93.87</ele>
        <time>2023-05-28T15:21:27Z</time>
      </trkpt>
      <trkpt lat="44.36472" lon="0.59949">
        <ele>93.87</ele>
        <time>2023-05-28T15:21:34Z</time>
      </trkpt>
      <trkpt lat="44.3648" lon="0.59941">
        <ele>93.39</ele>
        <time>2023-05-28T15:21:41Z</time>
      </trkpt>
      <trkpt lat="44.36486" lon="0.5993">
        <ele>92.9</ele>
        <time>2023-05-28T15:21:47Z</time>
      </trkpt>
      <trkpt lat="44.36492" lon="0.59918">
        <ele>92.9</ele>
        <time>2023-05-28T15:21:54Z</time>
      </trkpt>
      <trkpt lat="44.36499" lon="0.59906">
        <ele>92.9</ele>
        <time>2023-05-28T15:22:01Z</time>
      </trkpt>
      <trkpt lat="44.36505" lon="0.59894">
        <ele>92.42</ele>
        <time>2023-05-28T15:22:07Z</time>
      </trkpt>
      <trkpt lat="44.36512" lon="0.59883">
        <ele>91.94</ele>
        <time>2023-05-28T15:22:13Z</time>
      </trkpt>
      <trkpt lat="44.36518" lon="0.59872">
        <ele>92.42</ele>
        <time>2023-05-28T15:22:19Z</time>
      </trkpt>
      <trkpt lat="44.36522" lon="0.59861">
        <ele>91.94</ele>
        <time>2023-05-28T15:22:26Z</time>
      </trkpt>
      <trkpt lat="44.36527" lon="0.59851">
        <ele>91.46</ele>
        <time>2023-05-28T15:22:33Z</time>
      </trkpt>
      <trkpt lat="44.36533" lon="0.59838">
        <ele>90.98</ele>
        <time>2023-05-28T15:22:41Z</time>
      </trkpt>
      <trkpt lat="44.3654" lon="0.59827">
        <ele>90.5</ele>
        <time>2023-05-28T15:22:48Z</time>
      </trkpt>
      <trkpt lat="44.36546" lon="0.59816">
        <ele>90.02</ele>
        <time>2023-05-28T15:22:55Z</time>
      </trkpt>
      <trkpt lat="44.36551" lon="0.59805">
        <ele>90.98</ele>
        <time>2023-05-28T15:23:02Z</time>
      </trkpt>
      <trkpt lat="44.36556" lon="0.59792">
        <ele>91.46</ele>
        <time>2023-05-28T15:23:09Z</time>
      </trkpt>
      <trkpt lat="44.3655" lon="0.5978">
        <ele>91.94</ele>
        <time>2023-05-28T15:23:16Z</time>
      </trkpt>
      <trkpt lat="44.36543" lon="0.5977">
        <ele>92.42</ele>
        <time>2023-05-28T15:23:23Z</time>
      </trkpt>
      <trkpt lat="44.36534" lon="0.59762">
        <ele>92.9</ele>
        <time>2023-05-28T15:23:30Z</time>
      </trkpt>
      <trkpt lat="44.36525" lon="0.59753">
        <ele>93.87</ele>
        <time>2023-05-28T15:23:37Z</time>
      </trkpt>
      <trkpt lat="44.36517" lon="0.59746">
        <ele>94.83</ele>
        <time>2023-05-28T15:23:45Z</time>
      </trkpt>
      <trkpt lat="44.36507" lon="0.59739">
        <ele>96.75</ele>
        <time>2023-05-28T15:23:53Z</time>
      </trkpt>
      <trkpt lat="44.36498" lon="0.59733">
        <ele>97.71</ele>
        <time>2023-05-28T15:24:01Z</time>
      </trkpt>
      <trkpt lat="44.36489" lon="0.59726">
        <ele>99.15</ele>
        <time>2023-05-28T15:24:09Z</time>
      </trkpt>
      <trkpt lat="44.36466" lon="0.59705">
        <ele>101.56</ele>
        <time>2023-05-28T15:24:28Z</time>
      </trkpt>
      <trkpt lat="44.36454" lon="0.59692">
        <ele>104.92</ele>
        <time>2023-05-28T15:24:39Z</time>
      </trkpt>
      <trkpt lat="44.36421" lon="0.59664">
        <ele>112.13</ele>
        <time>2023-05-28T15:25:06Z</time>
      </trkpt>
      <trkpt lat="44.36384" lon="0.5963">
        <ele>120.3</ele>
        <time>2023-05-28T15:25:37Z</time>
      </trkpt>
      <trkpt lat="44.36372" lon="0.59616">
        <ele>121.74</ele>
        <time>2023-05-28T15:25:45Z</time>
      </trkpt>
      <trkpt lat="44.36359" lon="0.59601">
        <ele>125.59</ele>
        <time>2023-05-28T15:25:58Z</time>
      </trkpt>
      <trkpt lat="44.36349" lon="0.59589">
        <ele>127.51</ele>
        <time>2023-05-28T15:26:05Z</time>
      </trkpt>
      <trkpt lat="44.36336" lon="0.59573">
        <ele>127.03</ele>
        <time>2023-05-28T15:26:15Z</time>
      </trkpt>
      <trkpt lat="44.3632" lon="0.59551">
        <ele>129.92</ele>
        <time>2023-05-28T15:26:29Z</time>
      </trkpt>
      <trkpt lat="44.36308" lon="0.5954">
        <ele>131.84</ele>
        <time>2023-05-28T15:26:38Z</time>
      </trkpt>
      <trkpt lat="44.36298" lon="0.59525">
        <ele>133.28</ele>
        <time>2023-05-28T15:26:46Z</time>
      </trkpt>
      <trkpt lat="44.36289" lon="0.5951">
        <ele>133.76</ele>
        <time>2023-05-28T15:26:55Z</time>
      </trkpt>
      <trkpt lat="44.36278" lon="0.595">
        <ele>135.68</ele>
        <time>2023-05-28T15:27:05Z</time>
      </trkpt>
      <trkpt lat="44.3627" lon="0.59488">
        <ele>138.09</ele>
        <time>2023-05-28T15:27:13Z</time>
      </trkpt>
      <trkpt lat="44.36261" lon="0.59476">
        <ele>140.01</ele>
        <time>2023-05-28T15:27:21Z</time>
      </trkpt>
      <trkpt lat="44.36253" lon="0.59462">
        <ele>141.93</ele>
        <time>2023-05-28T15:27:29Z</time>
      </trkpt>
      <trkpt lat="44.36248" lon="0.59448">
        <ele>144.82</ele>
        <time>2023-05-28T15:27:36Z</time>
      </trkpt>
      <trkpt lat="44.36247" lon="0.59433">
        <ele>146.26</ele>
        <time>2023-05-28T15:27:44Z</time>
      </trkpt>
      <trkpt lat="44.36247" lon="0.59418">
        <ele>147.22</ele>
        <time>2023-05-28T15:27:53Z</time>
      </trkpt>
      <trkpt lat="44.36244" lon="0.59401">
        <ele>149.14</ele>
        <time>2023-05-28T15:28:01Z</time>
      </trkpt>
      <trkpt lat="44.36243" lon="0.59385">
        <ele>151.54</ele>
        <time>2023-05-28T15:28:08Z</time>
      </trkpt>
      <trkpt lat="44.36238" lon="0.59371">
        <ele>152.99</ele>
        <time>2023-05-28T15:28:16Z</time>
      </trkpt>
      <trkpt lat="44.36234" lon="0.59356">
        <ele>154.43</ele>
        <time>2023-05-28T15:28:25Z</time>
      </trkpt>
      <trkpt lat="44.36227" lon="0.59344">
        <ele>155.39</ele>
        <time>2023-05-28T15:28:34Z</time>
      </trkpt>
      <trkpt lat="44.36219" lon="0.59333">
        <ele>156.35</ele>
        <time>2023-05-28T15:28:41Z</time>
      </trkpt>
      <trkpt lat="44.36211" lon="0.5932">
        <ele>157.31</ele>
        <time>2023-05-28T15:28:50Z</time>
      </trkpt>
      <trkpt lat="44.36207" lon="0.59303">
        <ele>157.79</ele>
        <time>2023-05-28T15:29:00Z</time>
      </trkpt>
      <trkpt lat="44.36202" lon="0.59286">
        <ele>157.31</ele>
        <time>2023-05-28T15:29:09Z</time>
      </trkpt>
      <trkpt lat="44.36199" lon="0.59267">
        <ele>156.83</ele>
        <time>2023-05-28T15:29:18Z</time>
      </trkpt>
      <trkpt lat="44.36201" lon="0.5925">
        <ele>158.27</ele>
        <time>2023-05-28T15:29:26Z</time>
      </trkpt>
      <trkpt lat="44.36204" lon="0.59235">
        <ele>159.24</ele>
        <time>2023-05-28T15:29:33Z</time>
      </trkpt>
      <trkpt lat="44.36207" lon="0.5922">
        <ele>159.72</ele>
        <time>2023-05-28T15:29:40Z</time>
      </trkpt>
      <trkpt lat="44.3621" lon="0.59206">
        <ele>159.72</ele>
        <time>2023-05-28T15:29:47Z</time>
      </trkpt>
      <trkpt lat="44.36215" lon="0.59192">
        <ele>160.68</ele>
        <time>2023-05-28T15:29:54Z</time>
      </trkpt>
      <trkpt lat="44.3622" lon="0.59179">
        <ele>160.68</ele>
        <time>2023-05-28T15:30:01Z</time>
      </trkpt>
      <trkpt lat="44.36224" lon="0.59165">
        <ele>160.2</ele>
        <time>2023-05-28T15:30:08Z</time>
      </trkpt>
      <trkpt lat="44.36228" lon="0.59154">
        <ele>158.75</ele>
        <time>2023-05-28T15:30:14Z</time>
      </trkpt>
      <trkpt lat="44.36233" lon="0.59141">
        <ele>156.83</ele>
        <time>2023-05-28T15:30:21Z</time>
      </trkpt>
      <trkpt lat="44.36236" lon="0.59127">
        <ele>155.39</ele>
        <time>2023-05-28T15:30:28Z</time>
      </trkpt>
      <trkpt lat="44.3624" lon="0.59115">
        <ele>153.95</ele>
        <time>2023-05-28T15:30:35Z</time>
      </trkpt>
      <trkpt lat="44.36245" lon="0.59102">
        <ele>153.47</ele>
        <time>2023-05-28T15:30:41Z</time>
      </trkpt>
      <trkpt lat="44.36251" lon="0.59091">
        <ele>153.95</ele>
        <time>2023-05-28T15:30:47Z</time>
      </trkpt>
      <trkpt lat="44.36257" lon="0.5908">
        <ele>154.91</ele>
        <time>2023-05-28T15:30:53Z</time>
      </trkpt>
      <trkpt lat="44.36262" lon="0.59068">
        <ele>155.39</ele>
        <time>2023-05-28T15:30:59Z</time>
      </trkpt>
      <trkpt lat="44.36268" lon="0.59055">
        <ele>155.39</ele>
        <time>2023-05-28T15:31:06Z</time>
      </trkpt>
      <trkpt lat="44.36274" lon="0.59045">
        <ele>156.35</ele>
        <time>2023-05-28T15:31:12Z</time>
      </trkpt>
      <trkpt lat="44.3628" lon="0.59033">
        <ele>157.79</ele>
        <time>2023-05-28T15:31:18Z</time>
      </trkpt>
      <trkpt lat="44.36285" lon="0.59021">
        <ele>159.24</ele>
        <time>2023-05-28T15:31:25Z</time>
      </trkpt>
      <trkpt lat="44.36285" lon="0.59007">
        <ele>160.2</ele>
        <time>2023-05-28T15:31:32Z</time>
      </trkpt>
      <trkpt lat="44.36279" lon="0.58996">
        <ele>161.16</ele>
        <time>2023-05-28T15:31:40Z</time>
      </trkpt>
      <trkpt lat="44.36272" lon="0.58987">
        <ele>162.12</ele>
        <time>2023-05-28T15:31:48Z</time>
      </trkpt>
      <trkpt lat="44.36262" lon="0.5898">
        <ele>164.04</ele>
        <time>2023-05-28T15:31:56Z</time>
      </trkpt>
      <trkpt lat="44.3627" lon="0.58975">
        <ele>164.52</ele>
        <time>2023-05-28T15:32:26Z</time>
      </trkpt>
      <trkpt lat="44.36279" lon="0.58968">
        <ele>164.52</ele>
        <time>2023-05-28T15:32:34Z</time>
      </trkpt>
      <trkpt lat="44.36287" lon="0.5896">
        <ele>164.52</ele>
        <time>2023-05-28T15:32:41Z</time>
      </trkpt>
      <trkpt lat="44.36295" lon="0.58952">
        <ele>164.04</ele>
        <time>2023-05-28T15:32:49Z</time>
      </trkpt>
      <trkpt lat="44.36306" lon="0.58944">
        <ele>162.6</ele>
        <time>2023-05-28T15:32:58Z</time>
      </trkpt>
      <trkpt lat="44.36317" lon="0.58937">
        <ele>161.16</ele>
        <time>2023-05-28T15:33:07Z</time>
      </trkpt>
      <trkpt lat="44.36315" lon="0.58918">
        <ele>158.27</ele>
        <time>2023-05-28T15:33:20Z</time>
      </trkpt>
      <trkpt lat="44.36318" lon="0.58925">
        <ele>157.31</ele>
        <time>2023-05-28T15:33:53Z</time>
      </trkpt>
      <trkpt lat="44.36314" lon="0.58936">
        <ele>156.83</ele>
        <time>2023-05-28T15:34:01Z</time>
      </trkpt>
      <trkpt lat="44.36304" lon="0.58941">
        <ele>156.35</ele>
        <time>2023-05-28T15:34:08Z</time>
      </trkpt>
      <trkpt lat="44.36294" lon="0.58952">
        <ele>156.83</ele>
        <time>2023-05-28T15:34:16Z</time>
      </trkpt>
      <trkpt lat="44.36284" lon="0.58964">
        <ele>157.79</ele>
        <time>2023-05-28T15:34:23Z</time>
      </trkpt>
      <trkpt lat="44.36276" lon="0.58972">
        <ele>158.75</ele>
        <time>2023-05-28T15:34:30Z</time>
      </trkpt>
      <trkpt lat="44.36266" lon="0.5898">
        <ele>158.27</ele>
        <time>2023-05-28T15:34:37Z</time>
      </trkpt>
      <trkpt lat="44.36257" lon="0.58986">
        <ele>159.72</ele>
        <time>2023-05-28T15:34:44Z</time>
      </trkpt>
      <trkpt lat="44.36249" lon="0.58995">
        <ele>160.68</ele>
        <time>2023-05-28T15:34:51Z</time>
      </trkpt>
      <trkpt lat="44.3624" lon="0.59003">
        <ele>160.68</ele>
        <time>2023-05-28T15:34:58Z</time>
      </trkpt>
      <trkpt lat="44.36232" lon="0.59011">
        <ele>161.16</ele>
        <time>2023-05-28T15:35:05Z</time>
      </trkpt>
      <trkpt lat="44.36224" lon="0.59022">
        <ele>161.16</ele>
        <time>2023-05-28T15:35:12Z</time>
      </trkpt>
      <trkpt lat="44.36217" lon="0.59033">
        <ele>161.64</ele>
        <time>2023-05-28T15:35:19Z</time>
      </trkpt>
      <trkpt lat="44.36208" lon="0.59044">
        <ele>163.08</ele>
        <time>2023-05-28T15:35:26Z</time>
      </trkpt>
      <trkpt lat="44.362" lon="0.59055">
        <ele>164.52</ele>
        <time>2023-05-28T15:35:34Z</time>
      </trkpt>
      <trkpt lat="44.36191" lon="0.59065">
        <ele>164.52</ele>
        <time>2023-05-28T15:35:43Z</time>
      </trkpt>
      <trkpt lat="44.36183" lon="0.59073">
        <ele>164.04</ele>
        <time>2023-05-28T15:35:51Z</time>
      </trkpt>
      <trkpt lat="44.3617" lon="0.59091">
        <ele>164.04</ele>
        <time>2023-05-28T15:36:02Z</time>
      </trkpt>
      <trkpt lat="44.36159" lon="0.59103">
        <ele>165</ele>
        <time>2023-05-28T15:36:09Z</time>
      </trkpt>
      <trkpt lat="44.36151" lon="0.59117">
        <ele>166.93</ele>
        <time>2023-05-28T15:36:17Z</time>
      </trkpt>
      <trkpt lat="44.36144" lon="0.59135">
        <ele>168.85</ele>
        <time>2023-05-28T15:36:27Z</time>
      </trkpt>
      <trkpt lat="44.36143" lon="0.59151">
        <ele>170.77</ele>
        <time>2023-05-28T15:36:35Z</time>
      </trkpt>
      <trkpt lat="44.36136" lon="0.59163">
        <ele>175.1</ele>
        <time>2023-05-28T15:36:53Z</time>
      </trkpt>
      <trkpt lat="44.3613" lon="0.59178">
        <ele>175.58</ele>
        <time>2023-05-28T15:37:00Z</time>
      </trkpt>
      <trkpt lat="44.36124" lon="0.59193">
        <ele>177.98</ele>
        <time>2023-05-28T15:37:07Z</time>
      </trkpt>
      <trkpt lat="44.3612" lon="0.59205">
        <ele>179.9</ele>
        <time>2023-05-28T15:37:13Z</time>
      </trkpt>
      <trkpt lat="44.36116" lon="0.59219">
        <ele>181.83</ele>
        <time>2023-05-28T15:37:20Z</time>
      </trkpt>
      <trkpt lat="44.36111" lon="0.59233">
        <ele>183.75</ele>
        <time>2023-05-28T15:37:27Z</time>
      </trkpt>
      <trkpt lat="44.36109" lon="0.59247">
        <ele>184.23</ele>
        <time>2023-05-28T15:37:34Z</time>
      </trkpt>
      <trkpt lat="44.36117" lon="0.59253">
        <ele>184.71</ele>
        <time>2023-05-28T15:38:01Z</time>
      </trkpt>
      <trkpt lat="44.36117" lon="0.59249">
        <ele>184.71</ele>
        <time>2023-05-28T15:41:19Z</time>
      </trkpt>
      <trkpt lat="44.36117" lon="0.59246">
        <ele>181.35</ele>
        <time>2023-05-28T15:42:59Z</time>
      </trkpt>
      <trkpt lat="44.36119" lon="0.59255">
        <ele>180.87</ele>
        <time>2023-05-28T15:43:11Z</time>
      </trkpt>
      <trkpt lat="44.36114" lon="0.59259">
        <ele>181.35</ele>
        <time>2023-05-28T15:44:57Z</time>
      </trkpt>
      <trkpt lat="44.36114" lon="0.59252">
        <ele>185.67</ele>
        <time>2023-05-28T15:47:40Z</time>
      </trkpt>
      <trkpt lat="44.36109" lon="0.59239">
        <ele>185.19</ele>
        <time>2023-05-28T15:47:49Z</time>
      </trkpt>
      <trkpt lat="44.36114" lon="0.59229">
        <ele>182.31</ele>
        <time>2023-05-28T15:48:05Z</time>
      </trkpt>
      <trkpt lat="44.36119" lon="0.59215">
        <ele>179.9</ele>
        <time>2023-05-28T15:48:14Z</time>
      </trkpt>
      <trkpt lat="44.36124" lon="0.59202">
        <ele>178.46</ele>
        <time>2023-05-28T15:48:22Z</time>
      </trkpt>
      <trkpt lat="44.36128" lon="0.59187">
        <ele>177.5</ele>
        <time>2023-05-28T15:48:31Z</time>
      </trkpt>
      <trkpt lat="44.36133" lon="0.59173">
        <ele>177.5</ele>
        <time>2023-05-28T15:48:40Z</time>
      </trkpt>
      <trkpt lat="44.36138" lon="0.59157">
        <ele>175.1</ele>
        <time>2023-05-28T15:48:50Z</time>
      </trkpt>
      <trkpt lat="44.36142" lon="0.59144">
        <ele>171.25</ele>
        <time>2023-05-28T15:49:00Z</time>
      </trkpt>
      <trkpt lat="44.36149" lon="0.59127">
        <ele>169.81</ele>
        <time>2023-05-28T15:49:11Z</time>
      </trkpt>
      <trkpt lat="44.36155" lon="0.59115">
        <ele>169.33</ele>
        <time>2023-05-28T15:49:19Z</time>
      </trkpt>
      <trkpt lat="44.36164" lon="0.59105">
        <ele>167.89</ele>
        <time>2023-05-28T15:49:28Z</time>
      </trkpt>
      <trkpt lat="44.36172" lon="0.59092">
        <ele>167.89</ele>
        <time>2023-05-28T15:49:37Z</time>
      </trkpt>
      <trkpt lat="44.36184" lon="0.5908">
        <ele>168.37</ele>
        <time>2023-05-28T15:49:47Z</time>
      </trkpt>
      <trkpt lat="44.36192" lon="0.59069">
        <ele>167.89</ele>
        <time>2023-05-28T15:49:55Z</time>
      </trkpt>
      <trkpt lat="44.362" lon="0.59059">
        <ele>167.89</ele>
        <time>2023-05-28T15:50:03Z</time>
      </trkpt>
      <trkpt lat="44.36208" lon="0.59047">
        <ele>167.41</ele>
        <time>2023-05-28T15:50:11Z</time>
      </trkpt>
      <trkpt lat="44.36214" lon="0.59034">
        <ele>166.93</ele>
        <time>2023-05-28T15:50:18Z</time>
      </trkpt>
      <trkpt lat="44.36221" lon="0.59026">
        <ele>166.93</ele>
        <time>2023-05-28T15:50:24Z</time>
      </trkpt>
      <trkpt lat="44.36229" lon="0.59017">
        <ele>166.93</ele>
        <time>2023-05-28T15:50:31Z</time>
      </trkpt>
      <trkpt lat="44.36237" lon="0.59009">
        <ele>167.41</ele>
        <time>2023-05-28T15:50:38Z</time>
      </trkpt>
      <trkpt lat="44.36241" lon="0.5899">
        <ele>167.41</ele>
        <time>2023-05-28T15:51:22Z</time>
      </trkpt>
      <trkpt lat="44.3625" lon="0.58993">
        <ele>164.52</ele>
        <time>2023-05-28T15:53:03Z</time>
      </trkpt>
      <trkpt lat="44.36259" lon="0.58984">
        <ele>163.56</ele>
        <time>2023-05-28T15:53:12Z</time>
      </trkpt>
      <trkpt lat="44.36268" lon="0.58977">
        <ele>165</ele>
        <time>2023-05-28T15:53:21Z</time>
      </trkpt>
      <trkpt lat="44.36277" lon="0.58969">
        <ele>165.48</ele>
        <time>2023-05-28T15:53:29Z</time>
      </trkpt>
      <trkpt lat="44.36286" lon="0.58961">
        <ele>164.52</ele>
        <time>2023-05-28T15:53:37Z</time>
      </trkpt>
      <trkpt lat="44.36297" lon="0.58954">
        <ele>162.6</ele>
        <time>2023-05-28T15:53:46Z</time>
      </trkpt>
      <trkpt lat="44.36307" lon="0.58945">
        <ele>160.68</ele>
        <time>2023-05-28T15:53:57Z</time>
      </trkpt>
      <trkpt lat="44.36317" lon="0.58935">
        <ele>157.79</ele>
        <time>2023-05-28T15:54:06Z</time>
      </trkpt>
      <trkpt lat="44.36314" lon="0.58923">
        <ele>155.87</ele>
        <time>2023-05-28T15:54:14Z</time>
      </trkpt>
      <trkpt lat="44.3632" lon="0.58907">
        <ele>152.99</ele>
        <time>2023-05-28T15:54:24Z</time>
      </trkpt>
      <trkpt lat="44.36327" lon="0.5889">
        <ele>152.99</ele>
        <time>2023-05-28T15:54:33Z</time>
      </trkpt>
      <trkpt lat="44.36333" lon="0.58879">
        <ele>153.47</ele>
        <time>2023-05-28T15:54:41Z</time>
      </trkpt>
      <trkpt lat="44.36339" lon="0.58867">
        <ele>152.99</ele>
        <time>2023-05-28T15:54:48Z</time>
      </trkpt>
      <trkpt lat="44.36345" lon="0.58856">
        <ele>152.51</ele>
        <time>2023-05-28T15:54:55Z</time>
      </trkpt>
      <trkpt lat="44.36352" lon="0.58845">
        <ele>151.06</ele>
        <time>2023-05-28T15:55:02Z</time>
      </trkpt>
      <trkpt lat="44.36357" lon="0.58832">
        <ele>150.58</ele>
        <time>2023-05-28T15:55:10Z</time>
      </trkpt>
      <trkpt lat="44.36364" lon="0.58816">
        <ele>149.62</ele>
        <time>2023-05-28T15:55:20Z</time>
      </trkpt>
      <trkpt lat="44.36374" lon="0.58802">
        <ele>147.22</ele>
        <time>2023-05-28T15:55:31Z</time>
      </trkpt>
      <trkpt lat="44.36382" lon="0.5879">
        <ele>145.78</ele>
        <time>2023-05-28T15:55:39Z</time>
      </trkpt>
      <trkpt lat="44.36391" lon="0.58782">
        <ele>143.85</ele>
        <time>2023-05-28T15:55:47Z</time>
      </trkpt>
      <trkpt lat="44.36402" lon="0.58778">
        <ele>141.93</ele>
        <time>2023-05-28T15:55:55Z</time>
      </trkpt>
      <trkpt lat="44.36412" lon="0.58774">
        <ele>141.93</ele>
        <time>2023-05-28T15:56:02Z</time>
      </trkpt>
      <trkpt lat="44.36423" lon="0.58772">
        <ele>141.93</ele>
        <time>2023-05-28T15:56:10Z</time>
      </trkpt>
      <trkpt lat="44.36433" lon="0.58767">
        <ele>141.45</ele>
        <time>2023-05-28T15:56:17Z</time>
      </trkpt>
      <trkpt lat="44.3644" lon="0.58757">
        <ele>140.49</ele>
        <time>2023-05-28T15:56:24Z</time>
      </trkpt>
      <trkpt lat="44.36444" lon="0.58745">
        <ele>138.57</ele>
        <time>2023-05-28T15:56:31Z</time>
      </trkpt>
      <trkpt lat="44.36445" lon="0.5873">
        <ele>136.16</ele>
        <time>2023-05-28T15:56:39Z</time>
      </trkpt>
      <trkpt lat="44.36443" lon="0.58715">
        <ele>135.68</ele>
        <time>2023-05-28T15:56:47Z</time>
      </trkpt>
      <trkpt lat="44.36439" lon="0.58701">
        <ele>135.68</ele>
        <time>2023-05-28T15:56:55Z</time>
      </trkpt>
      <trkpt lat="44.36433" lon="0.58689">
        <ele>134.24</ele>
        <time>2023-05-28T15:57:03Z</time>
      </trkpt>
      <trkpt lat="44.36428" lon="0.58678">
        <ele>133.76</ele>
        <time>2023-05-28T15:57:28Z</time>
      </trkpt>
      <trkpt lat="44.36417" lon="0.58673">
        <ele>133.76</ele>
        <time>2023-05-28T15:57:40Z</time>
      </trkpt>
      <trkpt lat="44.36407" lon="0.58672">
        <ele>133.76</ele>
        <time>2023-05-28T15:57:49Z</time>
      </trkpt>
      <trkpt lat="44.36398" lon="0.58675">
        <ele>131.84</ele>
        <time>2023-05-28T15:57:59Z</time>
      </trkpt>
      <trkpt lat="44.36401" lon="0.58662">
        <ele>132.8</ele>
        <time>2023-05-28T15:58:58Z</time>
      </trkpt>
      <trkpt lat="44.364" lon="0.5865">
        <ele>130.88</ele>
        <time>2023-05-28T15:59:08Z</time>
      </trkpt>
      <trkpt lat="44.36397" lon="0.58636">
        <ele>128.47</ele>
        <time>2023-05-28T15:59:17Z</time>
      </trkpt>
      <trkpt lat="44.36398" lon="0.58623">
        <ele>126.55</ele>
        <time>2023-05-28T15:59:25Z</time>
      </trkpt>
      <trkpt lat="44.36399" lon="0.58611">
        <ele>124.63</ele>
        <time>2023-05-28T15:59:33Z</time>
      </trkpt>
      <trkpt lat="44.36399" lon="0.58598">
        <ele>123.19</ele>
        <time>2023-05-28T15:59:41Z</time>
      </trkpt>
      <trkpt lat="44.364" lon="0.58584">
        <ele>121.26</ele>
        <time>2023-05-28T15:59:49Z</time>
      </trkpt>
      <trkpt lat="44.36401" lon="0.58571">
        <ele>119.34</ele>
        <time>2023-05-28T15:59:56Z</time>
      </trkpt>
      <trkpt lat="44.364" lon="0.58557">
        <ele>118.86</ele>
        <time>2023-05-28T16:00:04Z</time>
      </trkpt>
      <trkpt lat="44.36401" lon="0.58544">
        <ele>117.9</ele>
        <time>2023-05-28T16:00:11Z</time>
      </trkpt>
      <trkpt lat="44.364" lon="0.5853">
        <ele>116.46</ele>
        <time>2023-05-28T16:00:18Z</time>
      </trkpt>
      <trkpt lat="44.364" lon="0.58517">
        <ele>115.01</ele>
        <time>2023-05-28T16:00:25Z</time>
      </trkpt>
      <trkpt lat="44.36403" lon="0.58504">
        <ele>112.61</ele>
        <time>2023-05-28T16:00:33Z</time>
      </trkpt>
      <trkpt lat="44.36404" lon="0.58491">
        <ele>110.69</ele>
        <time>2023-05-28T16:00:41Z</time>
      </trkpt>
      <trkpt lat="44.36403" lon="0.58478">
        <ele>109.25</ele>
        <time>2023-05-28T16:00:49Z</time>
      </trkpt>
      <trkpt lat="44.36405" lon="0.58456">
        <ele>106.36</ele>
        <time>2023-05-28T16:01:29Z</time>
      </trkpt>
      <trkpt lat="44.36404" lon="0.58439">
        <ele>104.44</ele>
        <time>2023-05-28T16:01:38Z</time>
      </trkpt>
      <trkpt lat="44.36404" lon="0.58422">
        <ele>102.52</ele>
        <time>2023-05-28T16:01:46Z</time>
      </trkpt>
      <trkpt lat="44.36403" lon="0.58402">
        <ele>100.6</ele>
        <time>2023-05-28T16:01:58Z</time>
      </trkpt>
      <trkpt lat="44.36402" lon="0.58386">
        <ele>99.15</ele>
        <time>2023-05-28T16:02:07Z</time>
      </trkpt>
      <trkpt lat="44.36402" lon="0.5837">
        <ele>98.19</ele>
        <time>2023-05-28T16:02:16Z</time>
      </trkpt>
      <trkpt lat="44.36403" lon="0.58354">
        <ele>96.75</ele>
        <time>2023-05-28T16:02:24Z</time>
      </trkpt>
      <trkpt lat="44.364" lon="0.5831">
        <ele>93.39</ele>
        <time>2023-05-28T16:02:48Z</time>
      </trkpt>
      <trkpt lat="44.36397" lon="0.58291">
        <ele>92.42</ele>
        <time>2023-05-28T16:02:55Z</time>
      </trkpt>
      <trkpt lat="44.36397" lon="0.58278">
        <ele>90.98</ele>
        <time>2023-05-28T16:03:03Z</time>
      </trkpt>
      <trkpt lat="44.36396" lon="0.5826">
        <ele>89.54</ele>
        <time>2023-05-28T16:03:12Z</time>
      </trkpt>
      <trkpt lat="44.36395" lon="0.58236">
        <ele>88.58</ele>
        <time>2023-05-28T16:03:24Z</time>
      </trkpt>
      <trkpt lat="44.36393" lon="0.58215">
        <ele>87.62</ele>
        <time>2023-05-28T16:03:34Z</time>
      </trkpt>
      <trkpt lat="44.36398" lon="0.58196">
        <ele>86.18</ele>
        <time>2023-05-28T16:03:43Z</time>
      </trkpt>
      <trkpt lat="44.36402" lon="0.58183">
        <ele>85.21</ele>
        <time>2023-05-28T16:03:51Z</time>
      </trkpt>
      <trkpt lat="44.3641" lon="0.58174">
        <ele>84.73</ele>
        <time>2023-05-28T16:03:58Z</time>
      </trkpt>
      <trkpt lat="44.36418" lon="0.58164">
        <ele>84.73</ele>
        <time>2023-05-28T16:04:05Z</time>
      </trkpt>
      <trkpt lat="44.36425" lon="0.58153">
        <ele>84.25</ele>
        <time>2023-05-28T16:04:12Z</time>
      </trkpt>
      <trkpt lat="44.3643" lon="0.58142">
        <ele>84.25</ele>
        <time>2023-05-28T16:04:19Z</time>
      </trkpt>
      <trkpt lat="44.36438" lon="0.5813">
        <ele>85.21</ele>
        <time>2023-05-28T16:04:27Z</time>
      </trkpt>
      <trkpt lat="44.36445" lon="0.58119">
        <ele>85.21</ele>
        <time>2023-05-28T16:04:36Z</time>
      </trkpt>
      <trkpt lat="44.36454" lon="0.58107">
        <ele>85.21</ele>
        <time>2023-05-28T16:04:44Z</time>
      </trkpt>
      <trkpt lat="44.36461" lon="0.58096">
        <ele>86.66</ele>
        <time>2023-05-28T16:04:51Z</time>
      </trkpt>
      <trkpt lat="44.3647" lon="0.58084">
        <ele>88.1</ele>
        <time>2023-05-28T16:04:59Z</time>
      </trkpt>
      <trkpt lat="44.36478" lon="0.58074">
        <ele>89.54</ele>
        <time>2023-05-28T16:05:06Z</time>
      </trkpt>
      <trkpt lat="44.36486" lon="0.58064">
        <ele>91.46</ele>
        <time>2023-05-28T16:05:13Z</time>
      </trkpt>
      <trkpt lat="44.36493" lon="0.58053">
        <ele>92.9</ele>
        <time>2023-05-28T16:05:20Z</time>
      </trkpt>
      <trkpt lat="44.36499" lon="0.58043">
        <ele>93.87</ele>
        <time>2023-05-28T16:05:28Z</time>
      </trkpt>
      <trkpt lat="44.36508" lon="0.58029">
        <ele>94.35</ele>
        <time>2023-05-28T16:05:38Z</time>
      </trkpt>
      <trkpt lat="44.36516" lon="0.58015">
        <ele>94.35</ele>
        <time>2023-05-28T16:05:46Z</time>
      </trkpt>
      <trkpt lat="44.36524" lon="0.58003">
        <ele>94.35</ele>
        <time>2023-05-28T16:05:53Z</time>
      </trkpt>
      <trkpt lat="44.36531" lon="0.5799">
        <ele>94.83</ele>
        <time>2023-05-28T16:06:00Z</time>
      </trkpt>
      <trkpt lat="44.36538" lon="0.57979">
        <ele>95.79</ele>
        <time>2023-05-28T16:06:07Z</time>
      </trkpt>
      <trkpt lat="44.36545" lon="0.57968">
        <ele>95.79</ele>
        <time>2023-05-28T16:06:14Z</time>
      </trkpt>
      <trkpt lat="44.3655" lon="0.57955">
        <ele>96.27</ele>
        <time>2023-05-28T16:06:22Z</time>
      </trkpt>
      <trkpt lat="44.36556" lon="0.57941">
        <ele>96.27</ele>
        <time>2023-05-28T16:06:31Z</time>
      </trkpt>
      <trkpt lat="44.36563" lon="0.57928">
        <ele>96.27</ele>
        <time>2023-05-28T16:06:39Z</time>
      </trkpt>
      <trkpt lat="44.3657" lon="0.57915">
        <ele>95.79</ele>
        <time>2023-05-28T16:06:48Z</time>
      </trkpt>
      <trkpt lat="44.36577" lon="0.57903">
        <ele>96.27</ele>
        <time>2023-05-28T16:06:55Z</time>
      </trkpt>
      <trkpt lat="44.36585" lon="0.57891">
        <ele>96.75</ele>
        <time>2023-05-28T16:07:02Z</time>
      </trkpt>
      <trkpt lat="44.36592" lon="0.57879">
        <ele>96.27</ele>
        <time>2023-05-28T16:07:10Z</time>
      </trkpt>
      <trkpt lat="44.36599" lon="0.57867">
        <ele>96.27</ele>
        <time>2023-05-28T16:07:18Z</time>
      </trkpt>
      <trkpt lat="44.36606" lon="0.57853">
        <ele>96.75</ele>
        <time>2023-05-28T16:07:25Z</time>
      </trkpt>
      <trkpt lat="44.36611" lon="0.57841">
        <ele>97.23</ele>
        <time>2023-05-28T16:07:33Z</time>
      </trkpt>
      <trkpt lat="44.36618" lon="0.57828">
        <ele>98.19</ele>
        <time>2023-05-28T16:07:41Z</time>
      </trkpt>
      <trkpt lat="44.36624" lon="0.57817">
        <ele>99.63</ele>
        <time>2023-05-28T16:07:48Z</time>
      </trkpt>
      <trkpt lat="44.36631" lon="0.57805">
        <ele>100.6</ele>
        <time>2023-05-28T16:07:55Z</time>
      </trkpt>
      <trkpt lat="44.36637" lon="0.57794">
        <ele>101.08</ele>
        <time>2023-05-28T16:08:02Z</time>
      </trkpt>
      <trkpt lat="44.36643" lon="0.57783">
        <ele>101.08</ele>
        <time>2023-05-28T16:08:09Z</time>
      </trkpt>
      <trkpt lat="44.36649" lon="0.57771">
        <ele>101.56</ele>
        <time>2023-05-28T16:08:16Z</time>
      </trkpt>
      <trkpt lat="44.36654" lon="0.57759">
        <ele>102.04</ele>
        <time>2023-05-28T16:08:23Z</time>
      </trkpt>
      <trkpt lat="44.36661" lon="0.57746">
        <ele>102.04</ele>
        <time>2023-05-28T16:08:32Z</time>
      </trkpt>
      <trkpt lat="44.36666" lon="0.57733">
        <ele>102.52</ele>
        <time>2023-05-28T16:08:40Z</time>
      </trkpt>
      <trkpt lat="44.36673" lon="0.57718">
        <ele>103.48</ele>
        <time>2023-05-28T16:08:49Z</time>
      </trkpt>
      <trkpt lat="44.36677" lon="0.57703">
        <ele>103.96</ele>
        <time>2023-05-28T16:08:57Z</time>
      </trkpt>
      <trkpt lat="44.3668" lon="0.57688">
        <ele>104.44</ele>
        <time>2023-05-28T16:09:06Z</time>
      </trkpt>
      <trkpt lat="44.36684" lon="0.57671">
        <ele>104.92</ele>
        <time>2023-05-28T16:09:13Z</time>
      </trkpt>
      <trkpt lat="44.36689" lon="0.57661">
        <ele>105.4</ele>
        <time>2023-05-28T16:21:25Z</time>
      </trkpt>
      <trkpt lat="44.36695" lon="0.57649">
        <ele>105.4</ele>
        <time>2023-05-28T16:21:34Z</time>
      </trkpt>
      <trkpt lat="44.36701" lon="0.5762">
        <ele>107.81</ele>
        <time>2023-05-28T16:23:19Z</time>
      </trkpt>
      <trkpt lat="44.36706" lon="0.57606">
        <ele>108.29</ele>
        <time>2023-05-28T16:23:28Z</time>
      </trkpt>
      <trkpt lat="44.3671" lon="0.57592">
        <ele>108.77</ele>
        <time>2023-05-28T16:23:35Z</time>
      </trkpt>
      <trkpt lat="44.36711" lon="0.57576">
        <ele>107.81</ele>
        <time>2023-05-28T16:23:43Z</time>
      </trkpt>
      <trkpt lat="44.36711" lon="0.57562">
        <ele>107.32</ele>
        <time>2023-05-28T16:23:50Z</time>
      </trkpt>
      <trkpt lat="44.36712" lon="0.57548">
        <ele>106.36</ele>
        <time>2023-05-28T16:23:56Z</time>
      </trkpt>
      <trkpt lat="44.36712" lon="0.57533">
        <ele>105.88</ele>
        <time>2023-05-28T16:24:03Z</time>
      </trkpt>
      <trkpt lat="44.36713" lon="0.57518">
        <ele>104.44</ele>
        <time>2023-05-28T16:24:10Z</time>
      </trkpt>
      <trkpt lat="44.36712" lon="0.57502">
        <ele>103.48</ele>
        <time>2023-05-28T16:24:18Z</time>
      </trkpt>
      <trkpt lat="44.36679" lon="0.57462">
        <ele>114.05</ele>
        <time>2023-05-28T16:25:41Z</time>
      </trkpt>
      <trkpt lat="44.36637" lon="0.57388">
        <ele>129.92</ele>
        <time>2023-05-28T16:28:17Z</time>
      </trkpt>
      <trkpt lat="44.36643" lon="0.57373">
        <ele>128.47</ele>
        <time>2023-05-28T16:28:26Z</time>
      </trkpt>
      <trkpt lat="44.36645" lon="0.57357">
        <ele>127.99</ele>
        <time>2023-05-28T16:28:35Z</time>
      </trkpt>
      <trkpt lat="44.36648" lon="0.5734">
        <ele>125.11</ele>
        <time>2023-05-28T16:28:45Z</time>
      </trkpt>
      <trkpt lat="44.3665" lon="0.57325">
        <ele>122.71</ele>
        <time>2023-05-28T16:28:54Z</time>
      </trkpt>
      <trkpt lat="44.36655" lon="0.57306">
        <ele>121.74</ele>
        <time>2023-05-28T16:29:03Z</time>
      </trkpt>
      <trkpt lat="44.36658" lon="0.5729">
        <ele>120.3</ele>
        <time>2023-05-28T16:29:11Z</time>
      </trkpt>
      <trkpt lat="44.36662" lon="0.57275">
        <ele>120.3</ele>
        <time>2023-05-28T16:29:19Z</time>
      </trkpt>
      <trkpt lat="44.36668" lon="0.57261">
        <ele>121.74</ele>
        <time>2023-05-28T16:29:26Z</time>
      </trkpt>
      <trkpt lat="44.36673" lon="0.57247">
        <ele>123.67</ele>
        <time>2023-05-28T16:29:35Z</time>
      </trkpt>
      <trkpt lat="44.36665" lon="0.57247">
        <ele>128.95</ele>
        <time>2023-05-28T16:29:51Z</time>
      </trkpt>
      <trkpt lat="44.36655" lon="0.57259">
        <ele>131.84</ele>
        <time>2023-05-28T16:30:01Z</time>
      </trkpt>
      <trkpt lat="44.36626" lon="0.57284">
        <ele>128.95</ele>
        <time>2023-05-28T16:30:28Z</time>
      </trkpt>
      <trkpt lat="44.36592" lon="0.57309">
        <ele>137.61</ele>
        <time>2023-05-28T16:30:47Z</time>
      </trkpt>
      <trkpt lat="44.36574" lon="0.57329">
        <ele>144.34</ele>
        <time>2023-05-28T16:31:04Z</time>
      </trkpt>
      <trkpt lat="44.36555" lon="0.57346">
        <ele>145.78</ele>
        <time>2023-05-28T16:31:19Z</time>
      </trkpt>
      <trkpt lat="44.36544" lon="0.57356">
        <ele>147.22</ele>
        <time>2023-05-28T16:31:27Z</time>
      </trkpt>
      <trkpt lat="44.36536" lon="0.57365">
        <ele>149.14</ele>
        <time>2023-05-28T16:31:34Z</time>
      </trkpt>
      <trkpt lat="44.36526" lon="0.57375">
        <ele>149.62</ele>
        <time>2023-05-28T16:31:41Z</time>
      </trkpt>
      <trkpt lat="44.36517" lon="0.57387">
        <ele>151.06</ele>
        <time>2023-05-28T16:31:49Z</time>
      </trkpt>
      <trkpt lat="44.36506" lon="0.57399">
        <ele>152.03</ele>
        <time>2023-05-28T16:31:59Z</time>
      </trkpt>
      <trkpt lat="44.36496" lon="0.57413">
        <ele>152.99</ele>
        <time>2023-05-28T16:32:08Z</time>
      </trkpt>
      <trkpt lat="44.36488" lon="0.57425">
        <ele>153.47</ele>
        <time>2023-05-28T16:32:16Z</time>
      </trkpt>
      <trkpt lat="44.3648" lon="0.57437">
        <ele>154.91</ele>
        <time>2023-05-28T16:32:24Z</time>
      </trkpt>
      <trkpt lat="44.36471" lon="0.57454">
        <ele>156.83</ele>
        <time>2023-05-28T16:32:33Z</time>
      </trkpt>
      <trkpt lat="44.36463" lon="0.57468">
        <ele>156.35</ele>
        <time>2023-05-28T16:32:41Z</time>
      </trkpt>
      <trkpt lat="44.36458" lon="0.57483">
        <ele>154.91</ele>
        <time>2023-05-28T16:32:49Z</time>
      </trkpt>
      <trkpt lat="44.36453" lon="0.57498">
        <ele>154.91</ele>
        <time>2023-05-28T16:32:57Z</time>
      </trkpt>
      <trkpt lat="44.36452" lon="0.57515">
        <ele>156.83</ele>
        <time>2023-05-28T16:33:06Z</time>
      </trkpt>
      <trkpt lat="44.36449" lon="0.57547">
        <ele>156.35</ele>
        <time>2023-05-28T16:34:18Z</time>
      </trkpt>
      <trkpt lat="44.36446" lon="0.57581">
        <ele>152.03</ele>
        <time>2023-05-28T16:34:38Z</time>
      </trkpt>
      <trkpt lat="44.36439" lon="0.57615">
        <ele>147.7</ele>
        <time>2023-05-28T16:34:59Z</time>
      </trkpt>
      <trkpt lat="44.36418" lon="0.57656">
        <ele>138.57</ele>
        <time>2023-05-28T16:35:28Z</time>
      </trkpt>
      <trkpt lat="44.36405" lon="0.57681">
        <ele>134.24</ele>
        <time>2023-05-28T16:35:49Z</time>
      </trkpt>
      <trkpt lat="44.36393" lon="0.57707">
        <ele>130.4</ele>
        <time>2023-05-28T16:36:08Z</time>
      </trkpt>
      <trkpt lat="44.36395" lon="0.57724">
        <ele>125.59</ele>
        <time>2023-05-28T16:36:21Z</time>
      </trkpt>
      <trkpt lat="44.36402" lon="0.57738">
        <ele>123.19</ele>
        <time>2023-05-28T16:36:32Z</time>
      </trkpt>
      <trkpt lat="44.36409" lon="0.57754">
        <ele>121.74</ele>
        <time>2023-05-28T16:36:42Z</time>
      </trkpt>
      <trkpt lat="44.36414" lon="0.57773">
        <ele>121.26</ele>
        <time>2023-05-28T16:36:51Z</time>
      </trkpt>
      <trkpt lat="44.36411" lon="0.57787">
        <ele>119.82</ele>
        <time>2023-05-28T16:36:59Z</time>
      </trkpt>
      <trkpt lat="44.36404" lon="0.57801">
        <ele>118.38</ele>
        <time>2023-05-28T16:37:08Z</time>
      </trkpt>
      <trkpt lat="44.36399" lon="0.57815">
        <ele>117.42</ele>
        <time>2023-05-28T16:37:16Z</time>
      </trkpt>
      <trkpt lat="44.36399" lon="0.57829">
        <ele>116.94</ele>
        <time>2023-05-28T16:37:23Z</time>
      </trkpt>
      <trkpt lat="44.36404" lon="0.57841">
        <ele>116.46</ele>
        <time>2023-05-28T16:37:33Z</time>
      </trkpt>
      <trkpt lat="44.36408" lon="0.57858">
        <ele>115.01</ele>
        <time>2023-05-28T16:38:19Z</time>
      </trkpt>
      <trkpt lat="44.36413" lon="0.57872">
        <ele>114.53</ele>
        <time>2023-05-28T16:38:28Z</time>
      </trkpt>
      <trkpt lat="44.36417" lon="0.57886">
        <ele>114.05</ele>
        <time>2023-05-28T16:38:36Z</time>
      </trkpt>
      <trkpt lat="44.36421" lon="0.57898">
        <ele>113.09</ele>
        <time>2023-05-28T16:38:44Z</time>
      </trkpt>
      <trkpt lat="44.36424" lon="0.57913">
        <ele>112.13</ele>
        <time>2023-05-28T16:38:52Z</time>
      </trkpt>
      <trkpt lat="44.36428" lon="0.57924">
        <ele>111.65</ele>
        <time>2023-05-28T16:39:01Z</time>
      </trkpt>
      <trkpt lat="44.36429" lon="0.57926">
        <ele>103.96</ele>
        <time>2023-05-28T16:41:33Z</time>
      </trkpt>
    </trkseg>
  </trk>
</gpx>